<?xml version="1.0" encoding="UTF-8" standalone="no" ?>
<gpx xmlns="http://www.topografix.com/GPX/1/1" xmlns:xsi="http://www.w3.org/2001/XMLSchema-instance" xsi:schemaLocation="http://www.topografix.com/GPX/1/1 http://www.topografix.com/GPX/1/1/gpx.xsd" version="1.1" creator="VisuGPX - https://www.visugpx.com">
  <metadata>
    <name>Sun Trip 2019</name>
    <desc><![CDATA[Le parcours du Sun Trip 2019]]></desc>
  </metadata>
  <trk>
    <name><![CDATA[J3]]></name>
    <trkseg>
      <trkpt lat="45.18833" lon="2.70655">
        <ele>969</ele>
        <time>2019-04-16T11:10:49Z</time>
      </trkpt>
      <trkpt lat="45.18864" lon="2.70684">
        <ele>968</ele>
        <time>2019-04-16T11:11:49Z</time>
      </trkpt>
      <trkpt lat="45.1887" lon="2.70695">
        <ele>967</ele>
        <time>2019-04-16T11:12:49Z</time>
      </trkpt>
      <trkpt lat="45.18864" lon="2.70737">
        <ele>965</ele>
        <time>2019-04-16T11:13:49Z</time>
      </trkpt>
      <trkpt lat="45.18853" lon="2.70762">
        <ele>964</ele>
        <time>2019-04-16T11:14:49Z</time>
      </trkpt>
      <trkpt lat="45.18845" lon="2.70773">
        <ele>964</ele>
        <time>2019-04-16T11:15:49Z</time>
      </trkpt>
      <trkpt lat="45.18829" lon="2.70777">
        <ele>964</ele>
        <time>2019-04-16T11:16:49Z</time>
      </trkpt>
      <trkpt lat="45.18821" lon="2.70795">
        <ele>963</ele>
        <time>2019-04-16T11:17:49Z</time>
      </trkpt>
      <trkpt lat="45.18821" lon="2.70813">
        <ele>962</ele>
        <time>2019-04-16T11:18:49Z</time>
      </trkpt>
      <trkpt lat="45.18826" lon="2.7085">
        <ele>961</ele>
        <time>2019-04-16T11:19:49Z</time>
      </trkpt>
      <trkpt lat="45.18837" lon="2.7089">
        <ele>960</ele>
        <time>2019-04-16T11:20:49Z</time>
      </trkpt>
      <trkpt lat="45.18838" lon="2.70914">
        <ele>960</ele>
        <time>2019-04-16T11:21:49Z</time>
      </trkpt>
      <trkpt lat="45.18835" lon="2.70976">
        <ele>961</ele>
        <time>2019-04-16T11:22:49Z</time>
      </trkpt>
      <trkpt lat="45.18832" lon="2.70987">
        <ele>961</ele>
        <time>2019-04-16T11:23:49Z</time>
      </trkpt>
      <trkpt lat="45.18795" lon="2.71027">
        <ele>963</ele>
        <time>2019-04-16T11:24:49Z</time>
      </trkpt>
      <trkpt lat="45.18787" lon="2.71043">
        <ele>963</ele>
        <time>2019-04-16T11:25:49Z</time>
      </trkpt>
      <trkpt lat="45.18785" lon="2.71064">
        <ele>963</ele>
        <time>2019-04-16T11:26:49Z</time>
      </trkpt>
      <trkpt lat="45.18797" lon="2.71112">
        <ele>964</ele>
        <time>2019-04-16T11:27:49Z</time>
      </trkpt>
      <trkpt lat="45.18798" lon="2.71141">
        <ele>965</ele>
        <time>2019-04-16T11:28:49Z</time>
      </trkpt>
      <trkpt lat="45.18796" lon="2.7116">
        <ele>966</ele>
        <time>2019-04-16T11:29:49Z</time>
      </trkpt>
      <trkpt lat="45.18786" lon="2.71198">
        <ele>967</ele>
        <time>2019-04-16T11:30:49Z</time>
      </trkpt>
      <trkpt lat="45.18781" lon="2.71246">
        <ele>968</ele>
        <time>2019-04-16T11:31:49Z</time>
      </trkpt>
      <trkpt lat="45.18773" lon="2.71281">
        <ele>969</ele>
        <time>2019-04-16T11:32:49Z</time>
      </trkpt>
      <trkpt lat="45.18751" lon="2.71342">
        <ele>971</ele>
        <time>2019-04-16T11:33:49Z</time>
      </trkpt>
      <trkpt lat="45.1875" lon="2.71364">
        <ele>972</ele>
        <time>2019-04-16T11:34:49Z</time>
      </trkpt>
      <trkpt lat="45.18751" lon="2.7138">
        <ele>972</ele>
        <time>2019-04-16T11:35:49Z</time>
      </trkpt>
      <trkpt lat="45.18754" lon="2.71398">
        <ele>973</ele>
        <time>2019-04-16T11:36:49Z</time>
      </trkpt>
      <trkpt lat="45.18786" lon="2.71481">
        <ele>975</ele>
        <time>2019-04-16T11:37:49Z</time>
      </trkpt>
      <trkpt lat="45.18797" lon="2.71526">
        <ele>977</ele>
        <time>2019-04-16T11:38:49Z</time>
      </trkpt>
      <trkpt lat="45.18828" lon="2.71517">
        <ele>978</ele>
        <time>2019-04-16T11:39:49Z</time>
      </trkpt>
      <trkpt lat="45.18871" lon="2.71512">
        <ele>979</ele>
        <time>2019-04-16T11:40:49Z</time>
      </trkpt>
      <trkpt lat="45.18953" lon="2.71512">
        <ele>980</ele>
        <time>2019-04-16T11:41:49Z</time>
      </trkpt>
      <trkpt lat="45.19019" lon="2.71529">
        <ele>983</ele>
        <time>2019-04-16T11:42:49Z</time>
      </trkpt>
      <trkpt lat="45.19058" lon="2.71549">
        <ele>985</ele>
        <time>2019-04-16T11:43:49Z</time>
      </trkpt>
      <trkpt lat="45.19096" lon="2.71564">
        <ele>987</ele>
        <time>2019-04-16T11:44:49Z</time>
      </trkpt>
      <trkpt lat="45.19171" lon="2.71579">
        <ele>983</ele>
        <time>2019-04-16T11:45:49Z</time>
      </trkpt>
      <trkpt lat="45.19226" lon="2.71594">
        <ele>985</ele>
        <time>2019-04-16T11:46:49Z</time>
      </trkpt>
      <trkpt lat="45.193" lon="2.71585">
        <ele>984</ele>
        <time>2019-04-16T11:47:49Z</time>
      </trkpt>
      <trkpt lat="45.19374" lon="2.71589">
        <ele>986</ele>
        <time>2019-04-16T11:48:49Z</time>
      </trkpt>
      <trkpt lat="45.19459" lon="2.71617">
        <ele>988</ele>
        <time>2019-04-16T11:49:49Z</time>
      </trkpt>
      <trkpt lat="45.19497" lon="2.71645">
        <ele>990</ele>
        <time>2019-04-16T11:50:49Z</time>
      </trkpt>
      <trkpt lat="45.1955" lon="2.71663">
        <ele>986</ele>
        <time>2019-04-16T11:51:49Z</time>
      </trkpt>
      <trkpt lat="45.19583" lon="2.71672">
        <ele>984</ele>
        <time>2019-04-16T11:52:49Z</time>
      </trkpt>
      <trkpt lat="45.1961" lon="2.71702">
        <ele>988</ele>
        <time>2019-04-16T11:53:49Z</time>
      </trkpt>
      <trkpt lat="45.19645" lon="2.71714">
        <ele>988</ele>
        <time>2019-04-16T11:54:49Z</time>
      </trkpt>
      <trkpt lat="45.19705" lon="2.71719">
        <ele>985</ele>
        <time>2019-04-16T11:55:49Z</time>
      </trkpt>
      <trkpt lat="45.19741" lon="2.71739">
        <ele>987</ele>
        <time>2019-04-16T11:56:49Z</time>
      </trkpt>
      <trkpt lat="45.19768" lon="2.71742">
        <ele>987</ele>
        <time>2019-04-16T11:57:49Z</time>
      </trkpt>
      <trkpt lat="45.19815" lon="2.71715">
        <ele>980</ele>
        <time>2019-04-16T11:58:49Z</time>
      </trkpt>
      <trkpt lat="45.19834" lon="2.71712">
        <ele>979</ele>
        <time>2019-04-16T11:59:49Z</time>
      </trkpt>
      <trkpt lat="45.19865" lon="2.71731">
        <ele>982</ele>
        <time>2019-04-16T12:00:49Z</time>
      </trkpt>
      <trkpt lat="45.19898" lon="2.71748">
        <ele>985</ele>
        <time>2019-04-16T12:01:49Z</time>
      </trkpt>
      <trkpt lat="45.19921" lon="2.71749">
        <ele>984</ele>
        <time>2019-04-16T12:02:49Z</time>
      </trkpt>
      <trkpt lat="45.19934" lon="2.71747">
        <ele>984</ele>
        <time>2019-04-16T12:03:49Z</time>
      </trkpt>
      <trkpt lat="45.19967" lon="2.71726">
        <ele>981</ele>
        <time>2019-04-16T12:04:49Z</time>
      </trkpt>
      <trkpt lat="45.20029" lon="2.7167">
        <ele>972</ele>
        <time>2019-04-16T12:05:49Z</time>
      </trkpt>
      <trkpt lat="45.20051" lon="2.71672">
        <ele>971</ele>
        <time>2019-04-16T12:06:49Z</time>
      </trkpt>
      <trkpt lat="45.20085" lon="2.71693">
        <ele>975</ele>
        <time>2019-04-16T12:07:49Z</time>
      </trkpt>
      <trkpt lat="45.20141" lon="2.71688">
        <ele>973</ele>
        <time>2019-04-16T12:08:49Z</time>
      </trkpt>
      <trkpt lat="45.20164" lon="2.71696">
        <ele>975</ele>
        <time>2019-04-16T12:09:49Z</time>
      </trkpt>
      <trkpt lat="45.20184" lon="2.71695">
        <ele>977</ele>
        <time>2019-04-16T12:10:49Z</time>
      </trkpt>
      <trkpt lat="45.2022" lon="2.71674">
        <ele>975</ele>
        <time>2019-04-16T12:11:49Z</time>
      </trkpt>
      <trkpt lat="45.20279" lon="2.71633">
        <ele>973</ele>
        <time>2019-04-16T12:12:49Z</time>
      </trkpt>
      <trkpt lat="45.20416" lon="2.71575">
        <ele>968</ele>
        <time>2019-04-16T12:13:49Z</time>
      </trkpt>
      <trkpt lat="45.20518" lon="2.71584">
        <ele>974</ele>
        <time>2019-04-16T12:14:49Z</time>
      </trkpt>
      <trkpt lat="45.20581" lon="2.71564">
        <ele>968</ele>
        <time>2019-04-16T12:15:49Z</time>
      </trkpt>
      <trkpt lat="45.20597" lon="2.71562">
        <ele>967</ele>
        <time>2019-04-16T12:16:49Z</time>
      </trkpt>
      <trkpt lat="45.20615" lon="2.71565">
        <ele>967</ele>
        <time>2019-04-16T12:17:49Z</time>
      </trkpt>
      <trkpt lat="45.20635" lon="2.71578">
        <ele>970</ele>
        <time>2019-04-16T12:18:49Z</time>
      </trkpt>
      <trkpt lat="45.2066" lon="2.71601">
        <ele>974</ele>
        <time>2019-04-16T12:19:49Z</time>
      </trkpt>
      <trkpt lat="45.20676" lon="2.71608">
        <ele>974</ele>
        <time>2019-04-16T12:20:49Z</time>
      </trkpt>
      <trkpt lat="45.20736" lon="2.71625">
        <ele>969</ele>
        <time>2019-04-16T12:21:49Z</time>
      </trkpt>
      <trkpt lat="45.20818" lon="2.71618">
        <ele>963</ele>
        <time>2019-04-16T12:22:49Z</time>
      </trkpt>
      <trkpt lat="45.2083" lon="2.71625">
        <ele>963</ele>
        <time>2019-04-16T12:23:49Z</time>
      </trkpt>
      <trkpt lat="45.20882" lon="2.71643">
        <ele>963</ele>
        <time>2019-04-16T12:24:49Z</time>
      </trkpt>
      <trkpt lat="45.20917" lon="2.71644">
        <ele>962</ele>
        <time>2019-04-16T12:25:49Z</time>
      </trkpt>
      <trkpt lat="45.20932" lon="2.71648">
        <ele>962</ele>
        <time>2019-04-16T12:26:49Z</time>
      </trkpt>
      <trkpt lat="45.20979" lon="2.71672">
        <ele>966</ele>
        <time>2019-04-16T12:27:49Z</time>
      </trkpt>
      <trkpt lat="45.21002" lon="2.71667">
        <ele>965</ele>
        <time>2019-04-16T12:28:49Z</time>
      </trkpt>
      <trkpt lat="45.21029" lon="2.71685">
        <ele>969</ele>
        <time>2019-04-16T12:29:49Z</time>
      </trkpt>
      <trkpt lat="45.21171" lon="2.71768">
        <ele>983</ele>
        <time>2019-04-16T12:30:49Z</time>
      </trkpt>
      <trkpt lat="45.21213" lon="2.71812">
        <ele>984</ele>
        <time>2019-04-16T12:31:49Z</time>
      </trkpt>
      <trkpt lat="45.21239" lon="2.71855">
        <ele>986</ele>
        <time>2019-04-16T12:32:49Z</time>
      </trkpt>
      <trkpt lat="45.21266" lon="2.71905">
        <ele>990</ele>
        <time>2019-04-16T12:33:49Z</time>
      </trkpt>
      <trkpt lat="45.213" lon="2.71927">
        <ele>990</ele>
        <time>2019-04-16T12:34:49Z</time>
      </trkpt>
      <trkpt lat="45.21374" lon="2.71929">
        <ele>989</ele>
        <time>2019-04-16T12:35:49Z</time>
      </trkpt>
      <trkpt lat="45.21431" lon="2.71955">
        <ele>996</ele>
        <time>2019-04-16T12:36:49Z</time>
      </trkpt>
      <trkpt lat="45.21484" lon="2.71966">
        <ele>1000</ele>
        <time>2019-04-16T12:37:49Z</time>
      </trkpt>
      <trkpt lat="45.21508" lon="2.71963">
        <ele>1001</ele>
        <time>2019-04-16T12:38:49Z</time>
      </trkpt>
      <trkpt lat="45.21568" lon="2.71938">
        <ele>1000</ele>
        <time>2019-04-16T12:39:49Z</time>
      </trkpt>
      <trkpt lat="45.21597" lon="2.71938">
        <ele>1001</ele>
        <time>2019-04-16T12:40:49Z</time>
      </trkpt>
      <trkpt lat="45.21627" lon="2.7195">
        <ele>1004</ele>
        <time>2019-04-16T12:41:49Z</time>
      </trkpt>
      <trkpt lat="45.21649" lon="2.71962">
        <ele>1007</ele>
        <time>2019-04-16T12:42:49Z</time>
      </trkpt>
      <trkpt lat="45.21685" lon="2.71975">
        <ele>1010</ele>
        <time>2019-04-16T12:43:49Z</time>
      </trkpt>
      <trkpt lat="45.21789" lon="2.71973">
        <ele>1013</ele>
        <time>2019-04-16T12:44:49Z</time>
      </trkpt>
      <trkpt lat="45.21851" lon="2.71983">
        <ele>1018</ele>
        <time>2019-04-16T12:45:49Z</time>
      </trkpt>
      <trkpt lat="45.21999" lon="2.7206">
        <ele>1036</ele>
        <time>2019-04-16T12:46:49Z</time>
      </trkpt>
      <trkpt lat="45.22087" lon="2.72101">
        <ele>1041</ele>
        <time>2019-04-16T12:47:49Z</time>
      </trkpt>
      <trkpt lat="45.22144" lon="2.72142">
        <ele>1044</ele>
        <time>2019-04-16T12:48:49Z</time>
      </trkpt>
      <trkpt lat="45.22182" lon="2.72163">
        <ele>1044</ele>
        <time>2019-04-16T12:49:49Z</time>
      </trkpt>
      <trkpt lat="45.22217" lon="2.72201">
        <ele>1046</ele>
        <time>2019-04-16T12:50:49Z</time>
      </trkpt>
      <trkpt lat="45.22248" lon="2.7224">
        <ele>1049</ele>
        <time>2019-04-16T12:51:49Z</time>
      </trkpt>
      <trkpt lat="45.22274" lon="2.72285">
        <ele>1050</ele>
        <time>2019-04-16T12:52:49Z</time>
      </trkpt>
      <trkpt lat="45.22282" lon="2.72329">
        <ele>1054</ele>
        <time>2019-04-16T12:53:49Z</time>
      </trkpt>
      <trkpt lat="45.22296" lon="2.72391">
        <ele>1059</ele>
        <time>2019-04-16T12:54:49Z</time>
      </trkpt>
      <trkpt lat="45.2231" lon="2.72417">
        <ele>1061</ele>
        <time>2019-04-16T12:55:49Z</time>
      </trkpt>
      <trkpt lat="45.22366" lon="2.72484">
        <ele>1070</ele>
        <time>2019-04-16T12:56:49Z</time>
      </trkpt>
      <trkpt lat="45.2241" lon="2.72516">
        <ele>1070</ele>
        <time>2019-04-16T12:57:49Z</time>
      </trkpt>
      <trkpt lat="45.22473" lon="2.72553">
        <ele>1069</ele>
        <time>2019-04-16T12:58:49Z</time>
      </trkpt>
      <trkpt lat="45.22643" lon="2.72632">
        <ele>1063</ele>
        <time>2019-04-16T12:59:49Z</time>
      </trkpt>
      <trkpt lat="45.22709" lon="2.72645">
        <ele>1062</ele>
        <time>2019-04-16T13:00:49Z</time>
      </trkpt>
      <trkpt lat="45.22772" lon="2.72652">
        <ele>1063</ele>
        <time>2019-04-16T13:01:49Z</time>
      </trkpt>
      <trkpt lat="45.22819" lon="2.7265">
        <ele>1062</ele>
        <time>2019-04-16T13:02:49Z</time>
      </trkpt>
      <trkpt lat="45.22856" lon="2.72667">
        <ele>1062</ele>
        <time>2019-04-16T13:03:49Z</time>
      </trkpt>
      <trkpt lat="45.22878" lon="2.72702">
        <ele>1061</ele>
        <time>2019-04-16T13:04:49Z</time>
      </trkpt>
      <trkpt lat="45.22895" lon="2.72818">
        <ele>1059</ele>
        <time>2019-04-16T13:05:49Z</time>
      </trkpt>
      <trkpt lat="45.22893" lon="2.72885">
        <ele>1058</ele>
        <time>2019-04-16T13:06:49Z</time>
      </trkpt>
      <trkpt lat="45.22903" lon="2.72966">
        <ele>1051</ele>
        <time>2019-04-16T13:07:49Z</time>
      </trkpt>
      <trkpt lat="45.22915" lon="2.73041">
        <ele>1046</ele>
        <time>2019-04-16T13:08:49Z</time>
      </trkpt>
      <trkpt lat="45.22925" lon="2.73068">
        <ele>1045</ele>
        <time>2019-04-16T13:09:49Z</time>
      </trkpt>
      <trkpt lat="45.2294" lon="2.73092">
        <ele>1044</ele>
        <time>2019-04-16T13:10:49Z</time>
      </trkpt>
      <trkpt lat="45.22956" lon="2.73107">
        <ele>1043</ele>
        <time>2019-04-16T13:11:49Z</time>
      </trkpt>
      <trkpt lat="45.22988" lon="2.73122">
        <ele>1042</ele>
        <time>2019-04-16T13:12:49Z</time>
      </trkpt>
      <trkpt lat="45.23106" lon="2.73152">
        <ele>1038</ele>
        <time>2019-04-16T13:13:49Z</time>
      </trkpt>
      <trkpt lat="45.23141" lon="2.73168">
        <ele>1036</ele>
        <time>2019-04-16T13:14:49Z</time>
      </trkpt>
      <trkpt lat="45.23238" lon="2.73258">
        <ele>1037</ele>
        <time>2019-04-16T13:15:49Z</time>
      </trkpt>
      <trkpt lat="45.23281" lon="2.73293">
        <ele>1037</ele>
        <time>2019-04-16T13:16:49Z</time>
      </trkpt>
      <trkpt lat="45.23418" lon="2.73385">
        <ele>1035</ele>
        <time>2019-04-16T13:17:49Z</time>
      </trkpt>
      <trkpt lat="45.23452" lon="2.73394">
        <ele>1034</ele>
        <time>2019-04-16T13:18:49Z</time>
      </trkpt>
      <trkpt lat="45.23475" lon="2.73398">
        <ele>1033</ele>
        <time>2019-04-16T13:19:49Z</time>
      </trkpt>
      <trkpt lat="45.23476" lon="2.73425">
        <ele>1034</ele>
        <time>2019-04-16T13:20:49Z</time>
      </trkpt>
      <trkpt lat="45.23485" lon="2.73466">
        <ele>1037</ele>
        <time>2019-04-16T13:21:49Z</time>
      </trkpt>
      <trkpt lat="45.23492" lon="2.73484">
        <ele>1038</ele>
        <time>2019-04-16T13:22:49Z</time>
      </trkpt>
      <trkpt lat="45.23503" lon="2.73506">
        <ele>1040</ele>
        <time>2019-04-16T13:23:49Z</time>
      </trkpt>
      <trkpt lat="45.23555" lon="2.73587">
        <ele>1047</ele>
        <time>2019-04-16T13:24:49Z</time>
      </trkpt>
      <trkpt lat="45.23569" lon="2.73608">
        <ele>1049</ele>
        <time>2019-04-16T13:25:49Z</time>
      </trkpt>
      <trkpt lat="45.23599" lon="2.73637">
        <ele>1053</ele>
        <time>2019-04-16T13:26:49Z</time>
      </trkpt>
      <trkpt lat="45.23624" lon="2.7365">
        <ele>1055</ele>
        <time>2019-04-16T13:27:49Z</time>
      </trkpt>
      <trkpt lat="45.23642" lon="2.73656">
        <ele>1056</ele>
        <time>2019-04-16T13:28:49Z</time>
      </trkpt>
      <trkpt lat="45.2369" lon="2.73665">
        <ele>1057</ele>
        <time>2019-04-16T13:29:49Z</time>
      </trkpt>
      <trkpt lat="45.23705" lon="2.7367">
        <ele>1058</ele>
        <time>2019-04-16T13:30:49Z</time>
      </trkpt>
      <trkpt lat="45.23728" lon="2.73685">
        <ele>1059</ele>
        <time>2019-04-16T13:31:49Z</time>
      </trkpt>
      <trkpt lat="45.23745" lon="2.73706">
        <ele>1060</ele>
        <time>2019-04-16T13:32:49Z</time>
      </trkpt>
      <trkpt lat="45.23751" lon="2.73716">
        <ele>1061</ele>
        <time>2019-04-16T13:33:49Z</time>
      </trkpt>
      <trkpt lat="45.23764" lon="2.73711">
        <ele>1060</ele>
        <time>2019-04-16T13:34:49Z</time>
      </trkpt>
      <trkpt lat="45.23785" lon="2.73715">
        <ele>1060</ele>
        <time>2019-04-16T13:35:49Z</time>
      </trkpt>
      <trkpt lat="45.2382" lon="2.73734">
        <ele>1060</ele>
        <time>2019-04-16T13:36:49Z</time>
      </trkpt>
      <trkpt lat="45.23858" lon="2.73736">
        <ele>1058</ele>
        <time>2019-04-16T13:37:49Z</time>
      </trkpt>
      <trkpt lat="45.23877" lon="2.73738">
        <ele>1057</ele>
        <time>2019-04-16T13:38:49Z</time>
      </trkpt>
      <trkpt lat="45.23904" lon="2.73748">
        <ele>1056</ele>
        <time>2019-04-16T13:39:49Z</time>
      </trkpt>
      <trkpt lat="45.23945" lon="2.73768">
        <ele>1054</ele>
        <time>2019-04-16T13:40:49Z</time>
      </trkpt>
      <trkpt lat="45.23996" lon="2.73783">
        <ele>1050</ele>
        <time>2019-04-16T13:41:49Z</time>
      </trkpt>
      <trkpt lat="45.2402" lon="2.73793">
        <ele>1049</ele>
        <time>2019-04-16T13:42:49Z</time>
      </trkpt>
      <trkpt lat="45.24103" lon="2.73847">
        <ele>1042</ele>
        <time>2019-04-16T13:43:49Z</time>
      </trkpt>
      <trkpt lat="45.2415" lon="2.73881">
        <ele>1040</ele>
        <time>2019-04-16T13:44:49Z</time>
      </trkpt>
      <trkpt lat="45.24193" lon="2.7392">
        <ele>1039</ele>
        <time>2019-04-16T13:45:49Z</time>
      </trkpt>
      <trkpt lat="45.2422" lon="2.73948">
        <ele>1040</ele>
        <time>2019-04-16T13:46:49Z</time>
      </trkpt>
      <trkpt lat="45.24316" lon="2.7407">
        <ele>1045</ele>
        <time>2019-04-16T13:47:49Z</time>
      </trkpt>
      <trkpt lat="45.24357" lon="2.74113">
        <ele>1051</ele>
        <time>2019-04-16T13:48:49Z</time>
      </trkpt>
      <trkpt lat="45.24392" lon="2.74146">
        <ele>1055</ele>
        <time>2019-04-16T13:49:49Z</time>
      </trkpt>
      <trkpt lat="45.24408" lon="2.74152">
        <ele>1055</ele>
        <time>2019-04-16T13:50:49Z</time>
      </trkpt>
      <trkpt lat="45.24429" lon="2.7415">
        <ele>1054</ele>
        <time>2019-04-16T13:51:49Z</time>
      </trkpt>
      <trkpt lat="45.24461" lon="2.74153">
        <ele>1053</ele>
        <time>2019-04-16T13:52:49Z</time>
      </trkpt>
      <trkpt lat="45.24484" lon="2.74163">
        <ele>1054</ele>
        <time>2019-04-16T13:53:49Z</time>
      </trkpt>
      <trkpt lat="45.2451" lon="2.74184">
        <ele>1057</ele>
        <time>2019-04-16T13:54:49Z</time>
      </trkpt>
      <trkpt lat="45.24549" lon="2.74203">
        <ele>1057</ele>
        <time>2019-04-16T13:55:49Z</time>
      </trkpt>
      <trkpt lat="45.24567" lon="2.74228">
        <ele>1059</ele>
        <time>2019-04-16T13:56:49Z</time>
      </trkpt>
      <trkpt lat="45.24587" lon="2.74252">
        <ele>1061</ele>
        <time>2019-04-16T13:57:49Z</time>
      </trkpt>
      <trkpt lat="45.24605" lon="2.74265">
        <ele>1062</ele>
        <time>2019-04-16T13:58:49Z</time>
      </trkpt>
      <trkpt lat="45.24621" lon="2.74272">
        <ele>1062</ele>
        <time>2019-04-16T13:59:49Z</time>
      </trkpt>
      <trkpt lat="45.24818" lon="2.74264">
        <ele>1059</ele>
        <time>2019-04-16T14:00:49Z</time>
      </trkpt>
      <trkpt lat="45.2487" lon="2.74264">
        <ele>1058</ele>
        <time>2019-04-16T14:01:49Z</time>
      </trkpt>
      <trkpt lat="45.24912" lon="2.74272">
        <ele>1057</ele>
        <time>2019-04-16T14:02:49Z</time>
      </trkpt>
      <trkpt lat="45.24985" lon="2.74303">
        <ele>1057</ele>
        <time>2019-04-16T14:03:49Z</time>
      </trkpt>
      <trkpt lat="45.25033" lon="2.74314">
        <ele>1056</ele>
        <time>2019-04-16T14:04:49Z</time>
      </trkpt>
      <trkpt lat="45.2511" lon="2.74326">
        <ele>1055</ele>
        <time>2019-04-16T14:05:49Z</time>
      </trkpt>
      <trkpt lat="45.25204" lon="2.74348">
        <ele>1058</ele>
        <time>2019-04-16T14:06:49Z</time>
      </trkpt>
      <trkpt lat="45.25292" lon="2.74385">
        <ele>1062</ele>
        <time>2019-04-16T14:07:49Z</time>
      </trkpt>
      <trkpt lat="45.25318" lon="2.74385">
        <ele>1062</ele>
        <time>2019-04-16T14:08:49Z</time>
      </trkpt>
      <trkpt lat="45.25356" lon="2.74362">
        <ele>1060</ele>
        <time>2019-04-16T14:09:49Z</time>
      </trkpt>
      <trkpt lat="45.25378" lon="2.74355">
        <ele>1060</ele>
        <time>2019-04-16T14:10:49Z</time>
      </trkpt>
      <trkpt lat="45.25456" lon="2.74342">
        <ele>1061</ele>
        <time>2019-04-16T14:11:49Z</time>
      </trkpt>
      <trkpt lat="45.25504" lon="2.74314">
        <ele>1059</ele>
        <time>2019-04-16T14:12:49Z</time>
      </trkpt>
      <trkpt lat="45.2552" lon="2.7431">
        <ele>1059</ele>
        <time>2019-04-16T14:13:49Z</time>
      </trkpt>
      <trkpt lat="45.25531" lon="2.74313">
        <ele>1060</ele>
        <time>2019-04-16T14:14:49Z</time>
      </trkpt>
      <trkpt lat="45.25574" lon="2.74335">
        <ele>1063</ele>
        <time>2019-04-16T14:15:49Z</time>
      </trkpt>
      <trkpt lat="45.25598" lon="2.74331">
        <ele>1064</ele>
        <time>2019-04-16T14:16:49Z</time>
      </trkpt>
      <trkpt lat="45.25689" lon="2.74284">
        <ele>1062</ele>
        <time>2019-04-16T14:17:49Z</time>
      </trkpt>
      <trkpt lat="45.2573" lon="2.74259">
        <ele>1060</ele>
        <time>2019-04-16T14:18:49Z</time>
      </trkpt>
      <trkpt lat="45.25776" lon="2.7422">
        <ele>1055</ele>
        <time>2019-04-16T14:19:49Z</time>
      </trkpt>
      <trkpt lat="45.25799" lon="2.74209">
        <ele>1054</ele>
        <time>2019-04-16T14:20:49Z</time>
      </trkpt>
      <trkpt lat="45.25828" lon="2.74216">
        <ele>1055</ele>
        <time>2019-04-16T14:21:49Z</time>
      </trkpt>
      <trkpt lat="45.25847" lon="2.74233">
        <ele>1055</ele>
        <time>2019-04-16T14:22:49Z</time>
      </trkpt>
      <trkpt lat="45.25863" lon="2.74266">
        <ele>1055</ele>
        <time>2019-04-16T14:23:49Z</time>
      </trkpt>
      <trkpt lat="45.25872" lon="2.74315">
        <ele>1055</ele>
        <time>2019-04-16T14:24:49Z</time>
      </trkpt>
      <trkpt lat="45.2588" lon="2.74386">
        <ele>1057</ele>
        <time>2019-04-16T14:25:49Z</time>
      </trkpt>
      <trkpt lat="45.2589" lon="2.74422">
        <ele>1056</ele>
        <time>2019-04-16T14:26:49Z</time>
      </trkpt>
      <trkpt lat="45.25909" lon="2.74456">
        <ele>1056</ele>
        <time>2019-04-16T14:27:49Z</time>
      </trkpt>
      <trkpt lat="45.25929" lon="2.74483">
        <ele>1055</ele>
        <time>2019-04-16T14:28:49Z</time>
      </trkpt>
      <trkpt lat="45.25997" lon="2.74535">
        <ele>1046</ele>
        <time>2019-04-16T14:29:49Z</time>
      </trkpt>
      <trkpt lat="45.26014" lon="2.74558">
        <ele>1046</ele>
        <time>2019-04-16T14:30:49Z</time>
      </trkpt>
      <trkpt lat="45.26032" lon="2.74588">
        <ele>1045</ele>
        <time>2019-04-16T14:31:49Z</time>
      </trkpt>
      <trkpt lat="45.26055" lon="2.74693">
        <ele>1044</ele>
        <time>2019-04-16T14:32:49Z</time>
      </trkpt>
      <trkpt lat="45.2607" lon="2.74769">
        <ele>1038</ele>
        <time>2019-04-16T14:33:49Z</time>
      </trkpt>
      <trkpt lat="45.26116" lon="2.74973">
        <ele>1021</ele>
        <time>2019-04-16T14:34:49Z</time>
      </trkpt>
      <trkpt lat="45.26116" lon="2.75003">
        <ele>1019</ele>
        <time>2019-04-16T14:35:49Z</time>
      </trkpt>
      <trkpt lat="45.26109" lon="2.75034">
        <ele>1018</ele>
        <time>2019-04-16T14:36:49Z</time>
      </trkpt>
      <trkpt lat="45.261" lon="2.75061">
        <ele>1017</ele>
        <time>2019-04-16T14:37:49Z</time>
      </trkpt>
      <trkpt lat="45.26096" lon="2.75086">
        <ele>1015</ele>
        <time>2019-04-16T14:38:49Z</time>
      </trkpt>
      <trkpt lat="45.261" lon="2.75112">
        <ele>1015</ele>
        <time>2019-04-16T14:39:49Z</time>
      </trkpt>
      <trkpt lat="45.26108" lon="2.75126">
        <ele>1015</ele>
        <time>2019-04-16T14:40:49Z</time>
      </trkpt>
      <trkpt lat="45.26121" lon="2.75133">
        <ele>1015</ele>
        <time>2019-04-16T14:41:49Z</time>
      </trkpt>
      <trkpt lat="45.26236" lon="2.75151">
        <ele>1014</ele>
        <time>2019-04-16T14:42:49Z</time>
      </trkpt>
      <trkpt lat="45.26309" lon="2.75133">
        <ele>1012</ele>
        <time>2019-04-16T14:43:49Z</time>
      </trkpt>
      <trkpt lat="45.26357" lon="2.75119">
        <ele>1011</ele>
        <time>2019-04-16T14:44:49Z</time>
      </trkpt>
      <trkpt lat="45.26397" lon="2.7514">
        <ele>1015</ele>
        <time>2019-04-16T14:45:49Z</time>
      </trkpt>
      <trkpt lat="45.26433" lon="2.75165">
        <ele>1019</ele>
        <time>2019-04-16T14:46:49Z</time>
      </trkpt>
      <trkpt lat="45.26457" lon="2.75173">
        <ele>1020</ele>
        <time>2019-04-16T14:47:49Z</time>
      </trkpt>
      <trkpt lat="45.2655" lon="2.7517">
        <ele>1021</ele>
        <time>2019-04-16T14:48:49Z</time>
      </trkpt>
      <trkpt lat="45.2662" lon="2.75181">
        <ele>1021</ele>
        <time>2019-04-16T14:49:49Z</time>
      </trkpt>
      <trkpt lat="45.26661" lon="2.75193">
        <ele>1022</ele>
        <time>2019-04-16T14:50:49Z</time>
      </trkpt>
      <trkpt lat="45.26681" lon="2.75197">
        <ele>1024</ele>
        <time>2019-04-16T14:51:49Z</time>
      </trkpt>
      <trkpt lat="45.26693" lon="2.75196">
        <ele>1025</ele>
        <time>2019-04-16T14:52:49Z</time>
      </trkpt>
      <trkpt lat="45.2676" lon="2.75149">
        <ele>1027</ele>
        <time>2019-04-16T14:53:49Z</time>
      </trkpt>
      <trkpt lat="45.26799" lon="2.75139">
        <ele>1031</ele>
        <time>2019-04-16T14:54:49Z</time>
      </trkpt>
      <trkpt lat="45.26826" lon="2.75149">
        <ele>1034</ele>
        <time>2019-04-16T14:55:49Z</time>
      </trkpt>
      <trkpt lat="45.2687" lon="2.7519">
        <ele>1038</ele>
        <time>2019-04-16T14:56:49Z</time>
      </trkpt>
      <trkpt lat="45.26897" lon="2.75236">
        <ele>1039</ele>
        <time>2019-04-16T14:57:49Z</time>
      </trkpt>
      <trkpt lat="45.26916" lon="2.75249">
        <ele>1039</ele>
        <time>2019-04-16T14:58:49Z</time>
      </trkpt>
      <trkpt lat="45.26948" lon="2.75233">
        <ele>1037</ele>
        <time>2019-04-16T14:59:49Z</time>
      </trkpt>
      <trkpt lat="45.26991" lon="2.75198">
        <ele>1036</ele>
        <time>2019-04-16T15:00:49Z</time>
      </trkpt>
      <trkpt lat="45.27036" lon="2.75191">
        <ele>1035</ele>
        <time>2019-04-16T15:01:49Z</time>
      </trkpt>
      <trkpt lat="45.27081" lon="2.7518">
        <ele>1034</ele>
        <time>2019-04-16T15:02:49Z</time>
      </trkpt>
      <trkpt lat="45.27119" lon="2.75143">
        <ele>1033</ele>
        <time>2019-04-16T15:03:49Z</time>
      </trkpt>
      <trkpt lat="45.27161" lon="2.7509">
        <ele>1031</ele>
        <time>2019-04-16T15:04:49Z</time>
      </trkpt>
      <trkpt lat="45.27189" lon="2.75065">
        <ele>1030</ele>
        <time>2019-04-16T15:05:49Z</time>
      </trkpt>
      <trkpt lat="45.27258" lon="2.75029">
        <ele>1025</ele>
        <time>2019-04-16T15:06:49Z</time>
      </trkpt>
      <trkpt lat="45.27327" lon="2.75012">
        <ele>1023</ele>
        <time>2019-04-16T15:07:49Z</time>
      </trkpt>
      <trkpt lat="45.27385" lon="2.75012">
        <ele>1020</ele>
        <time>2019-04-16T15:08:49Z</time>
      </trkpt>
      <trkpt lat="45.27432" lon="2.75033">
        <ele>1020</ele>
        <time>2019-04-16T15:09:49Z</time>
      </trkpt>
      <trkpt lat="45.27462" lon="2.7504">
        <ele>1020</ele>
        <time>2019-04-16T15:10:49Z</time>
      </trkpt>
      <trkpt lat="45.27502" lon="2.75021">
        <ele>1016</ele>
        <time>2019-04-16T15:11:49Z</time>
      </trkpt>
      <trkpt lat="45.27542" lon="2.75019">
        <ele>1014</ele>
        <time>2019-04-16T15:12:49Z</time>
      </trkpt>
      <trkpt lat="45.27588" lon="2.75034">
        <ele>1013</ele>
        <time>2019-04-16T15:13:49Z</time>
      </trkpt>
      <trkpt lat="45.2763" lon="2.75056">
        <ele>1010</ele>
        <time>2019-04-16T15:14:49Z</time>
      </trkpt>
      <trkpt lat="45.27661" lon="2.75085">
        <ele>1009</ele>
        <time>2019-04-16T15:15:49Z</time>
      </trkpt>
      <trkpt lat="45.27772" lon="2.75174">
        <ele>1005</ele>
        <time>2019-04-16T15:16:49Z</time>
      </trkpt>
      <trkpt lat="45.27965" lon="2.75335">
        <ele>1004</ele>
        <time>2019-04-16T15:17:49Z</time>
      </trkpt>
      <trkpt lat="45.2807" lon="2.75394">
        <ele>1005</ele>
        <time>2019-04-16T15:18:49Z</time>
      </trkpt>
      <trkpt lat="45.28145" lon="2.75445">
        <ele>1005</ele>
        <time>2019-04-16T15:19:49Z</time>
      </trkpt>
      <trkpt lat="45.28334" lon="2.75682">
        <ele>998</ele>
        <time>2019-04-16T15:20:49Z</time>
      </trkpt>
      <trkpt lat="45.28351" lon="2.75696">
        <ele>999</ele>
        <time>2019-04-16T15:21:49Z</time>
      </trkpt>
      <trkpt lat="45.28372" lon="2.75699">
        <ele>999</ele>
        <time>2019-04-16T15:22:49Z</time>
      </trkpt>
      <trkpt lat="45.28415" lon="2.75655">
        <ele>998</ele>
        <time>2019-04-16T15:23:49Z</time>
      </trkpt>
      <trkpt lat="45.28439" lon="2.75636">
        <ele>1000</ele>
        <time>2019-04-16T15:24:49Z</time>
      </trkpt>
      <trkpt lat="45.28462" lon="2.75642">
        <ele>1001</ele>
        <time>2019-04-16T15:25:49Z</time>
      </trkpt>
      <trkpt lat="45.28529" lon="2.75687">
        <ele>1003</ele>
        <time>2019-04-16T15:26:49Z</time>
      </trkpt>
      <trkpt lat="45.28556" lon="2.75727">
        <ele>1003</ele>
        <time>2019-04-16T15:27:49Z</time>
      </trkpt>
      <trkpt lat="45.28596" lon="2.75773">
        <ele>1003</ele>
        <time>2019-04-16T15:28:49Z</time>
      </trkpt>
      <trkpt lat="45.28681" lon="2.75815">
        <ele>1004</ele>
        <time>2019-04-16T15:29:49Z</time>
      </trkpt>
      <trkpt lat="45.28723" lon="2.75845">
        <ele>1005</ele>
        <time>2019-04-16T15:30:49Z</time>
      </trkpt>
      <trkpt lat="45.28754" lon="2.75876">
        <ele>1006</ele>
        <time>2019-04-16T15:31:49Z</time>
      </trkpt>
      <trkpt lat="45.28784" lon="2.75873">
        <ele>1005</ele>
        <time>2019-04-16T15:32:49Z</time>
      </trkpt>
      <trkpt lat="45.28795" lon="2.75876">
        <ele>1005</ele>
        <time>2019-04-16T15:33:49Z</time>
      </trkpt>
      <trkpt lat="45.28822" lon="2.75905">
        <ele>1006</ele>
        <time>2019-04-16T15:34:49Z</time>
      </trkpt>
      <trkpt lat="45.28839" lon="2.75954">
        <ele>1006</ele>
        <time>2019-04-16T15:35:49Z</time>
      </trkpt>
      <trkpt lat="45.28837" lon="2.7601">
        <ele>1007</ele>
        <time>2019-04-16T15:36:49Z</time>
      </trkpt>
      <trkpt lat="45.2883" lon="2.76056">
        <ele>1009</ele>
        <time>2019-04-16T15:37:49Z</time>
      </trkpt>
      <trkpt lat="45.28828" lon="2.76113">
        <ele>1010</ele>
        <time>2019-04-16T15:38:49Z</time>
      </trkpt>
      <trkpt lat="45.28837" lon="2.76148">
        <ele>1009</ele>
        <time>2019-04-16T15:39:49Z</time>
      </trkpt>
      <trkpt lat="45.2885" lon="2.76181">
        <ele>1007</ele>
        <time>2019-04-16T15:40:49Z</time>
      </trkpt>
      <trkpt lat="45.28869" lon="2.76229">
        <ele>1005</ele>
        <time>2019-04-16T15:41:49Z</time>
      </trkpt>
      <trkpt lat="45.28875" lon="2.76229">
        <ele>1004</ele>
        <time>2019-04-16T15:42:49Z</time>
      </trkpt>
      <trkpt lat="45.2888" lon="2.76238">
        <ele>1003</ele>
        <time>2019-04-16T15:43:49Z</time>
      </trkpt>
      <trkpt lat="45.28903" lon="2.76299">
        <ele>1001</ele>
        <time>2019-04-16T15:44:49Z</time>
      </trkpt>
      <trkpt lat="45.28912" lon="2.76316">
        <ele>1000</ele>
        <time>2019-04-16T15:45:49Z</time>
      </trkpt>
      <trkpt lat="45.28926" lon="2.76332">
        <ele>999</ele>
        <time>2019-04-16T15:46:49Z</time>
      </trkpt>
      <trkpt lat="45.28988" lon="2.76358">
        <ele>994</ele>
        <time>2019-04-16T15:47:49Z</time>
      </trkpt>
      <trkpt lat="45.29096" lon="2.76397">
        <ele>986</ele>
        <time>2019-04-16T15:48:49Z</time>
      </trkpt>
      <trkpt lat="45.29115" lon="2.76396">
        <ele>983</ele>
        <time>2019-04-16T15:49:49Z</time>
      </trkpt>
      <trkpt lat="45.29192" lon="2.7636">
        <ele>980</ele>
        <time>2019-04-16T15:50:49Z</time>
      </trkpt>
      <trkpt lat="45.29213" lon="2.76355">
        <ele>979</ele>
        <time>2019-04-16T15:51:49Z</time>
      </trkpt>
      <trkpt lat="45.29288" lon="2.76347">
        <ele>972</ele>
        <time>2019-04-16T15:52:49Z</time>
      </trkpt>
      <trkpt lat="45.29307" lon="2.76338">
        <ele>972</ele>
        <time>2019-04-16T15:53:49Z</time>
      </trkpt>
      <trkpt lat="45.29348" lon="2.76303">
        <ele>975</ele>
        <time>2019-04-16T15:54:49Z</time>
      </trkpt>
      <trkpt lat="45.29368" lon="2.76297">
        <ele>975</ele>
        <time>2019-04-16T15:55:49Z</time>
      </trkpt>
      <trkpt lat="45.29445" lon="2.76311">
        <ele>967</ele>
        <time>2019-04-16T15:56:49Z</time>
      </trkpt>
      <trkpt lat="45.29468" lon="2.76317">
        <ele>965</ele>
        <time>2019-04-16T15:57:49Z</time>
      </trkpt>
      <trkpt lat="45.29487" lon="2.76318">
        <ele>964</ele>
        <time>2019-04-16T15:58:49Z</time>
      </trkpt>
      <trkpt lat="45.29535" lon="2.76312">
        <ele>965</ele>
        <time>2019-04-16T15:59:49Z</time>
      </trkpt>
      <trkpt lat="45.29572" lon="2.76316">
        <ele>963</ele>
        <time>2019-04-16T16:00:49Z</time>
      </trkpt>
      <trkpt lat="45.29584" lon="2.76321">
        <ele>962</ele>
        <time>2019-04-16T16:01:49Z</time>
      </trkpt>
      <trkpt lat="45.29591" lon="2.76331">
        <ele>961</ele>
        <time>2019-04-16T16:02:49Z</time>
      </trkpt>
      <trkpt lat="45.29595" lon="2.76348">
        <ele>957</ele>
        <time>2019-04-16T16:03:49Z</time>
      </trkpt>
      <trkpt lat="45.29606" lon="2.76379">
        <ele>950</ele>
        <time>2019-04-16T16:04:49Z</time>
      </trkpt>
      <trkpt lat="45.29616" lon="2.76392">
        <ele>948</ele>
        <time>2019-04-16T16:05:49Z</time>
      </trkpt>
      <trkpt lat="45.29639" lon="2.76404">
        <ele>946</ele>
        <time>2019-04-16T16:06:49Z</time>
      </trkpt>
      <trkpt lat="45.29677" lon="2.76432">
        <ele>942</ele>
        <time>2019-04-16T16:07:49Z</time>
      </trkpt>
      <trkpt lat="45.29728" lon="2.76482">
        <ele>936</ele>
        <time>2019-04-16T16:08:49Z</time>
      </trkpt>
      <trkpt lat="45.29745" lon="2.76495">
        <ele>935</ele>
        <time>2019-04-16T16:09:49Z</time>
      </trkpt>
      <trkpt lat="45.29763" lon="2.76498">
        <ele>935</ele>
        <time>2019-04-16T16:10:49Z</time>
      </trkpt>
      <trkpt lat="45.29811" lon="2.76475">
        <ele>942</ele>
        <time>2019-04-16T16:11:49Z</time>
      </trkpt>
      <trkpt lat="45.29826" lon="2.76471">
        <ele>944</ele>
        <time>2019-04-16T16:12:49Z</time>
      </trkpt>
      <trkpt lat="45.29851" lon="2.76469">
        <ele>947</ele>
        <time>2019-04-16T16:13:49Z</time>
      </trkpt>
      <trkpt lat="45.2986" lon="2.7647">
        <ele>948</ele>
        <time>2019-04-16T16:14:49Z</time>
      </trkpt>
      <trkpt lat="45.29864" lon="2.76474">
        <ele>947</ele>
        <time>2019-04-16T16:15:49Z</time>
      </trkpt>
      <trkpt lat="45.29867" lon="2.76481">
        <ele>946</ele>
        <time>2019-04-16T16:16:49Z</time>
      </trkpt>
      <trkpt lat="45.29869" lon="2.76503">
        <ele>941</ele>
        <time>2019-04-16T16:17:49Z</time>
      </trkpt>
      <trkpt lat="45.29855" lon="2.76563">
        <ele>928</ele>
        <time>2019-04-16T16:18:49Z</time>
      </trkpt>
      <trkpt lat="45.29854" lon="2.76591">
        <ele>922</ele>
        <time>2019-04-16T16:19:49Z</time>
      </trkpt>
      <trkpt lat="45.29859" lon="2.76607">
        <ele>919</ele>
        <time>2019-04-16T16:20:49Z</time>
      </trkpt>
      <trkpt lat="45.29885" lon="2.76642">
        <ele>917</ele>
        <time>2019-04-16T16:21:49Z</time>
      </trkpt>
      <trkpt lat="45.29924" lon="2.76679">
        <ele>914</ele>
        <time>2019-04-16T16:22:49Z</time>
      </trkpt>
      <trkpt lat="45.29982" lon="2.76708">
        <ele>906</ele>
        <time>2019-04-16T16:23:49Z</time>
      </trkpt>
      <trkpt lat="45.29995" lon="2.7671">
        <ele>906</ele>
        <time>2019-04-16T16:24:49Z</time>
      </trkpt>
      <trkpt lat="45.30007" lon="2.76704">
        <ele>906</ele>
        <time>2019-04-16T16:25:49Z</time>
      </trkpt>
      <trkpt lat="45.30026" lon="2.76668">
        <ele>910</ele>
        <time>2019-04-16T16:26:49Z</time>
      </trkpt>
      <trkpt lat="45.30038" lon="2.76655">
        <ele>910</ele>
        <time>2019-04-16T16:27:49Z</time>
      </trkpt>
      <trkpt lat="45.30052" lon="2.76651">
        <ele>908</ele>
        <time>2019-04-16T16:28:49Z</time>
      </trkpt>
      <trkpt lat="45.30096" lon="2.76668">
        <ele>900</ele>
        <time>2019-04-16T16:29:49Z</time>
      </trkpt>
      <trkpt lat="45.30123" lon="2.76682">
        <ele>893</ele>
        <time>2019-04-16T16:30:49Z</time>
      </trkpt>
      <trkpt lat="45.30142" lon="2.76682">
        <ele>892</ele>
        <time>2019-04-16T16:31:49Z</time>
      </trkpt>
      <trkpt lat="45.30157" lon="2.76672">
        <ele>893</ele>
        <time>2019-04-16T16:32:49Z</time>
      </trkpt>
      <trkpt lat="45.30236" lon="2.76601">
        <ele>896</ele>
        <time>2019-04-16T16:33:49Z</time>
      </trkpt>
      <trkpt lat="45.30246" lon="2.76593">
        <ele>897</ele>
        <time>2019-04-16T16:34:49Z</time>
      </trkpt>
      <trkpt lat="45.30255" lon="2.76596">
        <ele>896</ele>
        <time>2019-04-16T16:35:49Z</time>
      </trkpt>
      <trkpt lat="45.3027" lon="2.76616">
        <ele>891</ele>
        <time>2019-04-16T16:36:49Z</time>
      </trkpt>
      <trkpt lat="45.30287" lon="2.76628">
        <ele>887</ele>
        <time>2019-04-16T16:37:49Z</time>
      </trkpt>
      <trkpt lat="45.30314" lon="2.76631">
        <ele>886</ele>
        <time>2019-04-16T16:38:49Z</time>
      </trkpt>
      <trkpt lat="45.30341" lon="2.76617">
        <ele>887</ele>
        <time>2019-04-16T16:39:49Z</time>
      </trkpt>
      <trkpt lat="45.30356" lon="2.76597">
        <ele>888</ele>
        <time>2019-04-16T16:40:49Z</time>
      </trkpt>
      <trkpt lat="45.30386" lon="2.76565">
        <ele>886</ele>
        <time>2019-04-16T16:41:49Z</time>
      </trkpt>
      <trkpt lat="45.30429" lon="2.76526">
        <ele>881</ele>
        <time>2019-04-16T16:42:49Z</time>
      </trkpt>
      <trkpt lat="45.30443" lon="2.76508">
        <ele>879</ele>
        <time>2019-04-16T16:43:49Z</time>
      </trkpt>
      <trkpt lat="45.30443" lon="2.76466">
        <ele>887</ele>
        <time>2019-04-16T16:44:49Z</time>
      </trkpt>
      <trkpt lat="45.30451" lon="2.76457">
        <ele>884</ele>
        <time>2019-04-16T16:45:49Z</time>
      </trkpt>
      <trkpt lat="45.30473" lon="2.76445">
        <ele>875</ele>
        <time>2019-04-16T16:46:49Z</time>
      </trkpt>
      <trkpt lat="45.30481" lon="2.76434">
        <ele>873</ele>
        <time>2019-04-16T16:47:49Z</time>
      </trkpt>
      <trkpt lat="45.30487" lon="2.76404">
        <ele>875</ele>
        <time>2019-04-16T16:48:49Z</time>
      </trkpt>
      <trkpt lat="45.30488" lon="2.7638">
        <ele>877</ele>
        <time>2019-04-16T16:49:49Z</time>
      </trkpt>
      <trkpt lat="45.30495" lon="2.76362">
        <ele>877</ele>
        <time>2019-04-16T16:50:49Z</time>
      </trkpt>
      <trkpt lat="45.30529" lon="2.76305">
        <ele>875</ele>
        <time>2019-04-16T16:51:49Z</time>
      </trkpt>
      <trkpt lat="45.30547" lon="2.76259">
        <ele>880</ele>
        <time>2019-04-16T16:52:49Z</time>
      </trkpt>
      <trkpt lat="45.30559" lon="2.76246">
        <ele>880</ele>
        <time>2019-04-16T16:53:49Z</time>
      </trkpt>
      <trkpt lat="45.30576" lon="2.76246">
        <ele>875</ele>
        <time>2019-04-16T16:54:49Z</time>
      </trkpt>
      <trkpt lat="45.30607" lon="2.76252">
        <ele>873</ele>
        <time>2019-04-16T16:55:49Z</time>
      </trkpt>
      <trkpt lat="45.3062" lon="2.76263">
        <ele>871</ele>
        <time>2019-04-16T16:56:49Z</time>
      </trkpt>
      <trkpt lat="45.30623" lon="2.76274">
        <ele>868</ele>
        <time>2019-04-16T16:57:49Z</time>
      </trkpt>
      <trkpt lat="45.30622" lon="2.76327">
        <ele>853</ele>
        <time>2019-04-16T16:58:49Z</time>
      </trkpt>
      <trkpt lat="45.30628" lon="2.76335">
        <ele>851</ele>
        <time>2019-04-16T16:59:49Z</time>
      </trkpt>
      <trkpt lat="45.30648" lon="2.76327">
        <ele>854</ele>
        <time>2019-04-16T17:00:49Z</time>
      </trkpt>
      <trkpt lat="45.30665" lon="2.76326">
        <ele>855</ele>
        <time>2019-04-16T17:01:49Z</time>
      </trkpt>
      <trkpt lat="45.30687" lon="2.76337">
        <ele>855</ele>
        <time>2019-04-16T17:02:49Z</time>
      </trkpt>
      <trkpt lat="45.30712" lon="2.76363">
        <ele>850</ele>
        <time>2019-04-16T17:03:49Z</time>
      </trkpt>
      <trkpt lat="45.30726" lon="2.76367">
        <ele>851</ele>
        <time>2019-04-16T17:04:49Z</time>
      </trkpt>
      <trkpt lat="45.30746" lon="2.76369">
        <ele>854</ele>
        <time>2019-04-16T17:05:49Z</time>
      </trkpt>
      <trkpt lat="45.30771" lon="2.76393">
        <ele>851</ele>
        <time>2019-04-16T17:06:49Z</time>
      </trkpt>
      <trkpt lat="45.3078" lon="2.76407">
        <ele>849</ele>
        <time>2019-04-16T17:07:49Z</time>
      </trkpt>
      <trkpt lat="45.30784" lon="2.76426">
        <ele>843</ele>
        <time>2019-04-16T17:08:49Z</time>
      </trkpt>
      <trkpt lat="45.30782" lon="2.76489">
        <ele>821</ele>
        <time>2019-04-16T17:09:49Z</time>
      </trkpt>
      <trkpt lat="45.30786" lon="2.76499">
        <ele>818</ele>
        <time>2019-04-16T17:10:49Z</time>
      </trkpt>
      <trkpt lat="45.30793" lon="2.76502">
        <ele>818</ele>
        <time>2019-04-16T17:11:49Z</time>
      </trkpt>
      <trkpt lat="45.30809" lon="2.76501">
        <ele>821</ele>
        <time>2019-04-16T17:12:49Z</time>
      </trkpt>
      <trkpt lat="45.3085" lon="2.76484">
        <ele>831</ele>
        <time>2019-04-16T17:13:49Z</time>
      </trkpt>
      <trkpt lat="45.30878" lon="2.7647">
        <ele>835</ele>
        <time>2019-04-16T17:14:49Z</time>
      </trkpt>
      <trkpt lat="45.30908" lon="2.76476">
        <ele>830</ele>
        <time>2019-04-16T17:15:49Z</time>
      </trkpt>
      <trkpt lat="45.30926" lon="2.76473">
        <ele>832</ele>
        <time>2019-04-16T17:16:49Z</time>
      </trkpt>
      <trkpt lat="45.30938" lon="2.76467">
        <ele>836</ele>
        <time>2019-04-16T17:17:49Z</time>
      </trkpt>
      <trkpt lat="45.30943" lon="2.76467">
        <ele>837</ele>
        <time>2019-04-16T17:18:49Z</time>
      </trkpt>
      <trkpt lat="45.30949" lon="2.76471">
        <ele>836</ele>
        <time>2019-04-16T17:19:49Z</time>
      </trkpt>
      <trkpt lat="45.30952" lon="2.76477">
        <ele>834</ele>
        <time>2019-04-16T17:20:49Z</time>
      </trkpt>
      <trkpt lat="45.30954" lon="2.76525">
        <ele>817</ele>
        <time>2019-04-16T17:21:49Z</time>
      </trkpt>
      <trkpt lat="45.30959" lon="2.76541">
        <ele>813</ele>
        <time>2019-04-16T17:22:49Z</time>
      </trkpt>
      <trkpt lat="45.31014" lon="2.76572">
        <ele>817</ele>
        <time>2019-04-16T17:23:49Z</time>
      </trkpt>
      <trkpt lat="45.31024" lon="2.76584">
        <ele>817</ele>
        <time>2019-04-16T17:24:49Z</time>
      </trkpt>
      <trkpt lat="45.3104" lon="2.76621">
        <ele>811</ele>
        <time>2019-04-16T17:25:49Z</time>
      </trkpt>
      <trkpt lat="45.31051" lon="2.76632">
        <ele>811</ele>
        <time>2019-04-16T17:26:49Z</time>
      </trkpt>
      <trkpt lat="45.31072" lon="2.76641">
        <ele>814</ele>
        <time>2019-04-16T17:27:49Z</time>
      </trkpt>
      <trkpt lat="45.31091" lon="2.76662">
        <ele>811</ele>
        <time>2019-04-16T17:28:49Z</time>
      </trkpt>
      <trkpt lat="45.31121" lon="2.76712">
        <ele>800</ele>
        <time>2019-04-16T17:29:49Z</time>
      </trkpt>
      <trkpt lat="45.31131" lon="2.76717">
        <ele>800</ele>
        <time>2019-04-16T17:30:49Z</time>
      </trkpt>
      <trkpt lat="45.3114" lon="2.76711">
        <ele>802</ele>
        <time>2019-04-16T17:31:49Z</time>
      </trkpt>
      <trkpt lat="45.3117" lon="2.7668">
        <ele>815</ele>
        <time>2019-04-16T17:32:49Z</time>
      </trkpt>
      <trkpt lat="45.31185" lon="2.76675">
        <ele>816</ele>
        <time>2019-04-16T17:33:49Z</time>
      </trkpt>
      <trkpt lat="45.31309" lon="2.76706">
        <ele>796</ele>
        <time>2019-04-16T17:34:49Z</time>
      </trkpt>
      <trkpt lat="45.31338" lon="2.76704">
        <ele>796</ele>
        <time>2019-04-16T17:35:49Z</time>
      </trkpt>
      <trkpt lat="45.31397" lon="2.76713">
        <ele>795</ele>
        <time>2019-04-16T17:36:49Z</time>
      </trkpt>
      <trkpt lat="45.31407" lon="2.76723">
        <ele>792</ele>
        <time>2019-04-16T17:37:49Z</time>
      </trkpt>
      <trkpt lat="45.31429" lon="2.76756">
        <ele>787</ele>
        <time>2019-04-16T17:38:49Z</time>
      </trkpt>
      <trkpt lat="45.31481" lon="2.76809">
        <ele>790</ele>
        <time>2019-04-16T17:39:49Z</time>
      </trkpt>
      <trkpt lat="45.31496" lon="2.7684">
        <ele>791</ele>
        <time>2019-04-16T17:40:49Z</time>
      </trkpt>
      <trkpt lat="45.31544" lon="2.76768">
        <ele>791</ele>
        <time>2019-04-16T17:41:49Z</time>
      </trkpt>
      <trkpt lat="45.31552" lon="2.76758">
        <ele>789</ele>
        <time>2019-04-16T17:42:49Z</time>
      </trkpt>
      <trkpt lat="45.31568" lon="2.76754">
        <ele>787</ele>
        <time>2019-04-16T17:43:49Z</time>
      </trkpt>
      <trkpt lat="45.31633" lon="2.76767">
        <ele>787</ele>
        <time>2019-04-16T17:44:49Z</time>
      </trkpt>
      <trkpt lat="45.3169" lon="2.76801">
        <ele>793</ele>
        <time>2019-04-16T17:45:49Z</time>
      </trkpt>
      <trkpt lat="45.31739" lon="2.76847">
        <ele>798</ele>
        <time>2019-04-16T17:46:49Z</time>
      </trkpt>
      <trkpt lat="45.3175" lon="2.76853">
        <ele>799</ele>
        <time>2019-04-16T17:47:49Z</time>
      </trkpt>
      <trkpt lat="45.31774" lon="2.76857">
        <ele>801</ele>
        <time>2019-04-16T17:48:49Z</time>
      </trkpt>
      <trkpt lat="45.31785" lon="2.76856">
        <ele>801</ele>
        <time>2019-04-16T17:49:49Z</time>
      </trkpt>
      <trkpt lat="45.31831" lon="2.76827">
        <ele>794</ele>
        <time>2019-04-16T17:50:49Z</time>
      </trkpt>
      <trkpt lat="45.31848" lon="2.76821">
        <ele>791</ele>
        <time>2019-04-16T17:51:49Z</time>
      </trkpt>
      <trkpt lat="45.31872" lon="2.76827">
        <ele>792</ele>
        <time>2019-04-16T17:52:49Z</time>
      </trkpt>
      <trkpt lat="45.31919" lon="2.76865">
        <ele>797</ele>
        <time>2019-04-16T17:53:49Z</time>
      </trkpt>
      <trkpt lat="45.31945" lon="2.76876">
        <ele>798</ele>
        <time>2019-04-16T17:54:49Z</time>
      </trkpt>
      <trkpt lat="45.32103" lon="2.7689">
        <ele>801</ele>
        <time>2019-04-16T17:55:49Z</time>
      </trkpt>
      <trkpt lat="45.32125" lon="2.76895">
        <ele>802</ele>
        <time>2019-04-16T17:56:49Z</time>
      </trkpt>
      <trkpt lat="45.32144" lon="2.76906">
        <ele>804</ele>
        <time>2019-04-16T17:57:49Z</time>
      </trkpt>
      <trkpt lat="45.32161" lon="2.76921">
        <ele>806</ele>
        <time>2019-04-16T17:58:49Z</time>
      </trkpt>
      <trkpt lat="45.32206" lon="2.76976">
        <ele>806</ele>
        <time>2019-04-16T17:59:49Z</time>
      </trkpt>
      <trkpt lat="45.32216" lon="2.76996">
        <ele>805</ele>
        <time>2019-04-16T18:00:49Z</time>
      </trkpt>
      <trkpt lat="45.32249" lon="2.77033">
        <ele>805</ele>
        <time>2019-04-16T18:01:49Z</time>
      </trkpt>
      <trkpt lat="45.32287" lon="2.77047">
        <ele>805</ele>
        <time>2019-04-16T18:02:49Z</time>
      </trkpt>
      <trkpt lat="45.32312" lon="2.77044">
        <ele>804</ele>
        <time>2019-04-16T18:03:49Z</time>
      </trkpt>
      <trkpt lat="45.32426" lon="2.77">
        <ele>808</ele>
        <time>2019-04-16T18:04:49Z</time>
      </trkpt>
      <trkpt lat="45.32454" lon="2.76987">
        <ele>809</ele>
        <time>2019-04-16T18:05:49Z</time>
      </trkpt>
      <trkpt lat="45.32489" lon="2.76959">
        <ele>808</ele>
        <time>2019-04-16T18:06:49Z</time>
      </trkpt>
      <trkpt lat="45.32502" lon="2.76952">
        <ele>808</ele>
        <time>2019-04-16T18:07:49Z</time>
      </trkpt>
      <trkpt lat="45.32537" lon="2.76949">
        <ele>807</ele>
        <time>2019-04-16T18:08:49Z</time>
      </trkpt>
      <trkpt lat="45.32552" lon="2.76951">
        <ele>807</ele>
        <time>2019-04-16T18:09:49Z</time>
      </trkpt>
      <trkpt lat="45.32559" lon="2.76957">
        <ele>808</ele>
        <time>2019-04-16T18:10:49Z</time>
      </trkpt>
      <trkpt lat="45.32574" lon="2.76982">
        <ele>812</ele>
        <time>2019-04-16T18:11:49Z</time>
      </trkpt>
      <trkpt lat="45.32591" lon="2.76986">
        <ele>811</ele>
        <time>2019-04-16T18:12:49Z</time>
      </trkpt>
      <trkpt lat="45.32717" lon="2.77003">
        <ele>808</ele>
        <time>2019-04-16T18:13:49Z</time>
      </trkpt>
      <trkpt lat="45.32737" lon="2.7701">
        <ele>810</ele>
        <time>2019-04-16T18:14:49Z</time>
      </trkpt>
      <trkpt lat="45.32757" lon="2.77024">
        <ele>812</ele>
        <time>2019-04-16T18:15:49Z</time>
      </trkpt>
      <trkpt lat="45.32841" lon="2.77128">
        <ele>816</ele>
        <time>2019-04-16T18:16:49Z</time>
      </trkpt>
      <trkpt lat="45.32864" lon="2.77148">
        <ele>813</ele>
        <time>2019-04-16T18:17:49Z</time>
      </trkpt>
      <trkpt lat="45.32889" lon="2.77164">
        <ele>809</ele>
        <time>2019-04-16T18:18:49Z</time>
      </trkpt>
      <trkpt lat="45.3291" lon="2.7717">
        <ele>803</ele>
        <time>2019-04-16T18:19:49Z</time>
      </trkpt>
      <trkpt lat="45.32933" lon="2.77169">
        <ele>799</ele>
        <time>2019-04-16T18:20:49Z</time>
      </trkpt>
      <trkpt lat="45.3298" lon="2.77158">
        <ele>792</ele>
        <time>2019-04-16T18:21:49Z</time>
      </trkpt>
      <trkpt lat="45.33131" lon="2.77111">
        <ele>783</ele>
        <time>2019-04-16T18:22:49Z</time>
      </trkpt>
      <trkpt lat="45.33159" lon="2.77106">
        <ele>782</ele>
        <time>2019-04-16T18:23:49Z</time>
      </trkpt>
      <trkpt lat="45.33187" lon="2.7711">
        <ele>781</ele>
        <time>2019-04-16T18:24:49Z</time>
      </trkpt>
      <trkpt lat="45.33291" lon="2.77154">
        <ele>778</ele>
        <time>2019-04-16T18:25:49Z</time>
      </trkpt>
      <trkpt lat="45.33324" lon="2.77165">
        <ele>775</ele>
        <time>2019-04-16T18:26:49Z</time>
      </trkpt>
      <trkpt lat="45.33356" lon="2.77166">
        <ele>774</ele>
        <time>2019-04-16T18:27:49Z</time>
      </trkpt>
      <trkpt lat="45.33386" lon="2.77157">
        <ele>773</ele>
        <time>2019-04-16T18:28:49Z</time>
      </trkpt>
      <trkpt lat="45.33413" lon="2.77144">
        <ele>771</ele>
        <time>2019-04-16T18:29:49Z</time>
      </trkpt>
      <trkpt lat="45.33438" lon="2.7712">
        <ele>768</ele>
        <time>2019-04-16T18:30:49Z</time>
      </trkpt>
      <trkpt lat="45.33559" lon="2.76938">
        <ele>753</ele>
        <time>2019-04-16T18:31:49Z</time>
      </trkpt>
      <trkpt lat="45.33575" lon="2.76905">
        <ele>752</ele>
        <time>2019-04-16T18:32:49Z</time>
      </trkpt>
      <trkpt lat="45.33588" lon="2.76864">
        <ele>753</ele>
        <time>2019-04-16T18:33:49Z</time>
      </trkpt>
      <trkpt lat="45.33593" lon="2.76837">
        <ele>753</ele>
        <time>2019-04-16T18:34:49Z</time>
      </trkpt>
      <trkpt lat="45.33596" lon="2.76799">
        <ele>753</ele>
        <time>2019-04-16T18:35:49Z</time>
      </trkpt>
      <trkpt lat="45.33602" lon="2.7677">
        <ele>752</ele>
        <time>2019-04-16T18:36:49Z</time>
      </trkpt>
      <trkpt lat="45.33612" lon="2.76746">
        <ele>750</ele>
        <time>2019-04-16T18:37:49Z</time>
      </trkpt>
      <trkpt lat="45.33665" lon="2.76658">
        <ele>743</ele>
        <time>2019-04-16T18:38:49Z</time>
      </trkpt>
      <trkpt lat="45.3368" lon="2.76625">
        <ele>743</ele>
        <time>2019-04-16T18:39:49Z</time>
      </trkpt>
      <trkpt lat="45.33722" lon="2.76511">
        <ele>736</ele>
        <time>2019-04-16T18:40:49Z</time>
      </trkpt>
      <trkpt lat="45.33729" lon="2.76489">
        <ele>733</ele>
        <time>2019-04-16T18:41:49Z</time>
      </trkpt>
      <trkpt lat="45.33725" lon="2.76462">
        <ele>733</ele>
        <time>2019-04-16T18:42:49Z</time>
      </trkpt>
      <trkpt lat="45.33707" lon="2.76414">
        <ele>734</ele>
        <time>2019-04-16T18:43:49Z</time>
      </trkpt>
      <trkpt lat="45.33691" lon="2.76388">
        <ele>734</ele>
        <time>2019-04-16T18:44:49Z</time>
      </trkpt>
      <trkpt lat="45.33655" lon="2.76354">
        <ele>736</ele>
        <time>2019-04-16T18:45:49Z</time>
      </trkpt>
      <trkpt lat="45.33642" lon="2.76315">
        <ele>734</ele>
        <time>2019-04-16T18:46:49Z</time>
      </trkpt>
      <trkpt lat="45.33646" lon="2.76272">
        <ele>730</ele>
        <time>2019-04-16T18:47:49Z</time>
      </trkpt>
      <trkpt lat="45.33673" lon="2.76151">
        <ele>717</ele>
        <time>2019-04-16T18:48:49Z</time>
      </trkpt>
      <trkpt lat="45.33669" lon="2.76121">
        <ele>714</ele>
        <time>2019-04-16T18:49:49Z</time>
      </trkpt>
      <trkpt lat="45.33655" lon="2.761">
        <ele>712</ele>
        <time>2019-04-16T18:50:49Z</time>
      </trkpt>
      <trkpt lat="45.3362" lon="2.76085">
        <ele>715</ele>
        <time>2019-04-16T18:51:49Z</time>
      </trkpt>
      <trkpt lat="45.33619" lon="2.76068">
        <ele>714</ele>
        <time>2019-04-16T18:52:49Z</time>
      </trkpt>
      <trkpt lat="45.33621" lon="2.76052">
        <ele>712</ele>
        <time>2019-04-16T18:53:49Z</time>
      </trkpt>
      <trkpt lat="45.33641" lon="2.76056">
        <ele>709</ele>
        <time>2019-04-16T18:54:49Z</time>
      </trkpt>
      <trkpt lat="45.33682" lon="2.76103">
        <ele>709</ele>
        <time>2019-04-16T18:55:49Z</time>
      </trkpt>
      <trkpt lat="45.3369" lon="2.76131">
        <ele>712</ele>
        <time>2019-04-16T18:56:49Z</time>
      </trkpt>
      <trkpt lat="45.33693" lon="2.76162">
        <ele>715</ele>
        <time>2019-04-16T18:57:49Z</time>
      </trkpt>
      <trkpt lat="45.33699" lon="2.76182">
        <ele>715</ele>
        <time>2019-04-16T18:58:49Z</time>
      </trkpt>
      <trkpt lat="45.33708" lon="2.76199">
        <ele>714</ele>
        <time>2019-04-16T18:59:49Z</time>
      </trkpt>
      <trkpt lat="45.33762" lon="2.7624">
        <ele>709</ele>
        <time>2019-04-16T19:00:49Z</time>
      </trkpt>
      <trkpt lat="45.33779" lon="2.76255">
        <ele>708</ele>
        <time>2019-04-16T19:01:49Z</time>
      </trkpt>
      <trkpt lat="45.33795" lon="2.7626">
        <ele>707</ele>
        <time>2019-04-16T19:02:49Z</time>
      </trkpt>
      <trkpt lat="45.33807" lon="2.76256">
        <ele>706</ele>
        <time>2019-04-16T19:03:49Z</time>
      </trkpt>
      <trkpt lat="45.33837" lon="2.76216">
        <ele>704</ele>
        <time>2019-04-16T19:04:49Z</time>
      </trkpt>
      <trkpt lat="45.33849" lon="2.76206">
        <ele>705</ele>
        <time>2019-04-16T19:05:49Z</time>
      </trkpt>
      <trkpt lat="45.33853" lon="2.7621">
        <ele>705</ele>
        <time>2019-04-16T19:06:49Z</time>
      </trkpt>
      <trkpt lat="45.33858" lon="2.76211">
        <ele>705</ele>
        <time>2019-04-16T19:07:49Z</time>
      </trkpt>
      <trkpt lat="45.33863" lon="2.76208">
        <ele>706</ele>
        <time>2019-04-16T19:08:49Z</time>
      </trkpt>
      <trkpt lat="45.33866" lon="2.76203">
        <ele>706</ele>
        <time>2019-04-16T19:09:49Z</time>
      </trkpt>
      <trkpt lat="45.3395" lon="2.76317">
        <ele>713</ele>
        <time>2019-04-16T19:10:49Z</time>
      </trkpt>
      <trkpt lat="45.34048" lon="2.76476">
        <ele>717</ele>
        <time>2019-04-16T19:11:49Z</time>
      </trkpt>
      <trkpt lat="45.34072" lon="2.76507">
        <ele>716</ele>
        <time>2019-04-16T19:12:49Z</time>
      </trkpt>
      <trkpt lat="45.34091" lon="2.76523">
        <ele>717</ele>
        <time>2019-04-16T19:13:49Z</time>
      </trkpt>
      <trkpt lat="45.3411" lon="2.76535">
        <ele>717</ele>
        <time>2019-04-16T19:14:49Z</time>
      </trkpt>
      <trkpt lat="45.34133" lon="2.76542">
        <ele>717</ele>
        <time>2019-04-16T19:15:49Z</time>
      </trkpt>
      <trkpt lat="45.34203" lon="2.76547">
        <ele>718</ele>
        <time>2019-04-16T19:16:49Z</time>
      </trkpt>
      <trkpt lat="45.34222" lon="2.76552">
        <ele>717</ele>
        <time>2019-04-16T19:17:49Z</time>
      </trkpt>
      <trkpt lat="45.34239" lon="2.76559">
        <ele>716</ele>
        <time>2019-04-16T19:18:49Z</time>
      </trkpt>
      <trkpt lat="45.34273" lon="2.76587">
        <ele>712</ele>
        <time>2019-04-16T19:19:49Z</time>
      </trkpt>
      <trkpt lat="45.34364" lon="2.7669">
        <ele>723</ele>
        <time>2019-04-16T19:20:49Z</time>
      </trkpt>
      <trkpt lat="45.3439" lon="2.76726">
        <ele>727</ele>
        <time>2019-04-16T19:21:49Z</time>
      </trkpt>
      <trkpt lat="45.34427" lon="2.76785">
        <ele>731</ele>
        <time>2019-04-16T19:22:49Z</time>
      </trkpt>
      <trkpt lat="45.3446" lon="2.76853">
        <ele>738</ele>
        <time>2019-04-16T19:23:49Z</time>
      </trkpt>
      <trkpt lat="45.34545" lon="2.77046">
        <ele>747</ele>
        <time>2019-04-16T19:24:49Z</time>
      </trkpt>
      <trkpt lat="45.34567" lon="2.77092">
        <ele>748</ele>
        <time>2019-04-16T19:25:49Z</time>
      </trkpt>
      <trkpt lat="45.34593" lon="2.77133">
        <ele>751</ele>
        <time>2019-04-16T19:26:49Z</time>
      </trkpt>
      <trkpt lat="45.3462" lon="2.7717">
        <ele>755</ele>
        <time>2019-04-16T19:27:49Z</time>
      </trkpt>
      <trkpt lat="45.3465" lon="2.77203">
        <ele>760</ele>
        <time>2019-04-16T19:28:49Z</time>
      </trkpt>
      <trkpt lat="45.34682" lon="2.77231">
        <ele>762</ele>
        <time>2019-04-16T19:29:49Z</time>
      </trkpt>
      <trkpt lat="45.34771" lon="2.77297">
        <ele>762</ele>
        <time>2019-04-16T19:30:49Z</time>
      </trkpt>
      <trkpt lat="45.3481" lon="2.77314">
        <ele>765</ele>
        <time>2019-04-16T19:31:49Z</time>
      </trkpt>
      <trkpt lat="45.34834" lon="2.77318">
        <ele>767</ele>
        <time>2019-04-16T19:32:49Z</time>
      </trkpt>
      <trkpt lat="45.34866" lon="2.77314">
        <ele>767</ele>
        <time>2019-04-16T19:33:49Z</time>
      </trkpt>
      <trkpt lat="45.34893" lon="2.77302">
        <ele>769</ele>
        <time>2019-04-16T19:34:49Z</time>
      </trkpt>
      <trkpt lat="45.34929" lon="2.77283">
        <ele>775</ele>
        <time>2019-04-16T19:35:49Z</time>
      </trkpt>
      <trkpt lat="45.34955" lon="2.77273">
        <ele>779</ele>
        <time>2019-04-16T19:36:49Z</time>
      </trkpt>
      <trkpt lat="45.35006" lon="2.77278">
        <ele>781</ele>
        <time>2019-04-16T19:37:49Z</time>
      </trkpt>
      <trkpt lat="45.35035" lon="2.77292">
        <ele>781</ele>
        <time>2019-04-16T19:38:49Z</time>
      </trkpt>
      <trkpt lat="45.35062" lon="2.77302">
        <ele>782</ele>
        <time>2019-04-16T19:39:49Z</time>
      </trkpt>
      <trkpt lat="45.35101" lon="2.77342">
        <ele>779</ele>
        <time>2019-04-16T19:40:49Z</time>
      </trkpt>
      <trkpt lat="45.35124" lon="2.77373">
        <ele>779</ele>
        <time>2019-04-16T19:41:49Z</time>
      </trkpt>
      <trkpt lat="45.35159" lon="2.77442">
        <ele>777</ele>
        <time>2019-04-16T19:42:49Z</time>
      </trkpt>
      <trkpt lat="45.3518" lon="2.77476">
        <ele>779</ele>
        <time>2019-04-16T19:43:49Z</time>
      </trkpt>
      <trkpt lat="45.35205" lon="2.77504">
        <ele>784</ele>
        <time>2019-04-16T19:44:49Z</time>
      </trkpt>
      <trkpt lat="45.35259" lon="2.77546">
        <ele>790</ele>
        <time>2019-04-16T19:45:49Z</time>
      </trkpt>
      <trkpt lat="45.35296" lon="2.77583">
        <ele>791</ele>
        <time>2019-04-16T19:46:49Z</time>
      </trkpt>
      <trkpt lat="45.35328" lon="2.77626">
        <ele>790</ele>
        <time>2019-04-16T19:47:49Z</time>
      </trkpt>
      <trkpt lat="45.35347" lon="2.77658">
        <ele>788</ele>
        <time>2019-04-16T19:48:49Z</time>
      </trkpt>
      <trkpt lat="45.35371" lon="2.7771">
        <ele>788</ele>
        <time>2019-04-16T19:49:49Z</time>
      </trkpt>
      <trkpt lat="45.35407" lon="2.77811">
        <ele>789</ele>
        <time>2019-04-16T19:50:49Z</time>
      </trkpt>
      <trkpt lat="45.35469" lon="2.78042">
        <ele>776</ele>
        <time>2019-04-16T19:51:49Z</time>
      </trkpt>
      <trkpt lat="45.35485" lon="2.7811">
        <ele>774</ele>
        <time>2019-04-16T19:52:49Z</time>
      </trkpt>
      <trkpt lat="45.35489" lon="2.78153">
        <ele>772</ele>
        <time>2019-04-16T19:53:49Z</time>
      </trkpt>
      <trkpt lat="45.35485" lon="2.78195">
        <ele>770</ele>
        <time>2019-04-16T19:54:49Z</time>
      </trkpt>
      <trkpt lat="45.35473" lon="2.78256">
        <ele>768</ele>
        <time>2019-04-16T19:55:49Z</time>
      </trkpt>
      <trkpt lat="45.3547" lon="2.78297">
        <ele>770</ele>
        <time>2019-04-16T19:56:49Z</time>
      </trkpt>
      <trkpt lat="45.35472" lon="2.7834">
        <ele>772</ele>
        <time>2019-04-16T19:57:49Z</time>
      </trkpt>
      <trkpt lat="45.35498" lon="2.7845">
        <ele>774</ele>
        <time>2019-04-16T19:58:49Z</time>
      </trkpt>
      <trkpt lat="45.35517" lon="2.78521">
        <ele>777</ele>
        <time>2019-04-16T19:59:49Z</time>
      </trkpt>
      <trkpt lat="45.35543" lon="2.78586">
        <ele>781</ele>
        <time>2019-04-16T20:00:49Z</time>
      </trkpt>
      <trkpt lat="45.35574" lon="2.78643">
        <ele>778</ele>
        <time>2019-04-16T20:01:49Z</time>
      </trkpt>
      <trkpt lat="45.35633" lon="2.78735">
        <ele>781</ele>
        <time>2019-04-16T20:02:49Z</time>
      </trkpt>
      <trkpt lat="45.35695" lon="2.78812">
        <ele>785</ele>
        <time>2019-04-16T20:03:49Z</time>
      </trkpt>
      <trkpt lat="45.35715" lon="2.78847">
        <ele>787</ele>
        <time>2019-04-16T20:04:49Z</time>
      </trkpt>
      <trkpt lat="45.35739" lon="2.78906">
        <ele>780</ele>
        <time>2019-04-16T20:05:49Z</time>
      </trkpt>
      <trkpt lat="45.35764" lon="2.78977">
        <ele>775</ele>
        <time>2019-04-16T20:06:49Z</time>
      </trkpt>
      <trkpt lat="45.3582" lon="2.79116">
        <ele>772</ele>
        <time>2019-04-16T20:07:49Z</time>
      </trkpt>
      <trkpt lat="45.35836" lon="2.79151">
        <ele>769</ele>
        <time>2019-04-16T20:08:49Z</time>
      </trkpt>
      <trkpt lat="45.35859" lon="2.79189">
        <ele>769</ele>
        <time>2019-04-16T20:09:49Z</time>
      </trkpt>
      <trkpt lat="45.35981" lon="2.7927">
        <ele>780</ele>
        <time>2019-04-16T20:10:49Z</time>
      </trkpt>
      <trkpt lat="45.36024" lon="2.79303">
        <ele>785</ele>
        <time>2019-04-16T20:11:49Z</time>
      </trkpt>
      <trkpt lat="45.36075" lon="2.7936">
        <ele>788</ele>
        <time>2019-04-16T20:12:49Z</time>
      </trkpt>
      <trkpt lat="45.36162" lon="2.79409">
        <ele>788</ele>
        <time>2019-04-16T20:13:49Z</time>
      </trkpt>
      <trkpt lat="45.36201" lon="2.79448">
        <ele>793</ele>
        <time>2019-04-16T20:14:49Z</time>
      </trkpt>
      <trkpt lat="45.36238" lon="2.79465">
        <ele>794</ele>
        <time>2019-04-16T20:15:49Z</time>
      </trkpt>
      <trkpt lat="45.36268" lon="2.79463">
        <ele>795</ele>
        <time>2019-04-16T20:16:49Z</time>
      </trkpt>
      <trkpt lat="45.36323" lon="2.79434">
        <ele>794</ele>
        <time>2019-04-16T20:17:49Z</time>
      </trkpt>
      <trkpt lat="45.36363" lon="2.79405">
        <ele>793</ele>
        <time>2019-04-16T20:18:49Z</time>
      </trkpt>
      <trkpt lat="45.3639" lon="2.79399">
        <ele>794</ele>
        <time>2019-04-16T20:19:49Z</time>
      </trkpt>
      <trkpt lat="45.36416" lon="2.79405">
        <ele>795</ele>
        <time>2019-04-16T20:20:49Z</time>
      </trkpt>
      <trkpt lat="45.36449" lon="2.79437">
        <ele>796</ele>
        <time>2019-04-16T20:21:49Z</time>
      </trkpt>
      <trkpt lat="45.36484" lon="2.79479">
        <ele>796</ele>
        <time>2019-04-16T20:22:49Z</time>
      </trkpt>
      <trkpt lat="45.36521" lon="2.79516">
        <ele>795</ele>
        <time>2019-04-16T20:23:49Z</time>
      </trkpt>
      <trkpt lat="45.36539" lon="2.79544">
        <ele>795</ele>
        <time>2019-04-16T20:24:49Z</time>
      </trkpt>
      <trkpt lat="45.36554" lon="2.79586">
        <ele>796</ele>
        <time>2019-04-16T20:25:49Z</time>
      </trkpt>
      <trkpt lat="45.36571" lon="2.79667">
        <ele>801</ele>
        <time>2019-04-16T20:26:49Z</time>
      </trkpt>
      <trkpt lat="45.36583" lon="2.79707">
        <ele>803</ele>
        <time>2019-04-16T20:27:49Z</time>
      </trkpt>
      <trkpt lat="45.3661" lon="2.79761">
        <ele>808</ele>
        <time>2019-04-16T20:28:49Z</time>
      </trkpt>
      <trkpt lat="45.36636" lon="2.79792">
        <ele>811</ele>
        <time>2019-04-16T20:29:49Z</time>
      </trkpt>
      <trkpt lat="45.36704" lon="2.79848">
        <ele>811</ele>
        <time>2019-04-16T20:30:49Z</time>
      </trkpt>
      <trkpt lat="45.36757" lon="2.79926">
        <ele>817</ele>
        <time>2019-04-16T20:31:49Z</time>
      </trkpt>
      <trkpt lat="45.36782" lon="2.7995">
        <ele>819</ele>
        <time>2019-04-16T20:32:49Z</time>
      </trkpt>
      <trkpt lat="45.36898" lon="2.80024">
        <ele>821</ele>
        <time>2019-04-16T20:33:49Z</time>
      </trkpt>
      <trkpt lat="45.36955" lon="2.80051">
        <ele>820</ele>
        <time>2019-04-16T20:34:49Z</time>
      </trkpt>
      <trkpt lat="45.36978" lon="2.80073">
        <ele>822</ele>
        <time>2019-04-16T20:35:49Z</time>
      </trkpt>
      <trkpt lat="45.36998" lon="2.80104">
        <ele>824</ele>
        <time>2019-04-16T20:36:49Z</time>
      </trkpt>
      <trkpt lat="45.37008" lon="2.80136">
        <ele>827</ele>
        <time>2019-04-16T20:37:49Z</time>
      </trkpt>
      <trkpt lat="45.37041" lon="2.80341">
        <ele>845</ele>
        <time>2019-04-16T20:38:49Z</time>
      </trkpt>
      <trkpt lat="45.37051" lon="2.80378">
        <ele>847</ele>
        <time>2019-04-16T20:39:49Z</time>
      </trkpt>
      <trkpt lat="45.37068" lon="2.80413">
        <ele>844</ele>
        <time>2019-04-16T20:40:49Z</time>
      </trkpt>
      <trkpt lat="45.37104" lon="2.80453">
        <ele>844</ele>
        <time>2019-04-16T20:41:49Z</time>
      </trkpt>
      <trkpt lat="45.37154" lon="2.80505">
        <ele>840</ele>
        <time>2019-04-16T20:42:49Z</time>
      </trkpt>
      <trkpt lat="45.37178" lon="2.80537">
        <ele>845</ele>
        <time>2019-04-16T20:43:49Z</time>
      </trkpt>
      <trkpt lat="45.37202" lon="2.80562">
        <ele>852</ele>
        <time>2019-04-16T20:44:49Z</time>
      </trkpt>
      <trkpt lat="45.37229" lon="2.80581">
        <ele>857</ele>
        <time>2019-04-16T20:45:49Z</time>
      </trkpt>
      <trkpt lat="45.37242" lon="2.80584">
        <ele>857</ele>
        <time>2019-04-16T20:46:49Z</time>
      </trkpt>
      <trkpt lat="45.37351" lon="2.80563">
        <ele>861</ele>
        <time>2019-04-16T20:47:49Z</time>
      </trkpt>
      <trkpt lat="45.37389" lon="2.80542">
        <ele>861</ele>
        <time>2019-04-16T20:48:49Z</time>
      </trkpt>
      <trkpt lat="45.37408" lon="2.80517">
        <ele>855</ele>
        <time>2019-04-16T20:49:49Z</time>
      </trkpt>
      <trkpt lat="45.37429" lon="2.80499">
        <ele>853</ele>
        <time>2019-04-16T20:50:49Z</time>
      </trkpt>
      <trkpt lat="45.37484" lon="2.80415">
        <ele>849</ele>
        <time>2019-04-16T20:51:49Z</time>
      </trkpt>
      <trkpt lat="45.37546" lon="2.80354">
        <ele>849</ele>
        <time>2019-04-16T20:52:49Z</time>
      </trkpt>
      <trkpt lat="45.37584" lon="2.80328">
        <ele>852</ele>
        <time>2019-04-16T20:53:49Z</time>
      </trkpt>
      <trkpt lat="45.37626" lon="2.8032">
        <ele>851</ele>
        <time>2019-04-16T20:54:49Z</time>
      </trkpt>
      <trkpt lat="45.37667" lon="2.80337">
        <ele>855</ele>
        <time>2019-04-16T20:55:49Z</time>
      </trkpt>
      <trkpt lat="45.37708" lon="2.80379">
        <ele>854</ele>
        <time>2019-04-16T20:56:49Z</time>
      </trkpt>
      <trkpt lat="45.37732" lon="2.80432">
        <ele>854</ele>
        <time>2019-04-16T20:57:49Z</time>
      </trkpt>
      <trkpt lat="45.37751" lon="2.80492">
        <ele>856</ele>
        <time>2019-04-16T20:58:49Z</time>
      </trkpt>
      <trkpt lat="45.37752" lon="2.80603">
        <ele>867</ele>
        <time>2019-04-16T20:59:49Z</time>
      </trkpt>
      <trkpt lat="45.37756" lon="2.80644">
        <ele>873</ele>
        <time>2019-04-16T21:00:49Z</time>
      </trkpt>
      <trkpt lat="45.37769" lon="2.8068">
        <ele>873</ele>
        <time>2019-04-16T21:01:49Z</time>
      </trkpt>
      <trkpt lat="45.37794" lon="2.80725">
        <ele>869</ele>
        <time>2019-04-16T21:02:49Z</time>
      </trkpt>
      <trkpt lat="45.37843" lon="2.80783">
        <ele>862</ele>
        <time>2019-04-16T21:03:49Z</time>
      </trkpt>
      <trkpt lat="45.37892" lon="2.80823">
        <ele>864</ele>
        <time>2019-04-16T21:04:49Z</time>
      </trkpt>
      <trkpt lat="45.38058" lon="2.80913">
        <ele>861</ele>
        <time>2019-04-16T21:05:49Z</time>
      </trkpt>
      <trkpt lat="45.38088" lon="2.80944">
        <ele>862</ele>
        <time>2019-04-16T21:06:49Z</time>
      </trkpt>
      <trkpt lat="45.38109" lon="2.80988">
        <ele>865</ele>
        <time>2019-04-16T21:07:49Z</time>
      </trkpt>
      <trkpt lat="45.38148" lon="2.81091">
        <ele>868</ele>
        <time>2019-04-16T21:08:49Z</time>
      </trkpt>
      <trkpt lat="45.38181" lon="2.81154">
        <ele>867</ele>
        <time>2019-04-16T21:09:49Z</time>
      </trkpt>
      <trkpt lat="45.38213" lon="2.81188">
        <ele>867</ele>
        <time>2019-04-16T21:10:49Z</time>
      </trkpt>
      <trkpt lat="45.38227" lon="2.81193">
        <ele>866</ele>
        <time>2019-04-16T21:11:49Z</time>
      </trkpt>
      <trkpt lat="45.38257" lon="2.81197">
        <ele>866</ele>
        <time>2019-04-16T21:12:49Z</time>
      </trkpt>
      <trkpt lat="45.38264" lon="2.812">
        <ele>868</ele>
        <time>2019-04-16T21:13:49Z</time>
      </trkpt>
      <trkpt lat="45.38278" lon="2.81212">
        <ele>872</ele>
        <time>2019-04-16T21:14:49Z</time>
      </trkpt>
      <trkpt lat="45.38288" lon="2.81227">
        <ele>873</ele>
        <time>2019-04-16T21:15:49Z</time>
      </trkpt>
      <trkpt lat="45.38326" lon="2.81294">
        <ele>871</ele>
        <time>2019-04-16T21:16:49Z</time>
      </trkpt>
      <trkpt lat="45.38409" lon="2.81395">
        <ele>878</ele>
        <time>2019-04-16T21:17:49Z</time>
      </trkpt>
      <trkpt lat="45.38417" lon="2.81409">
        <ele>876</ele>
        <time>2019-04-16T21:18:49Z</time>
      </trkpt>
      <trkpt lat="45.38458" lon="2.81491">
        <ele>877</ele>
        <time>2019-04-16T21:19:49Z</time>
      </trkpt>
      <trkpt lat="45.38486" lon="2.81534">
        <ele>879</ele>
        <time>2019-04-16T21:20:49Z</time>
      </trkpt>
      <trkpt lat="45.38541" lon="2.81598">
        <ele>887</ele>
        <time>2019-04-16T21:21:49Z</time>
      </trkpt>
      <trkpt lat="45.38694" lon="2.81813">
        <ele>884</ele>
        <time>2019-04-16T21:22:49Z</time>
      </trkpt>
      <trkpt lat="45.3872" lon="2.81838">
        <ele>883</ele>
        <time>2019-04-16T21:23:49Z</time>
      </trkpt>
      <trkpt lat="45.38741" lon="2.81842">
        <ele>886</ele>
        <time>2019-04-16T21:24:49Z</time>
      </trkpt>
      <trkpt lat="45.38769" lon="2.81834">
        <ele>890</ele>
        <time>2019-04-16T21:25:49Z</time>
      </trkpt>
      <trkpt lat="45.38864" lon="2.81779">
        <ele>896</ele>
        <time>2019-04-16T21:26:49Z</time>
      </trkpt>
      <trkpt lat="45.38893" lon="2.81766">
        <ele>895</ele>
        <time>2019-04-16T21:27:49Z</time>
      </trkpt>
      <trkpt lat="45.38938" lon="2.81753">
        <ele>895</ele>
        <time>2019-04-16T21:28:49Z</time>
      </trkpt>
      <trkpt lat="45.38977" lon="2.81747">
        <ele>897</ele>
        <time>2019-04-16T21:29:49Z</time>
      </trkpt>
      <trkpt lat="45.39006" lon="2.81756">
        <ele>896</ele>
        <time>2019-04-16T21:30:49Z</time>
      </trkpt>
      <trkpt lat="45.39111" lon="2.81805">
        <ele>904</ele>
        <time>2019-04-16T21:31:49Z</time>
      </trkpt>
      <trkpt lat="45.39128" lon="2.81821">
        <ele>904</ele>
        <time>2019-04-16T21:32:49Z</time>
      </trkpt>
      <trkpt lat="45.39146" lon="2.81844">
        <ele>904</ele>
        <time>2019-04-16T21:33:49Z</time>
      </trkpt>
      <trkpt lat="45.39163" lon="2.81879">
        <ele>903</ele>
        <time>2019-04-16T21:34:49Z</time>
      </trkpt>
      <trkpt lat="45.3921" lon="2.82001">
        <ele>906</ele>
        <time>2019-04-16T21:35:49Z</time>
      </trkpt>
      <trkpt lat="45.39246" lon="2.8207">
        <ele>909</ele>
        <time>2019-04-16T21:36:49Z</time>
      </trkpt>
      <trkpt lat="45.39257" lon="2.82101">
        <ele>909</ele>
        <time>2019-04-16T21:37:49Z</time>
      </trkpt>
      <trkpt lat="45.39267" lon="2.82147">
        <ele>909</ele>
        <time>2019-04-16T21:38:49Z</time>
      </trkpt>
      <trkpt lat="45.39276" lon="2.82169">
        <ele>910</ele>
        <time>2019-04-16T21:39:49Z</time>
      </trkpt>
      <trkpt lat="45.39295" lon="2.82197">
        <ele>912</ele>
        <time>2019-04-16T21:40:49Z</time>
      </trkpt>
      <trkpt lat="45.39359" lon="2.82269">
        <ele>916</ele>
        <time>2019-04-16T21:41:49Z</time>
      </trkpt>
      <trkpt lat="45.39383" lon="2.8229">
        <ele>915</ele>
        <time>2019-04-16T21:42:49Z</time>
      </trkpt>
      <trkpt lat="45.39411" lon="2.82299">
        <ele>919</ele>
        <time>2019-04-16T21:43:49Z</time>
      </trkpt>
      <trkpt lat="45.39453" lon="2.82295">
        <ele>917</ele>
        <time>2019-04-16T21:44:49Z</time>
      </trkpt>
      <trkpt lat="45.39621" lon="2.82245">
        <ele>925</ele>
        <time>2019-04-16T21:45:49Z</time>
      </trkpt>
      <trkpt lat="45.39652" lon="2.8223">
        <ele>928</ele>
        <time>2019-04-16T21:46:49Z</time>
      </trkpt>
      <trkpt lat="45.39676" lon="2.82193">
        <ele>935</ele>
        <time>2019-04-16T21:47:49Z</time>
      </trkpt>
      <trkpt lat="45.39695" lon="2.82174">
        <ele>936</ele>
        <time>2019-04-16T21:48:49Z</time>
      </trkpt>
      <trkpt lat="45.3972" lon="2.82162">
        <ele>935</ele>
        <time>2019-04-16T21:49:49Z</time>
      </trkpt>
      <trkpt lat="45.39848" lon="2.82113">
        <ele>938</ele>
        <time>2019-04-16T21:50:49Z</time>
      </trkpt>
      <trkpt lat="45.39875" lon="2.82095">
        <ele>940</ele>
        <time>2019-04-16T21:51:49Z</time>
      </trkpt>
      <trkpt lat="45.39922" lon="2.8204">
        <ele>946</ele>
        <time>2019-04-16T21:52:49Z</time>
      </trkpt>
      <trkpt lat="45.39949" lon="2.82018">
        <ele>948</ele>
        <time>2019-04-16T21:53:49Z</time>
      </trkpt>
      <trkpt lat="45.39975" lon="2.82004">
        <ele>949</ele>
        <time>2019-04-16T21:54:49Z</time>
      </trkpt>
      <trkpt lat="45.40009" lon="2.81991">
        <ele>949</ele>
        <time>2019-04-16T21:55:49Z</time>
      </trkpt>
      <trkpt lat="45.40024" lon="2.81989">
        <ele>950</ele>
        <time>2019-04-16T21:56:49Z</time>
      </trkpt>
      <trkpt lat="45.40032" lon="2.8199">
        <ele>950</ele>
        <time>2019-04-16T21:57:49Z</time>
      </trkpt>
      <trkpt lat="45.40045" lon="2.82001">
        <ele>949</ele>
        <time>2019-04-16T21:58:49Z</time>
      </trkpt>
      <trkpt lat="45.40067" lon="2.82026">
        <ele>945</ele>
        <time>2019-04-16T21:59:49Z</time>
      </trkpt>
      <trkpt lat="45.40086" lon="2.82035">
        <ele>943</ele>
        <time>2019-04-16T22:00:49Z</time>
      </trkpt>
      <trkpt lat="45.40127" lon="2.82039">
        <ele>947</ele>
        <time>2019-04-16T22:01:49Z</time>
      </trkpt>
      <trkpt lat="45.40157" lon="2.82056">
        <ele>946</ele>
        <time>2019-04-16T22:02:49Z</time>
      </trkpt>
      <trkpt lat="45.40189" lon="2.82093">
        <ele>944</ele>
        <time>2019-04-16T22:03:49Z</time>
      </trkpt>
      <trkpt lat="45.40269" lon="2.82167">
        <ele>939</ele>
        <time>2019-04-16T22:04:49Z</time>
      </trkpt>
      <trkpt lat="45.40315" lon="2.82205">
        <ele>938</ele>
        <time>2019-04-16T22:05:49Z</time>
      </trkpt>
      <trkpt lat="45.40399" lon="2.8226">
        <ele>941</ele>
        <time>2019-04-16T22:06:49Z</time>
      </trkpt>
      <trkpt lat="45.40451" lon="2.82332">
        <ele>938</ele>
        <time>2019-04-16T22:07:49Z</time>
      </trkpt>
      <trkpt lat="45.40469" lon="2.82341">
        <ele>939</ele>
        <time>2019-04-16T22:08:49Z</time>
      </trkpt>
      <trkpt lat="45.4049" lon="2.82343">
        <ele>941</ele>
        <time>2019-04-16T22:09:49Z</time>
      </trkpt>
      <trkpt lat="45.40517" lon="2.82355">
        <ele>942</ele>
        <time>2019-04-16T22:10:49Z</time>
      </trkpt>
      <trkpt lat="45.40697" lon="2.8261">
        <ele>954</ele>
        <time>2019-04-16T22:11:49Z</time>
      </trkpt>
      <trkpt lat="45.40739" lon="2.82663">
        <ele>955</ele>
        <time>2019-04-16T22:12:49Z</time>
      </trkpt>
      <trkpt lat="45.40745" lon="2.82673">
        <ele>956</ele>
        <time>2019-04-16T22:13:49Z</time>
      </trkpt>
      <trkpt lat="45.4076" lon="2.82729">
        <ele>956</ele>
        <time>2019-04-16T22:14:49Z</time>
      </trkpt>
      <trkpt lat="45.40764" lon="2.82739">
        <ele>956</ele>
        <time>2019-04-16T22:15:49Z</time>
      </trkpt>
      <trkpt lat="45.40805" lon="2.82772">
        <ele>955</ele>
        <time>2019-04-16T22:16:49Z</time>
      </trkpt>
      <trkpt lat="45.40808" lon="2.82777">
        <ele>955</ele>
        <time>2019-04-16T22:17:49Z</time>
      </trkpt>
      <trkpt lat="45.40884" lon="2.82932">
        <ele>952</ele>
        <time>2019-04-16T22:18:49Z</time>
      </trkpt>
      <trkpt lat="45.40897" lon="2.82948">
        <ele>952</ele>
        <time>2019-04-16T22:19:49Z</time>
      </trkpt>
      <trkpt lat="45.40914" lon="2.82963">
        <ele>953</ele>
        <time>2019-04-16T22:20:49Z</time>
      </trkpt>
      <trkpt lat="45.41209" lon="2.83171">
        <ele>973</ele>
        <time>2019-04-16T22:21:49Z</time>
      </trkpt>
      <trkpt lat="45.41457" lon="2.83342">
        <ele>977</ele>
        <time>2019-04-16T22:22:49Z</time>
      </trkpt>
      <trkpt lat="45.41488" lon="2.83357">
        <ele>977</ele>
        <time>2019-04-16T22:23:49Z</time>
      </trkpt>
      <trkpt lat="45.41513" lon="2.83361">
        <ele>977</ele>
        <time>2019-04-16T22:24:49Z</time>
      </trkpt>
      <trkpt lat="45.41529" lon="2.8336">
        <ele>977</ele>
        <time>2019-04-16T22:25:49Z</time>
      </trkpt>
      <trkpt lat="45.41545" lon="2.83355">
        <ele>977</ele>
        <time>2019-04-16T22:26:49Z</time>
      </trkpt>
      <trkpt lat="45.41566" lon="2.83345">
        <ele>978</ele>
        <time>2019-04-16T22:27:49Z</time>
      </trkpt>
      <trkpt lat="45.41624" lon="2.83313">
        <ele>983</ele>
        <time>2019-04-16T22:28:49Z</time>
      </trkpt>
      <trkpt lat="45.41639" lon="2.83308">
        <ele>985</ele>
        <time>2019-04-16T22:29:49Z</time>
      </trkpt>
      <trkpt lat="45.41658" lon="2.83312">
        <ele>985</ele>
        <time>2019-04-16T22:30:49Z</time>
      </trkpt>
      <trkpt lat="45.41709" lon="2.8333">
        <ele>990</ele>
        <time>2019-04-16T22:31:49Z</time>
      </trkpt>
      <trkpt lat="45.4173" lon="2.83342">
        <ele>993</ele>
        <time>2019-04-16T22:32:49Z</time>
      </trkpt>
      <trkpt lat="45.41781" lon="2.83395">
        <ele>993</ele>
        <time>2019-04-16T22:33:49Z</time>
      </trkpt>
      <trkpt lat="45.41844" lon="2.83476">
        <ele>995</ele>
        <time>2019-04-16T22:34:49Z</time>
      </trkpt>
      <trkpt lat="45.41885" lon="2.83517">
        <ele>997</ele>
        <time>2019-04-16T22:35:49Z</time>
      </trkpt>
      <trkpt lat="45.41904" lon="2.83533">
        <ele>999</ele>
        <time>2019-04-16T22:36:49Z</time>
      </trkpt>
      <trkpt lat="45.41931" lon="2.83547">
        <ele>1001</ele>
        <time>2019-04-16T22:37:49Z</time>
      </trkpt>
      <trkpt lat="45.41973" lon="2.83548">
        <ele>1004</ele>
        <time>2019-04-16T22:38:49Z</time>
      </trkpt>
      <trkpt lat="45.42066" lon="2.83543">
        <ele>1009</ele>
        <time>2019-04-16T22:39:49Z</time>
      </trkpt>
      <trkpt lat="45.42114" lon="2.83536">
        <ele>1011</ele>
        <time>2019-04-16T22:40:49Z</time>
      </trkpt>
      <trkpt lat="45.42175" lon="2.83519">
        <ele>1013</ele>
        <time>2019-04-16T22:41:49Z</time>
      </trkpt>
      <trkpt lat="45.42231" lon="2.83494">
        <ele>1015</ele>
        <time>2019-04-16T22:42:49Z</time>
      </trkpt>
      <trkpt lat="45.42374" lon="2.83408">
        <ele>1025</ele>
        <time>2019-04-16T22:43:49Z</time>
      </trkpt>
      <trkpt lat="45.42394" lon="2.83398">
        <ele>1026</ele>
        <time>2019-04-16T22:44:49Z</time>
      </trkpt>
      <trkpt lat="45.42414" lon="2.83393">
        <ele>1026</ele>
        <time>2019-04-16T22:45:49Z</time>
      </trkpt>
      <trkpt lat="45.42554" lon="2.83363">
        <ele>1032</ele>
        <time>2019-04-16T22:46:49Z</time>
      </trkpt>
      <trkpt lat="45.42587" lon="2.83354">
        <ele>1033</ele>
        <time>2019-04-16T22:47:49Z</time>
      </trkpt>
      <trkpt lat="45.42687" lon="2.83304">
        <ele>1038</ele>
        <time>2019-04-16T22:48:49Z</time>
      </trkpt>
      <trkpt lat="45.42717" lon="2.83295">
        <ele>1040</ele>
        <time>2019-04-16T22:49:49Z</time>
      </trkpt>
      <trkpt lat="45.42815" lon="2.83285">
        <ele>1043</ele>
        <time>2019-04-16T22:50:49Z</time>
      </trkpt>
      <trkpt lat="45.42841" lon="2.83286">
        <ele>1044</ele>
        <time>2019-04-16T22:51:49Z</time>
      </trkpt>
      <trkpt lat="45.42872" lon="2.83296">
        <ele>1044</ele>
        <time>2019-04-16T22:52:49Z</time>
      </trkpt>
      <trkpt lat="45.42889" lon="2.83306">
        <ele>1044</ele>
        <time>2019-04-16T22:53:49Z</time>
      </trkpt>
      <trkpt lat="45.42909" lon="2.83319">
        <ele>1044</ele>
        <time>2019-04-16T22:54:49Z</time>
      </trkpt>
      <trkpt lat="45.42959" lon="2.8336">
        <ele>1051</ele>
        <time>2019-04-16T22:55:49Z</time>
      </trkpt>
      <trkpt lat="45.42981" lon="2.83373">
        <ele>1055</ele>
        <time>2019-04-16T22:56:49Z</time>
      </trkpt>
      <trkpt lat="45.43004" lon="2.83378">
        <ele>1058</ele>
        <time>2019-04-16T22:57:49Z</time>
      </trkpt>
      <trkpt lat="45.43043" lon="2.83375">
        <ele>1060</ele>
        <time>2019-04-16T22:58:49Z</time>
      </trkpt>
      <trkpt lat="45.4309" lon="2.83378">
        <ele>1062</ele>
        <time>2019-04-16T22:59:49Z</time>
      </trkpt>
      <trkpt lat="45.43114" lon="2.83382">
        <ele>1063</ele>
        <time>2019-04-16T23:00:49Z</time>
      </trkpt>
      <trkpt lat="45.43138" lon="2.83391">
        <ele>1063</ele>
        <time>2019-04-16T23:01:49Z</time>
      </trkpt>
      <trkpt lat="45.43159" lon="2.83407">
        <ele>1062</ele>
        <time>2019-04-16T23:02:49Z</time>
      </trkpt>
      <trkpt lat="45.43204" lon="2.83451">
        <ele>1067</ele>
        <time>2019-04-16T23:03:49Z</time>
      </trkpt>
      <trkpt lat="45.4323" lon="2.83474">
        <ele>1068</ele>
        <time>2019-04-16T23:04:49Z</time>
      </trkpt>
      <trkpt lat="45.43243" lon="2.83482">
        <ele>1068</ele>
        <time>2019-04-16T23:05:49Z</time>
      </trkpt>
      <trkpt lat="45.4328" lon="2.83499">
        <ele>1068</ele>
        <time>2019-04-16T23:06:49Z</time>
      </trkpt>
      <trkpt lat="45.43304" lon="2.83515">
        <ele>1069</ele>
        <time>2019-04-16T23:07:49Z</time>
      </trkpt>
      <trkpt lat="45.43324" lon="2.83539">
        <ele>1070</ele>
        <time>2019-04-16T23:08:49Z</time>
      </trkpt>
      <trkpt lat="45.4336" lon="2.83603">
        <ele>1075</ele>
        <time>2019-04-16T23:09:49Z</time>
      </trkpt>
      <trkpt lat="45.43377" lon="2.83621">
        <ele>1076</ele>
        <time>2019-04-16T23:10:49Z</time>
      </trkpt>
      <trkpt lat="45.43393" lon="2.83631">
        <ele>1077</ele>
        <time>2019-04-16T23:11:49Z</time>
      </trkpt>
      <trkpt lat="45.43412" lon="2.83634">
        <ele>1077</ele>
        <time>2019-04-16T23:12:49Z</time>
      </trkpt>
      <trkpt lat="45.43551" lon="2.8363">
        <ele>1084</ele>
        <time>2019-04-16T23:13:49Z</time>
      </trkpt>
      <trkpt lat="45.43581" lon="2.83632">
        <ele>1085</ele>
        <time>2019-04-16T23:14:49Z</time>
      </trkpt>
      <trkpt lat="45.43592" lon="2.83635">
        <ele>1086</ele>
        <time>2019-04-16T23:15:49Z</time>
      </trkpt>
      <trkpt lat="45.43652" lon="2.83668">
        <ele>1089</ele>
        <time>2019-04-16T23:16:49Z</time>
      </trkpt>
      <trkpt lat="45.43674" lon="2.83671">
        <ele>1090</ele>
        <time>2019-04-16T23:17:49Z</time>
      </trkpt>
      <trkpt lat="45.43685" lon="2.8367">
        <ele>1090</ele>
        <time>2019-04-16T23:18:49Z</time>
      </trkpt>
      <trkpt lat="45.43706" lon="2.83662">
        <ele>1092</ele>
        <time>2019-04-16T23:19:49Z</time>
      </trkpt>
      <trkpt lat="45.43772" lon="2.83614">
        <ele>1097</ele>
        <time>2019-04-16T23:20:49Z</time>
      </trkpt>
      <trkpt lat="45.43782" lon="2.83609">
        <ele>1098</ele>
        <time>2019-04-16T23:21:49Z</time>
      </trkpt>
      <trkpt lat="45.43795" lon="2.83607">
        <ele>1099</ele>
        <time>2019-04-16T23:22:49Z</time>
      </trkpt>
      <trkpt lat="45.43819" lon="2.83608">
        <ele>1101</ele>
        <time>2019-04-16T23:23:49Z</time>
      </trkpt>
      <trkpt lat="45.43863" lon="2.83622">
        <ele>1104</ele>
        <time>2019-04-16T23:24:49Z</time>
      </trkpt>
      <trkpt lat="45.43883" lon="2.83622">
        <ele>1104</ele>
        <time>2019-04-16T23:25:49Z</time>
      </trkpt>
      <trkpt lat="45.4392" lon="2.83614">
        <ele>1102</ele>
        <time>2019-04-16T23:26:49Z</time>
      </trkpt>
      <trkpt lat="45.43942" lon="2.83615">
        <ele>1102</ele>
        <time>2019-04-16T23:27:49Z</time>
      </trkpt>
      <trkpt lat="45.43962" lon="2.83624">
        <ele>1103</ele>
        <time>2019-04-16T23:28:49Z</time>
      </trkpt>
      <trkpt lat="45.44064" lon="2.83708">
        <ele>1110</ele>
        <time>2019-04-16T23:29:49Z</time>
      </trkpt>
      <trkpt lat="45.44081" lon="2.83717">
        <ele>1110</ele>
        <time>2019-04-16T23:30:49Z</time>
      </trkpt>
      <trkpt lat="45.44194" lon="2.83762">
        <ele>1107</ele>
        <time>2019-04-16T23:31:49Z</time>
      </trkpt>
      <trkpt lat="45.44221" lon="2.83767">
        <ele>1108</ele>
        <time>2019-04-16T23:32:49Z</time>
      </trkpt>
      <trkpt lat="45.44245" lon="2.83767">
        <ele>1108</ele>
        <time>2019-04-16T23:33:49Z</time>
      </trkpt>
      <trkpt lat="45.44377" lon="2.8375">
        <ele>1111</ele>
        <time>2019-04-16T23:34:49Z</time>
      </trkpt>
      <trkpt lat="45.44444" lon="2.83743">
        <ele>1111</ele>
        <time>2019-04-16T23:35:49Z</time>
      </trkpt>
      <trkpt lat="45.44458" lon="2.83744">
        <ele>1111</ele>
        <time>2019-04-16T23:36:49Z</time>
      </trkpt>
      <trkpt lat="45.44475" lon="2.83749">
        <ele>1111</ele>
        <time>2019-04-16T23:37:49Z</time>
      </trkpt>
      <trkpt lat="45.44495" lon="2.83757">
        <ele>1111</ele>
        <time>2019-04-16T23:38:49Z</time>
      </trkpt>
      <trkpt lat="45.44608" lon="2.83814">
        <ele>1118</ele>
        <time>2019-04-16T23:39:49Z</time>
      </trkpt>
      <trkpt lat="45.44665" lon="2.8385">
        <ele>1121</ele>
        <time>2019-04-16T23:40:49Z</time>
      </trkpt>
      <trkpt lat="45.44825" lon="2.83974">
        <ele>1132</ele>
        <time>2019-04-16T23:41:49Z</time>
      </trkpt>
      <trkpt lat="45.44841" lon="2.83986">
        <ele>1133</ele>
        <time>2019-04-16T23:42:49Z</time>
      </trkpt>
      <trkpt lat="45.44863" lon="2.83997">
        <ele>1134</ele>
        <time>2019-04-16T23:43:49Z</time>
      </trkpt>
      <trkpt lat="45.44898" lon="2.84001">
        <ele>1132</ele>
        <time>2019-04-16T23:44:49Z</time>
      </trkpt>
      <trkpt lat="45.45056" lon="2.84012">
        <ele>1140</ele>
        <time>2019-04-16T23:45:49Z</time>
      </trkpt>
      <trkpt lat="45.45086" lon="2.84023">
        <ele>1141</ele>
        <time>2019-04-16T23:46:49Z</time>
      </trkpt>
      <trkpt lat="45.45114" lon="2.84044">
        <ele>1139</ele>
        <time>2019-04-16T23:47:49Z</time>
      </trkpt>
      <trkpt lat="45.45242" lon="2.84189">
        <ele>1147</ele>
        <time>2019-04-16T23:48:49Z</time>
      </trkpt>
      <trkpt lat="45.45271" lon="2.84217">
        <ele>1148</ele>
        <time>2019-04-16T23:49:49Z</time>
      </trkpt>
      <trkpt lat="45.45297" lon="2.84234">
        <ele>1149</ele>
        <time>2019-04-16T23:50:49Z</time>
      </trkpt>
      <trkpt lat="45.45346" lon="2.84259">
        <ele>1149</ele>
        <time>2019-04-16T23:51:49Z</time>
      </trkpt>
      <trkpt lat="45.45385" lon="2.84274">
        <ele>1151</ele>
        <time>2019-04-16T23:52:49Z</time>
      </trkpt>
      <trkpt lat="45.45415" lon="2.84278">
        <ele>1151</ele>
        <time>2019-04-16T23:53:49Z</time>
      </trkpt>
      <trkpt lat="45.45463" lon="2.84271">
        <ele>1151</ele>
        <time>2019-04-16T23:54:49Z</time>
      </trkpt>
      <trkpt lat="45.45503" lon="2.84262">
        <ele>1150</ele>
        <time>2019-04-16T23:55:49Z</time>
      </trkpt>
      <trkpt lat="45.45564" lon="2.84238">
        <ele>1150</ele>
        <time>2019-04-16T23:56:49Z</time>
      </trkpt>
      <trkpt lat="45.45586" lon="2.84231">
        <ele>1150</ele>
        <time>2019-04-16T23:57:49Z</time>
      </trkpt>
      <trkpt lat="45.45613" lon="2.84228">
        <ele>1151</ele>
        <time>2019-04-16T23:58:49Z</time>
      </trkpt>
      <trkpt lat="45.4564" lon="2.8423">
        <ele>1152</ele>
        <time>2019-04-16T23:59:49Z</time>
      </trkpt>
      <trkpt lat="45.45657" lon="2.84234">
        <ele>1153</ele>
        <time>2019-04-17T00:00:49Z</time>
      </trkpt>
      <trkpt lat="45.4569" lon="2.84249">
        <ele>1154</ele>
        <time>2019-04-17T00:01:49Z</time>
      </trkpt>
      <trkpt lat="45.45703" lon="2.84257">
        <ele>1153</ele>
        <time>2019-04-17T00:02:49Z</time>
      </trkpt>
      <trkpt lat="45.45733" lon="2.84282">
        <ele>1154</ele>
        <time>2019-04-17T00:03:49Z</time>
      </trkpt>
      <trkpt lat="45.45765" lon="2.84313">
        <ele>1155</ele>
        <time>2019-04-17T00:04:49Z</time>
      </trkpt>
      <trkpt lat="45.45788" lon="2.84331">
        <ele>1156</ele>
        <time>2019-04-17T00:05:49Z</time>
      </trkpt>
      <trkpt lat="45.45824" lon="2.84349">
        <ele>1157</ele>
        <time>2019-04-17T00:06:49Z</time>
      </trkpt>
      <trkpt lat="45.45913" lon="2.84386">
        <ele>1161</ele>
        <time>2019-04-17T00:07:49Z</time>
      </trkpt>
      <trkpt lat="45.45945" lon="2.84397">
        <ele>1162</ele>
        <time>2019-04-17T00:08:49Z</time>
      </trkpt>
      <trkpt lat="45.45961" lon="2.844">
        <ele>1162</ele>
        <time>2019-04-17T00:09:49Z</time>
      </trkpt>
      <trkpt lat="45.46032" lon="2.84402">
        <ele>1161</ele>
        <time>2019-04-17T00:10:49Z</time>
      </trkpt>
      <trkpt lat="45.46077" lon="2.84411">
        <ele>1162</ele>
        <time>2019-04-17T00:11:49Z</time>
      </trkpt>
      <trkpt lat="45.46151" lon="2.84435">
        <ele>1162</ele>
        <time>2019-04-17T00:12:49Z</time>
      </trkpt>
      <trkpt lat="45.46184" lon="2.8445">
        <ele>1162</ele>
        <time>2019-04-17T00:13:49Z</time>
      </trkpt>
      <trkpt lat="45.46239" lon="2.84484">
        <ele>1164</ele>
        <time>2019-04-17T00:14:49Z</time>
      </trkpt>
      <trkpt lat="45.4637" lon="2.84586">
        <ele>1172</ele>
        <time>2019-04-17T00:15:49Z</time>
      </trkpt>
      <trkpt lat="45.46607" lon="2.84735">
        <ele>1180</ele>
        <time>2019-04-17T00:16:49Z</time>
      </trkpt>
      <trkpt lat="45.46629" lon="2.84746">
        <ele>1180</ele>
        <time>2019-04-17T00:17:49Z</time>
      </trkpt>
      <trkpt lat="45.4665" lon="2.84754">
        <ele>1179</ele>
        <time>2019-04-17T00:18:49Z</time>
      </trkpt>
      <trkpt lat="45.4682" lon="2.84802">
        <ele>1184</ele>
        <time>2019-04-17T00:19:49Z</time>
      </trkpt>
      <trkpt lat="45.46852" lon="2.84814">
        <ele>1186</ele>
        <time>2019-04-17T00:20:49Z</time>
      </trkpt>
      <trkpt lat="45.46882" lon="2.8483">
        <ele>1187</ele>
        <time>2019-04-17T00:21:49Z</time>
      </trkpt>
      <trkpt lat="45.46893" lon="2.84839">
        <ele>1188</ele>
        <time>2019-04-17T00:22:49Z</time>
      </trkpt>
      <trkpt lat="45.46952" lon="2.84892">
        <ele>1194</ele>
        <time>2019-04-17T00:23:49Z</time>
      </trkpt>
      <trkpt lat="45.46969" lon="2.84905">
        <ele>1193</ele>
        <time>2019-04-17T00:24:49Z</time>
      </trkpt>
      <trkpt lat="45.46987" lon="2.84915">
        <ele>1192</ele>
        <time>2019-04-17T00:25:49Z</time>
      </trkpt>
      <trkpt lat="45.47017" lon="2.84927">
        <ele>1192</ele>
        <time>2019-04-17T00:26:49Z</time>
      </trkpt>
      <trkpt lat="45.47032" lon="2.8493">
        <ele>1192</ele>
        <time>2019-04-17T00:27:49Z</time>
      </trkpt>
      <trkpt lat="45.47066" lon="2.84932">
        <ele>1192</ele>
        <time>2019-04-17T00:28:49Z</time>
      </trkpt>
      <trkpt lat="45.47083" lon="2.8493">
        <ele>1191</ele>
        <time>2019-04-17T00:29:49Z</time>
      </trkpt>
      <trkpt lat="45.47207" lon="2.84889">
        <ele>1192</ele>
        <time>2019-04-17T00:30:49Z</time>
      </trkpt>
      <trkpt lat="45.47242" lon="2.8488">
        <ele>1192</ele>
        <time>2019-04-17T00:31:49Z</time>
      </trkpt>
      <trkpt lat="45.47278" lon="2.84882">
        <ele>1190</ele>
        <time>2019-04-17T00:32:49Z</time>
      </trkpt>
      <trkpt lat="45.47304" lon="2.84893">
        <ele>1189</ele>
        <time>2019-04-17T00:33:49Z</time>
      </trkpt>
      <trkpt lat="45.47328" lon="2.8491">
        <ele>1188</ele>
        <time>2019-04-17T00:34:49Z</time>
      </trkpt>
      <trkpt lat="45.47347" lon="2.8493">
        <ele>1188</ele>
        <time>2019-04-17T00:35:49Z</time>
      </trkpt>
      <trkpt lat="45.47357" lon="2.84943">
        <ele>1188</ele>
        <time>2019-04-17T00:36:49Z</time>
      </trkpt>
      <trkpt lat="45.47379" lon="2.84983">
        <ele>1189</ele>
        <time>2019-04-17T00:37:49Z</time>
      </trkpt>
      <trkpt lat="45.47434" lon="2.85185">
        <ele>1190</ele>
        <time>2019-04-17T00:38:49Z</time>
      </trkpt>
      <trkpt lat="45.47458" lon="2.85228">
        <ele>1191</ele>
        <time>2019-04-17T00:39:49Z</time>
      </trkpt>
      <trkpt lat="45.47494" lon="2.85268">
        <ele>1190</ele>
        <time>2019-04-17T00:40:49Z</time>
      </trkpt>
      <trkpt lat="45.47514" lon="2.85312">
        <ele>1190</ele>
        <time>2019-04-17T00:41:49Z</time>
      </trkpt>
      <trkpt lat="45.47524" lon="2.85384">
        <ele>1191</ele>
        <time>2019-04-17T00:42:49Z</time>
      </trkpt>
      <trkpt lat="45.47531" lon="2.85423">
        <ele>1192</ele>
        <time>2019-04-17T00:43:49Z</time>
      </trkpt>
      <trkpt lat="45.47559" lon="2.855">
        <ele>1192</ele>
        <time>2019-04-17T00:44:49Z</time>
      </trkpt>
      <trkpt lat="45.47583" lon="2.85536">
        <ele>1192</ele>
        <time>2019-04-17T00:45:49Z</time>
      </trkpt>
      <trkpt lat="45.47629" lon="2.85578">
        <ele>1192</ele>
        <time>2019-04-17T00:46:49Z</time>
      </trkpt>
      <trkpt lat="45.47692" lon="2.85664">
        <ele>1196</ele>
        <time>2019-04-17T00:47:49Z</time>
      </trkpt>
      <trkpt lat="45.47769" lon="2.85711">
        <ele>1193</ele>
        <time>2019-04-17T00:48:49Z</time>
      </trkpt>
      <trkpt lat="45.47877" lon="2.85815">
        <ele>1194</ele>
        <time>2019-04-17T00:49:49Z</time>
      </trkpt>
      <trkpt lat="45.47909" lon="2.8584">
        <ele>1194</ele>
        <time>2019-04-17T00:50:49Z</time>
      </trkpt>
      <trkpt lat="45.4801" lon="2.85888">
        <ele>1195</ele>
        <time>2019-04-17T00:51:49Z</time>
      </trkpt>
      <trkpt lat="45.4804" lon="2.85911">
        <ele>1195</ele>
        <time>2019-04-17T00:52:49Z</time>
      </trkpt>
      <trkpt lat="45.48091" lon="2.85973">
        <ele>1197</ele>
        <time>2019-04-17T00:53:49Z</time>
      </trkpt>
      <trkpt lat="45.48117" lon="2.85993">
        <ele>1197</ele>
        <time>2019-04-17T00:54:49Z</time>
      </trkpt>
      <trkpt lat="45.48155" lon="2.86008">
        <ele>1197</ele>
        <time>2019-04-17T00:55:49Z</time>
      </trkpt>
      <trkpt lat="45.48193" lon="2.86019">
        <ele>1197</ele>
        <time>2019-04-17T00:56:49Z</time>
      </trkpt>
      <trkpt lat="45.48221" lon="2.86019">
        <ele>1197</ele>
        <time>2019-04-17T00:57:49Z</time>
      </trkpt>
      <trkpt lat="45.48292" lon="2.85998">
        <ele>1194</ele>
        <time>2019-04-17T00:58:49Z</time>
      </trkpt>
      <trkpt lat="45.48322" lon="2.85999">
        <ele>1194</ele>
        <time>2019-04-17T00:59:49Z</time>
      </trkpt>
      <trkpt lat="45.48337" lon="2.86004">
        <ele>1194</ele>
        <time>2019-04-17T01:00:49Z</time>
      </trkpt>
      <trkpt lat="45.48352" lon="2.86013">
        <ele>1195</ele>
        <time>2019-04-17T01:01:49Z</time>
      </trkpt>
      <trkpt lat="45.48536" lon="2.86182">
        <ele>1198</ele>
        <time>2019-04-17T01:02:49Z</time>
      </trkpt>
      <trkpt lat="45.48563" lon="2.86203">
        <ele>1200</ele>
        <time>2019-04-17T01:03:49Z</time>
      </trkpt>
      <trkpt lat="45.48586" lon="2.86214">
        <ele>1202</ele>
        <time>2019-04-17T01:04:49Z</time>
      </trkpt>
      <trkpt lat="45.48603" lon="2.86215">
        <ele>1204</ele>
        <time>2019-04-17T01:05:49Z</time>
      </trkpt>
      <trkpt lat="45.48633" lon="2.86207">
        <ele>1207</ele>
        <time>2019-04-17T01:06:49Z</time>
      </trkpt>
      <trkpt lat="45.48661" lon="2.86192">
        <ele>1208</ele>
        <time>2019-04-17T01:07:49Z</time>
      </trkpt>
      <trkpt lat="45.48717" lon="2.8614">
        <ele>1208</ele>
        <time>2019-04-17T01:08:49Z</time>
      </trkpt>
      <trkpt lat="45.48757" lon="2.86125">
        <ele>1210</ele>
        <time>2019-04-17T01:09:49Z</time>
      </trkpt>
      <trkpt lat="45.48933" lon="2.86116">
        <ele>1208</ele>
        <time>2019-04-17T01:10:49Z</time>
      </trkpt>
      <trkpt lat="45.4904" lon="2.86129">
        <ele>1207</ele>
        <time>2019-04-17T01:11:49Z</time>
      </trkpt>
      <trkpt lat="45.49067" lon="2.86128">
        <ele>1206</ele>
        <time>2019-04-17T01:12:49Z</time>
      </trkpt>
      <trkpt lat="45.49105" lon="2.86121">
        <ele>1206</ele>
        <time>2019-04-17T01:13:49Z</time>
      </trkpt>
      <trkpt lat="45.49224" lon="2.86085">
        <ele>1206</ele>
        <time>2019-04-17T01:14:49Z</time>
      </trkpt>
      <trkpt lat="45.49251" lon="2.86084">
        <ele>1206</ele>
        <time>2019-04-17T01:15:49Z</time>
      </trkpt>
      <trkpt lat="45.49271" lon="2.86093">
        <ele>1206</ele>
        <time>2019-04-17T01:16:49Z</time>
      </trkpt>
      <trkpt lat="45.49286" lon="2.86101">
        <ele>1206</ele>
        <time>2019-04-17T01:17:49Z</time>
      </trkpt>
      <trkpt lat="45.49299" lon="2.86115">
        <ele>1207</ele>
        <time>2019-04-17T01:18:49Z</time>
      </trkpt>
      <trkpt lat="45.49311" lon="2.86131">
        <ele>1207</ele>
        <time>2019-04-17T01:19:49Z</time>
      </trkpt>
      <trkpt lat="45.49318" lon="2.86146">
        <ele>1208</ele>
        <time>2019-04-17T01:20:49Z</time>
      </trkpt>
      <trkpt lat="45.49324" lon="2.86166">
        <ele>1209</ele>
        <time>2019-04-17T01:21:49Z</time>
      </trkpt>
      <trkpt lat="45.49332" lon="2.86205">
        <ele>1210</ele>
        <time>2019-04-17T01:22:49Z</time>
      </trkpt>
      <trkpt lat="45.49352" lon="2.86465">
        <ele>1217</ele>
        <time>2019-04-17T01:23:49Z</time>
      </trkpt>
      <trkpt lat="45.49359" lon="2.86527">
        <ele>1216</ele>
        <time>2019-04-17T01:24:49Z</time>
      </trkpt>
      <trkpt lat="45.49373" lon="2.86582">
        <ele>1214</ele>
        <time>2019-04-17T01:25:49Z</time>
      </trkpt>
      <trkpt lat="45.49424" lon="2.86695">
        <ele>1209</ele>
        <time>2019-04-17T01:26:49Z</time>
      </trkpt>
      <trkpt lat="45.4944" lon="2.86737">
        <ele>1209</ele>
        <time>2019-04-17T01:27:49Z</time>
      </trkpt>
      <trkpt lat="45.49454" lon="2.86831">
        <ele>1211</ele>
        <time>2019-04-17T01:28:49Z</time>
      </trkpt>
      <trkpt lat="45.49456" lon="2.86913">
        <ele>1209</ele>
        <time>2019-04-17T01:29:49Z</time>
      </trkpt>
      <trkpt lat="45.49461" lon="2.86967">
        <ele>1207</ele>
        <time>2019-04-17T01:30:49Z</time>
      </trkpt>
      <trkpt lat="45.49493" lon="2.87115">
        <ele>1206</ele>
        <time>2019-04-17T01:31:49Z</time>
      </trkpt>
      <trkpt lat="45.49528" lon="2.87325">
        <ele>1199</ele>
        <time>2019-04-17T01:32:49Z</time>
      </trkpt>
      <trkpt lat="45.49537" lon="2.87368">
        <ele>1196</ele>
        <time>2019-04-17T01:33:49Z</time>
      </trkpt>
      <trkpt lat="45.4955" lon="2.87405">
        <ele>1194</ele>
        <time>2019-04-17T01:34:49Z</time>
      </trkpt>
      <trkpt lat="45.49563" lon="2.8743">
        <ele>1193</ele>
        <time>2019-04-17T01:35:49Z</time>
      </trkpt>
      <trkpt lat="45.49578" lon="2.87451">
        <ele>1192</ele>
        <time>2019-04-17T01:36:49Z</time>
      </trkpt>
      <trkpt lat="45.49685" lon="2.87565">
        <ele>1190</ele>
        <time>2019-04-17T01:37:49Z</time>
      </trkpt>
      <trkpt lat="45.49715" lon="2.87586">
        <ele>1188</ele>
        <time>2019-04-17T01:38:49Z</time>
      </trkpt>
      <trkpt lat="45.49806" lon="2.87623">
        <ele>1185</ele>
        <time>2019-04-17T01:39:49Z</time>
      </trkpt>
      <trkpt lat="45.49833" lon="2.87643">
        <ele>1184</ele>
        <time>2019-04-17T01:40:49Z</time>
      </trkpt>
      <trkpt lat="45.49853" lon="2.87669">
        <ele>1183</ele>
        <time>2019-04-17T01:41:49Z</time>
      </trkpt>
      <trkpt lat="45.49866" lon="2.87688">
        <ele>1183</ele>
        <time>2019-04-17T01:42:49Z</time>
      </trkpt>
      <trkpt lat="45.49874" lon="2.87707">
        <ele>1183</ele>
        <time>2019-04-17T01:43:49Z</time>
      </trkpt>
      <trkpt lat="45.49887" lon="2.87749">
        <ele>1183</ele>
        <time>2019-04-17T01:44:49Z</time>
      </trkpt>
      <trkpt lat="45.49901" lon="2.87836">
        <ele>1181</ele>
        <time>2019-04-17T01:45:49Z</time>
      </trkpt>
      <trkpt lat="45.49915" lon="2.879">
        <ele>1178</ele>
        <time>2019-04-17T01:46:49Z</time>
      </trkpt>
      <trkpt lat="45.50068" lon="2.88404">
        <ele>1168</ele>
        <time>2019-04-17T01:47:49Z</time>
      </trkpt>
      <trkpt lat="45.50184" lon="2.88796">
        <ele>1166</ele>
        <time>2019-04-17T01:48:49Z</time>
      </trkpt>
      <trkpt lat="45.50227" lon="2.88976">
        <ele>1163</ele>
        <time>2019-04-17T01:49:49Z</time>
      </trkpt>
      <trkpt lat="45.50269" lon="2.89092">
        <ele>1162</ele>
        <time>2019-04-17T01:50:49Z</time>
      </trkpt>
      <trkpt lat="45.50283" lon="2.89135">
        <ele>1164</ele>
        <time>2019-04-17T01:51:49Z</time>
      </trkpt>
      <trkpt lat="45.50281" lon="2.89149">
        <ele>1165</ele>
        <time>2019-04-17T01:52:49Z</time>
      </trkpt>
      <trkpt lat="45.50277" lon="2.89156">
        <ele>1166</ele>
        <time>2019-04-17T01:53:49Z</time>
      </trkpt>
      <trkpt lat="45.50268" lon="2.8916">
        <ele>1168</ele>
        <time>2019-04-17T01:54:49Z</time>
      </trkpt>
      <trkpt lat="45.50252" lon="2.89156">
        <ele>1171</ele>
        <time>2019-04-17T01:55:49Z</time>
      </trkpt>
      <trkpt lat="45.50225" lon="2.89139">
        <ele>1176</ele>
        <time>2019-04-17T01:56:49Z</time>
      </trkpt>
      <trkpt lat="45.502" lon="2.89095">
        <ele>1178</ele>
        <time>2019-04-17T01:57:49Z</time>
      </trkpt>
      <trkpt lat="45.50162" lon="2.89019">
        <ele>1177</ele>
        <time>2019-04-17T01:58:49Z</time>
      </trkpt>
      <trkpt lat="45.50096" lon="2.88859">
        <ele>1188</ele>
        <time>2019-04-17T01:59:49Z</time>
      </trkpt>
      <trkpt lat="45.50076" lon="2.88806">
        <ele>1191</ele>
        <time>2019-04-17T02:00:49Z</time>
      </trkpt>
      <trkpt lat="45.50048" lon="2.88713">
        <ele>1191</ele>
        <time>2019-04-17T02:01:49Z</time>
      </trkpt>
      <trkpt lat="45.5004" lon="2.8869">
        <ele>1190</ele>
        <time>2019-04-17T02:02:49Z</time>
      </trkpt>
      <trkpt lat="45.5003" lon="2.88676">
        <ele>1191</ele>
        <time>2019-04-17T02:03:49Z</time>
      </trkpt>
      <trkpt lat="45.49978" lon="2.88654">
        <ele>1199</ele>
        <time>2019-04-17T02:04:49Z</time>
      </trkpt>
      <trkpt lat="45.49964" lon="2.88643">
        <ele>1201</ele>
        <time>2019-04-17T02:05:49Z</time>
      </trkpt>
      <trkpt lat="45.49958" lon="2.88628">
        <ele>1203</ele>
        <time>2019-04-17T02:06:49Z</time>
      </trkpt>
      <trkpt lat="45.49954" lon="2.88605">
        <ele>1205</ele>
        <time>2019-04-17T02:07:49Z</time>
      </trkpt>
      <trkpt lat="45.49971" lon="2.88577">
        <ele>1202</ele>
        <time>2019-04-17T02:08:49Z</time>
      </trkpt>
      <trkpt lat="45.49992" lon="2.88557">
        <ele>1195</ele>
        <time>2019-04-17T02:09:49Z</time>
      </trkpt>
      <trkpt lat="45.49998" lon="2.88547">
        <ele>1192</ele>
        <time>2019-04-17T02:10:49Z</time>
      </trkpt>
      <trkpt lat="45.50002" lon="2.88535">
        <ele>1191</ele>
        <time>2019-04-17T02:11:49Z</time>
      </trkpt>
      <trkpt lat="45.50001" lon="2.88516">
        <ele>1190</ele>
        <time>2019-04-17T02:12:49Z</time>
      </trkpt>
      <trkpt lat="45.49989" lon="2.88421">
        <ele>1184</ele>
        <time>2019-04-17T02:13:49Z</time>
      </trkpt>
      <trkpt lat="45.4997" lon="2.88354">
        <ele>1187</ele>
        <time>2019-04-17T02:14:49Z</time>
      </trkpt>
      <trkpt lat="45.49971" lon="2.88334">
        <ele>1186</ele>
        <time>2019-04-17T02:15:49Z</time>
      </trkpt>
      <trkpt lat="45.49985" lon="2.88325">
        <ele>1181</ele>
        <time>2019-04-17T02:16:49Z</time>
      </trkpt>
      <trkpt lat="45.49992" lon="2.88328">
        <ele>1178</ele>
        <time>2019-04-17T02:17:49Z</time>
      </trkpt>
      <trkpt lat="45.50077" lon="2.88474">
        <ele>1169</ele>
        <time>2019-04-17T02:18:49Z</time>
      </trkpt>
      <trkpt lat="45.50094" lon="2.88491">
        <ele>1168</ele>
        <time>2019-04-17T02:19:49Z</time>
      </trkpt>
      <trkpt lat="45.50184" lon="2.88796">
        <ele>1166</ele>
        <time>2019-04-17T02:20:49Z</time>
      </trkpt>
      <trkpt lat="45.50227" lon="2.88976">
        <ele>1163</ele>
        <time>2019-04-17T02:21:49Z</time>
      </trkpt>
      <trkpt lat="45.50269" lon="2.89092">
        <ele>1162</ele>
        <time>2019-04-17T02:22:49Z</time>
      </trkpt>
      <trkpt lat="45.50283" lon="2.89135">
        <ele>1164</ele>
        <time>2019-04-17T02:23:49Z</time>
      </trkpt>
      <trkpt lat="45.50281" lon="2.89149">
        <ele>1165</ele>
        <time>2019-04-17T02:24:49Z</time>
      </trkpt>
      <trkpt lat="45.50283" lon="2.89164">
        <ele>1166</ele>
        <time>2019-04-17T02:25:49Z</time>
      </trkpt>
      <trkpt lat="45.50287" lon="2.89172">
        <ele>1166</ele>
        <time>2019-04-17T02:26:49Z</time>
      </trkpt>
      <trkpt lat="45.50292" lon="2.89177">
        <ele>1166</ele>
        <time>2019-04-17T02:27:49Z</time>
      </trkpt>
      <trkpt lat="45.50304" lon="2.89182">
        <ele>1164</ele>
        <time>2019-04-17T02:28:49Z</time>
      </trkpt>
      <trkpt lat="45.50339" lon="2.89246">
        <ele>1164</ele>
        <time>2019-04-17T02:29:49Z</time>
      </trkpt>
      <trkpt lat="45.50365" lon="2.89312">
        <ele>1167</ele>
        <time>2019-04-17T02:30:49Z</time>
      </trkpt>
      <trkpt lat="45.50416" lon="2.8947">
        <ele>1163</ele>
        <time>2019-04-17T02:31:49Z</time>
      </trkpt>
      <trkpt lat="45.50433" lon="2.89548">
        <ele>1164</ele>
        <time>2019-04-17T02:32:49Z</time>
      </trkpt>
      <trkpt lat="45.50438" lon="2.89627">
        <ele>1163</ele>
        <time>2019-04-17T02:33:49Z</time>
      </trkpt>
      <trkpt lat="45.50438" lon="2.89676">
        <ele>1161</ele>
        <time>2019-04-17T02:34:49Z</time>
      </trkpt>
      <trkpt lat="45.50435" lon="2.89725">
        <ele>1160</ele>
        <time>2019-04-17T02:35:49Z</time>
      </trkpt>
      <trkpt lat="45.50425" lon="2.89788">
        <ele>1157</ele>
        <time>2019-04-17T02:36:49Z</time>
      </trkpt>
      <trkpt lat="45.5039" lon="2.89947">
        <ele>1163</ele>
        <time>2019-04-17T02:37:49Z</time>
      </trkpt>
      <trkpt lat="45.50378" lon="2.90017">
        <ele>1171</ele>
        <time>2019-04-17T02:38:49Z</time>
      </trkpt>
      <trkpt lat="45.50376" lon="2.90083">
        <ele>1176</ele>
        <time>2019-04-17T02:39:49Z</time>
      </trkpt>
      <trkpt lat="45.50381" lon="2.90133">
        <ele>1177</ele>
        <time>2019-04-17T02:40:49Z</time>
      </trkpt>
      <trkpt lat="45.5042" lon="2.90316">
        <ele>1178</ele>
        <time>2019-04-17T02:41:49Z</time>
      </trkpt>
      <trkpt lat="45.50449" lon="2.90464">
        <ele>1186</ele>
        <time>2019-04-17T02:42:49Z</time>
      </trkpt>
      <trkpt lat="45.50453" lon="2.905">
        <ele>1189</ele>
        <time>2019-04-17T02:43:49Z</time>
      </trkpt>
      <trkpt lat="45.50458" lon="2.90652">
        <ele>1192</ele>
        <time>2019-04-17T02:44:49Z</time>
      </trkpt>
      <trkpt lat="45.50472" lon="2.90879">
        <ele>1191</ele>
        <time>2019-04-17T02:45:49Z</time>
      </trkpt>
      <trkpt lat="45.5047" lon="2.91012">
        <ele>1192</ele>
        <time>2019-04-17T02:46:49Z</time>
      </trkpt>
      <trkpt lat="45.50477" lon="2.91119">
        <ele>1190</ele>
        <time>2019-04-17T02:47:49Z</time>
      </trkpt>
      <trkpt lat="45.50482" lon="2.9123">
        <ele>1182</ele>
        <time>2019-04-17T02:48:49Z</time>
      </trkpt>
      <trkpt lat="45.50488" lon="2.91311">
        <ele>1175</ele>
        <time>2019-04-17T02:49:49Z</time>
      </trkpt>
      <trkpt lat="45.50497" lon="2.91347">
        <ele>1172</ele>
        <time>2019-04-17T02:50:49Z</time>
      </trkpt>
      <trkpt lat="45.50565" lon="2.9149">
        <ele>1158</ele>
        <time>2019-04-17T02:51:49Z</time>
      </trkpt>
      <trkpt lat="45.5059" lon="2.91556">
        <ele>1155</ele>
        <time>2019-04-17T02:52:49Z</time>
      </trkpt>
      <trkpt lat="45.50602" lon="2.91593">
        <ele>1151</ele>
        <time>2019-04-17T02:53:49Z</time>
      </trkpt>
      <trkpt lat="45.50609" lon="2.91631">
        <ele>1149</ele>
        <time>2019-04-17T02:54:49Z</time>
      </trkpt>
      <trkpt lat="45.50616" lon="2.91687">
        <ele>1146</ele>
        <time>2019-04-17T02:55:49Z</time>
      </trkpt>
      <trkpt lat="45.50621" lon="2.91715">
        <ele>1145</ele>
        <time>2019-04-17T02:56:49Z</time>
      </trkpt>
      <trkpt lat="45.50629" lon="2.91739">
        <ele>1145</ele>
        <time>2019-04-17T02:57:49Z</time>
      </trkpt>
      <trkpt lat="45.50652" lon="2.91787">
        <ele>1144</ele>
        <time>2019-04-17T02:58:49Z</time>
      </trkpt>
      <trkpt lat="45.5067" lon="2.9182">
        <ele>1144</ele>
        <time>2019-04-17T02:59:49Z</time>
      </trkpt>
      <trkpt lat="45.50686" lon="2.91855">
        <ele>1143</ele>
        <time>2019-04-17T03:00:49Z</time>
      </trkpt>
      <trkpt lat="45.50701" lon="2.91905">
        <ele>1141</ele>
        <time>2019-04-17T03:01:49Z</time>
      </trkpt>
      <trkpt lat="45.50735" lon="2.92025">
        <ele>1137</ele>
        <time>2019-04-17T03:02:49Z</time>
      </trkpt>
      <trkpt lat="45.5075" lon="2.92083">
        <ele>1134</ele>
        <time>2019-04-17T03:03:49Z</time>
      </trkpt>
      <trkpt lat="45.50759" lon="2.92127">
        <ele>1129</ele>
        <time>2019-04-17T03:04:49Z</time>
      </trkpt>
      <trkpt lat="45.5076" lon="2.92152">
        <ele>1125</ele>
        <time>2019-04-17T03:05:49Z</time>
      </trkpt>
      <trkpt lat="45.50757" lon="2.92243">
        <ele>1113</ele>
        <time>2019-04-17T03:06:49Z</time>
      </trkpt>
      <trkpt lat="45.5078" lon="2.92421">
        <ele>1097</ele>
        <time>2019-04-17T03:07:49Z</time>
      </trkpt>
      <trkpt lat="45.508" lon="2.92499">
        <ele>1090</ele>
        <time>2019-04-17T03:08:49Z</time>
      </trkpt>
      <trkpt lat="45.50815" lon="2.92534">
        <ele>1088</ele>
        <time>2019-04-17T03:09:49Z</time>
      </trkpt>
      <trkpt lat="45.5089" lon="2.92618">
        <ele>1084</ele>
        <time>2019-04-17T03:10:49Z</time>
      </trkpt>
      <trkpt lat="45.50914" lon="2.92654">
        <ele>1080</ele>
        <time>2019-04-17T03:11:49Z</time>
      </trkpt>
      <trkpt lat="45.50933" lon="2.92692">
        <ele>1079</ele>
        <time>2019-04-17T03:12:49Z</time>
      </trkpt>
      <trkpt lat="45.50952" lon="2.92742">
        <ele>1076</ele>
        <time>2019-04-17T03:13:49Z</time>
      </trkpt>
      <trkpt lat="45.50966" lon="2.92786">
        <ele>1073</ele>
        <time>2019-04-17T03:14:49Z</time>
      </trkpt>
      <trkpt lat="45.50996" lon="2.92911">
        <ele>1061</ele>
        <time>2019-04-17T03:15:49Z</time>
      </trkpt>
      <trkpt lat="45.51005" lon="2.92933">
        <ele>1060</ele>
        <time>2019-04-17T03:16:49Z</time>
      </trkpt>
      <trkpt lat="45.51043" lon="2.92998">
        <ele>1057</ele>
        <time>2019-04-17T03:17:49Z</time>
      </trkpt>
      <trkpt lat="45.51064" lon="2.9303">
        <ele>1055</ele>
        <time>2019-04-17T03:18:49Z</time>
      </trkpt>
      <trkpt lat="45.51073" lon="2.93053">
        <ele>1054</ele>
        <time>2019-04-17T03:19:49Z</time>
      </trkpt>
      <trkpt lat="45.51075" lon="2.93063">
        <ele>1053</ele>
        <time>2019-04-17T03:20:49Z</time>
      </trkpt>
      <trkpt lat="45.51075" lon="2.93077">
        <ele>1053</ele>
        <time>2019-04-17T03:21:49Z</time>
      </trkpt>
      <trkpt lat="45.5106" lon="2.93121">
        <ele>1050</ele>
        <time>2019-04-17T03:22:49Z</time>
      </trkpt>
      <trkpt lat="45.51039" lon="2.93156">
        <ele>1049</ele>
        <time>2019-04-17T03:23:49Z</time>
      </trkpt>
      <trkpt lat="45.51024" lon="2.93167">
        <ele>1049</ele>
        <time>2019-04-17T03:24:49Z</time>
      </trkpt>
      <trkpt lat="45.51022" lon="2.93175">
        <ele>1048</ele>
        <time>2019-04-17T03:25:49Z</time>
      </trkpt>
      <trkpt lat="45.51023" lon="2.93183">
        <ele>1048</ele>
        <time>2019-04-17T03:26:49Z</time>
      </trkpt>
      <trkpt lat="45.51009" lon="2.93228">
        <ele>1047</ele>
        <time>2019-04-17T03:27:49Z</time>
      </trkpt>
      <trkpt lat="45.50994" lon="2.93264">
        <ele>1046</ele>
        <time>2019-04-17T03:28:49Z</time>
      </trkpt>
      <trkpt lat="45.5099" lon="2.93278">
        <ele>1045</ele>
        <time>2019-04-17T03:29:49Z</time>
      </trkpt>
      <trkpt lat="45.50984" lon="2.93314">
        <ele>1043</ele>
        <time>2019-04-17T03:30:49Z</time>
      </trkpt>
      <trkpt lat="45.50968" lon="2.93428">
        <ele>1041</ele>
        <time>2019-04-17T03:31:49Z</time>
      </trkpt>
      <trkpt lat="45.50962" lon="2.93431">
        <ele>1041</ele>
        <time>2019-04-17T03:32:49Z</time>
      </trkpt>
      <trkpt lat="45.5096" lon="2.93437">
        <ele>1041</ele>
        <time>2019-04-17T03:33:49Z</time>
      </trkpt>
      <trkpt lat="45.5096" lon="2.93443">
        <ele>1041</ele>
        <time>2019-04-17T03:34:49Z</time>
      </trkpt>
      <trkpt lat="45.50964" lon="2.9345">
        <ele>1040</ele>
        <time>2019-04-17T03:35:49Z</time>
      </trkpt>
      <trkpt lat="45.50969" lon="2.9345">
        <ele>1040</ele>
        <time>2019-04-17T03:36:49Z</time>
      </trkpt>
      <trkpt lat="45.50973" lon="2.93447">
        <ele>1040</ele>
        <time>2019-04-17T03:37:49Z</time>
      </trkpt>
      <trkpt lat="45.50975" lon="2.93439">
        <ele>1040</ele>
        <time>2019-04-17T03:38:49Z</time>
      </trkpt>
      <trkpt lat="45.51016" lon="2.93422">
        <ele>1039</ele>
        <time>2019-04-17T03:39:49Z</time>
      </trkpt>
      <trkpt lat="45.51106" lon="2.93371">
        <ele>1038</ele>
        <time>2019-04-17T03:40:49Z</time>
      </trkpt>
      <trkpt lat="45.51124" lon="2.93393">
        <ele>1037</ele>
        <time>2019-04-17T03:41:49Z</time>
      </trkpt>
      <trkpt lat="45.51151" lon="2.9344">
        <ele>1032</ele>
        <time>2019-04-17T03:42:49Z</time>
      </trkpt>
      <trkpt lat="45.51161" lon="2.93451">
        <ele>1031</ele>
        <time>2019-04-17T03:43:49Z</time>
      </trkpt>
      <trkpt lat="45.51173" lon="2.93459">
        <ele>1030</ele>
        <time>2019-04-17T03:44:49Z</time>
      </trkpt>
      <trkpt lat="45.51238" lon="2.93489">
        <ele>1027</ele>
        <time>2019-04-17T03:45:49Z</time>
      </trkpt>
      <trkpt lat="45.51262" lon="2.93551">
        <ele>1021</ele>
        <time>2019-04-17T03:46:49Z</time>
      </trkpt>
      <trkpt lat="45.51268" lon="2.93559">
        <ele>1020</ele>
        <time>2019-04-17T03:47:49Z</time>
      </trkpt>
      <trkpt lat="45.51276" lon="2.93569">
        <ele>1018</ele>
        <time>2019-04-17T03:48:49Z</time>
      </trkpt>
      <trkpt lat="45.5129" lon="2.93579">
        <ele>1017</ele>
        <time>2019-04-17T03:49:49Z</time>
      </trkpt>
      <trkpt lat="45.51305" lon="2.9358">
        <ele>1016</ele>
        <time>2019-04-17T03:50:49Z</time>
      </trkpt>
      <trkpt lat="45.51314" lon="2.93572">
        <ele>1016</ele>
        <time>2019-04-17T03:51:49Z</time>
      </trkpt>
      <trkpt lat="45.51327" lon="2.93541">
        <ele>1017</ele>
        <time>2019-04-17T03:52:49Z</time>
      </trkpt>
      <trkpt lat="45.51334" lon="2.9353">
        <ele>1016</ele>
        <time>2019-04-17T03:53:49Z</time>
      </trkpt>
      <trkpt lat="45.51351" lon="2.93514">
        <ele>1014</ele>
        <time>2019-04-17T03:54:49Z</time>
      </trkpt>
      <trkpt lat="45.51375" lon="2.93477">
        <ele>1012</ele>
        <time>2019-04-17T03:55:49Z</time>
      </trkpt>
      <trkpt lat="45.51383" lon="2.93474">
        <ele>1011</ele>
        <time>2019-04-17T03:56:49Z</time>
      </trkpt>
      <trkpt lat="45.51391" lon="2.93482">
        <ele>1009</ele>
        <time>2019-04-17T03:57:49Z</time>
      </trkpt>
      <trkpt lat="45.51394" lon="2.93496">
        <ele>1008</ele>
        <time>2019-04-17T03:58:49Z</time>
      </trkpt>
      <trkpt lat="45.51393" lon="2.93511">
        <ele>1007</ele>
        <time>2019-04-17T03:59:49Z</time>
      </trkpt>
      <trkpt lat="45.5137" lon="2.9355">
        <ele>1009</ele>
        <time>2019-04-17T04:00:49Z</time>
      </trkpt>
      <trkpt lat="45.51364" lon="2.93568">
        <ele>1009</ele>
        <time>2019-04-17T04:01:49Z</time>
      </trkpt>
      <trkpt lat="45.51364" lon="2.93587">
        <ele>1008</ele>
        <time>2019-04-17T04:02:49Z</time>
      </trkpt>
      <trkpt lat="45.5137" lon="2.93606">
        <ele>1006</ele>
        <time>2019-04-17T04:03:49Z</time>
      </trkpt>
      <trkpt lat="45.51407" lon="2.93653">
        <ele>999</ele>
        <time>2019-04-17T04:04:49Z</time>
      </trkpt>
      <trkpt lat="45.51462" lon="2.93764">
        <ele>992</ele>
        <time>2019-04-17T04:05:49Z</time>
      </trkpt>
      <trkpt lat="45.51533" lon="2.9388">
        <ele>986</ele>
        <time>2019-04-17T04:06:49Z</time>
      </trkpt>
      <trkpt lat="45.5153" lon="2.93888">
        <ele>987</ele>
        <time>2019-04-17T04:07:49Z</time>
      </trkpt>
      <trkpt lat="45.51531" lon="2.93896">
        <ele>987</ele>
        <time>2019-04-17T04:08:49Z</time>
      </trkpt>
      <trkpt lat="45.51535" lon="2.93903">
        <ele>986</ele>
        <time>2019-04-17T04:09:49Z</time>
      </trkpt>
      <trkpt lat="45.51541" lon="2.93905">
        <ele>986</ele>
        <time>2019-04-17T04:10:49Z</time>
      </trkpt>
      <trkpt lat="45.51547" lon="2.93901">
        <ele>985</ele>
        <time>2019-04-17T04:11:49Z</time>
      </trkpt>
      <trkpt lat="45.51548" lon="2.93897">
        <ele>985</ele>
        <time>2019-04-17T04:12:49Z</time>
      </trkpt>
      <trkpt lat="45.51549" lon="2.93886">
        <ele>985</ele>
        <time>2019-04-17T04:13:49Z</time>
      </trkpt>
      <trkpt lat="45.51548" lon="2.93882">
        <ele>985</ele>
        <time>2019-04-17T04:14:49Z</time>
      </trkpt>
      <trkpt lat="45.51558" lon="2.93875">
        <ele>984</ele>
        <time>2019-04-17T04:15:49Z</time>
      </trkpt>
      <trkpt lat="45.51573" lon="2.93868">
        <ele>984</ele>
        <time>2019-04-17T04:16:49Z</time>
      </trkpt>
      <trkpt lat="45.51587" lon="2.93865">
        <ele>983</ele>
        <time>2019-04-17T04:17:49Z</time>
      </trkpt>
      <trkpt lat="45.51603" lon="2.93865">
        <ele>986</ele>
        <time>2019-04-17T04:18:49Z</time>
      </trkpt>
      <trkpt lat="45.51616" lon="2.9387">
        <ele>987</ele>
        <time>2019-04-17T04:19:49Z</time>
      </trkpt>
      <trkpt lat="45.51744" lon="2.93945">
        <ele>989</ele>
        <time>2019-04-17T04:20:49Z</time>
      </trkpt>
      <trkpt lat="45.51784" lon="2.93964">
        <ele>990</ele>
        <time>2019-04-17T04:21:49Z</time>
      </trkpt>
      <trkpt lat="45.51822" lon="2.93964">
        <ele>994</ele>
        <time>2019-04-17T04:22:49Z</time>
      </trkpt>
      <trkpt lat="45.51921" lon="2.93956">
        <ele>997</ele>
        <time>2019-04-17T04:23:49Z</time>
      </trkpt>
      <trkpt lat="45.51951" lon="2.9396">
        <ele>1000</ele>
        <time>2019-04-17T04:24:49Z</time>
      </trkpt>
      <trkpt lat="45.51985" lon="2.93992">
        <ele>1001</ele>
        <time>2019-04-17T04:25:49Z</time>
      </trkpt>
      <trkpt lat="45.52102" lon="2.94179">
        <ele>994</ele>
        <time>2019-04-17T04:26:49Z</time>
      </trkpt>
      <trkpt lat="45.52145" lon="2.94265">
        <ele>993</ele>
        <time>2019-04-17T04:27:49Z</time>
      </trkpt>
      <trkpt lat="45.52194" lon="2.94344">
        <ele>988</ele>
        <time>2019-04-17T04:28:49Z</time>
      </trkpt>
      <trkpt lat="45.52243" lon="2.94405">
        <ele>989</ele>
        <time>2019-04-17T04:29:49Z</time>
      </trkpt>
      <trkpt lat="45.52377" lon="2.94527">
        <ele>993</ele>
        <time>2019-04-17T04:30:49Z</time>
      </trkpt>
      <trkpt lat="45.52412" lon="2.94572">
        <ele>996</ele>
        <time>2019-04-17T04:31:49Z</time>
      </trkpt>
      <trkpt lat="45.52436" lon="2.94614">
        <ele>995</ele>
        <time>2019-04-17T04:32:49Z</time>
      </trkpt>
      <trkpt lat="45.52548" lon="2.94831">
        <ele>992</ele>
        <time>2019-04-17T04:33:49Z</time>
      </trkpt>
      <trkpt lat="45.52574" lon="2.94862">
        <ele>992</ele>
        <time>2019-04-17T04:34:49Z</time>
      </trkpt>
      <trkpt lat="45.52598" lon="2.94875">
        <ele>993</ele>
        <time>2019-04-17T04:35:49Z</time>
      </trkpt>
      <trkpt lat="45.5263" lon="2.94877">
        <ele>995</ele>
        <time>2019-04-17T04:36:49Z</time>
      </trkpt>
      <trkpt lat="45.52665" lon="2.94869">
        <ele>997</ele>
        <time>2019-04-17T04:37:49Z</time>
      </trkpt>
      <trkpt lat="45.53076" lon="2.94687">
        <ele>1013</ele>
        <time>2019-04-17T04:38:49Z</time>
      </trkpt>
      <trkpt lat="45.53121" lon="2.94672">
        <ele>1014</ele>
        <time>2019-04-17T04:39:49Z</time>
      </trkpt>
      <trkpt lat="45.5317" lon="2.94664">
        <ele>1014</ele>
        <time>2019-04-17T04:40:49Z</time>
      </trkpt>
      <trkpt lat="45.53339" lon="2.9467">
        <ele>1024</ele>
        <time>2019-04-17T04:41:49Z</time>
      </trkpt>
      <trkpt lat="45.53377" lon="2.94684">
        <ele>1028</ele>
        <time>2019-04-17T04:42:49Z</time>
      </trkpt>
      <trkpt lat="45.53404" lon="2.94709">
        <ele>1029</ele>
        <time>2019-04-17T04:43:49Z</time>
      </trkpt>
      <trkpt lat="45.53449" lon="2.94776">
        <ele>1028</ele>
        <time>2019-04-17T04:44:49Z</time>
      </trkpt>
      <trkpt lat="45.5347" lon="2.94797">
        <ele>1028</ele>
        <time>2019-04-17T04:45:49Z</time>
      </trkpt>
      <trkpt lat="45.53486" lon="2.94809">
        <ele>1029</ele>
        <time>2019-04-17T04:46:49Z</time>
      </trkpt>
      <trkpt lat="45.53597" lon="2.94844">
        <ele>1035</ele>
        <time>2019-04-17T04:47:49Z</time>
      </trkpt>
      <trkpt lat="45.53638" lon="2.94851">
        <ele>1037</ele>
        <time>2019-04-17T04:48:49Z</time>
      </trkpt>
      <trkpt lat="45.53669" lon="2.94847">
        <ele>1040</ele>
        <time>2019-04-17T04:49:49Z</time>
      </trkpt>
      <trkpt lat="45.53696" lon="2.94839">
        <ele>1039</ele>
        <time>2019-04-17T04:50:49Z</time>
      </trkpt>
      <trkpt lat="45.53725" lon="2.9482">
        <ele>1040</ele>
        <time>2019-04-17T04:51:49Z</time>
      </trkpt>
      <trkpt lat="45.53911" lon="2.94653">
        <ele>1039</ele>
        <time>2019-04-17T04:52:49Z</time>
      </trkpt>
      <trkpt lat="45.54068" lon="2.94477">
        <ele>1031</ele>
        <time>2019-04-17T04:53:49Z</time>
      </trkpt>
      <trkpt lat="45.54087" lon="2.94443">
        <ele>1030</ele>
        <time>2019-04-17T04:54:49Z</time>
      </trkpt>
      <trkpt lat="45.54095" lon="2.94401">
        <ele>1031</ele>
        <time>2019-04-17T04:55:49Z</time>
      </trkpt>
      <trkpt lat="45.54097" lon="2.94322">
        <ele>1034</ele>
        <time>2019-04-17T04:56:49Z</time>
      </trkpt>
      <trkpt lat="45.54105" lon="2.9427">
        <ele>1035</ele>
        <time>2019-04-17T04:57:49Z</time>
      </trkpt>
      <trkpt lat="45.54116" lon="2.94234">
        <ele>1033</ele>
        <time>2019-04-17T04:58:49Z</time>
      </trkpt>
      <trkpt lat="45.54152" lon="2.94152">
        <ele>1028</ele>
        <time>2019-04-17T04:59:49Z</time>
      </trkpt>
      <trkpt lat="45.54217" lon="2.94071">
        <ele>1012</ele>
        <time>2019-04-17T05:00:49Z</time>
      </trkpt>
      <trkpt lat="45.54225" lon="2.94052">
        <ele>1010</ele>
        <time>2019-04-17T05:01:49Z</time>
      </trkpt>
      <trkpt lat="45.5423" lon="2.94027">
        <ele>1008</ele>
        <time>2019-04-17T05:02:49Z</time>
      </trkpt>
      <trkpt lat="45.54228" lon="2.94009">
        <ele>1008</ele>
        <time>2019-04-17T05:03:49Z</time>
      </trkpt>
      <trkpt lat="45.54201" lon="2.93935">
        <ele>1009</ele>
        <time>2019-04-17T05:04:49Z</time>
      </trkpt>
      <trkpt lat="45.54198" lon="2.93912">
        <ele>1008</ele>
        <time>2019-04-17T05:05:49Z</time>
      </trkpt>
      <trkpt lat="45.54202" lon="2.93885">
        <ele>1008</ele>
        <time>2019-04-17T05:06:49Z</time>
      </trkpt>
      <trkpt lat="45.54216" lon="2.9386">
        <ele>1006</ele>
        <time>2019-04-17T05:07:49Z</time>
      </trkpt>
      <trkpt lat="45.5423" lon="2.9385">
        <ele>1005</ele>
        <time>2019-04-17T05:08:49Z</time>
      </trkpt>
      <trkpt lat="45.54246" lon="2.93845">
        <ele>1004</ele>
        <time>2019-04-17T05:09:49Z</time>
      </trkpt>
      <trkpt lat="45.54301" lon="2.93858">
        <ele>1010</ele>
        <time>2019-04-17T05:10:49Z</time>
      </trkpt>
      <trkpt lat="45.54332" lon="2.93871">
        <ele>1013</ele>
        <time>2019-04-17T05:11:49Z</time>
      </trkpt>
      <trkpt lat="45.54355" lon="2.93894">
        <ele>1015</ele>
        <time>2019-04-17T05:12:49Z</time>
      </trkpt>
      <trkpt lat="45.5437" lon="2.93922">
        <ele>1015</ele>
        <time>2019-04-17T05:13:49Z</time>
      </trkpt>
      <trkpt lat="45.54387" lon="2.93961">
        <ele>1017</ele>
        <time>2019-04-17T05:14:49Z</time>
      </trkpt>
      <trkpt lat="45.54397" lon="2.93994">
        <ele>1018</ele>
        <time>2019-04-17T05:15:49Z</time>
      </trkpt>
      <trkpt lat="45.54399" lon="2.94039">
        <ele>1019</ele>
        <time>2019-04-17T05:16:49Z</time>
      </trkpt>
      <trkpt lat="45.54395" lon="2.94075">
        <ele>1019</ele>
        <time>2019-04-17T05:17:49Z</time>
      </trkpt>
      <trkpt lat="45.54387" lon="2.94122">
        <ele>1019</ele>
        <time>2019-04-17T05:18:49Z</time>
      </trkpt>
      <trkpt lat="45.54355" lon="2.94225">
        <ele>1018</ele>
        <time>2019-04-17T05:19:49Z</time>
      </trkpt>
      <trkpt lat="45.54349" lon="2.94261">
        <ele>1018</ele>
        <time>2019-04-17T05:20:49Z</time>
      </trkpt>
      <trkpt lat="45.5435" lon="2.94286">
        <ele>1017</ele>
        <time>2019-04-17T05:21:49Z</time>
      </trkpt>
      <trkpt lat="45.54358" lon="2.94318">
        <ele>1017</ele>
        <time>2019-04-17T05:22:49Z</time>
      </trkpt>
      <trkpt lat="45.54373" lon="2.94343">
        <ele>1018</ele>
        <time>2019-04-17T05:23:49Z</time>
      </trkpt>
      <trkpt lat="45.54392" lon="2.94359">
        <ele>1019</ele>
        <time>2019-04-17T05:24:49Z</time>
      </trkpt>
      <trkpt lat="45.54414" lon="2.94368">
        <ele>1021</ele>
        <time>2019-04-17T05:25:49Z</time>
      </trkpt>
      <trkpt lat="45.5444" lon="2.94363">
        <ele>1022</ele>
        <time>2019-04-17T05:26:49Z</time>
      </trkpt>
      <trkpt lat="45.54494" lon="2.94331">
        <ele>1024</ele>
        <time>2019-04-17T05:27:49Z</time>
      </trkpt>
      <trkpt lat="45.54511" lon="2.94323">
        <ele>1025</ele>
        <time>2019-04-17T05:28:49Z</time>
      </trkpt>
      <trkpt lat="45.54526" lon="2.94322">
        <ele>1024</ele>
        <time>2019-04-17T05:29:49Z</time>
      </trkpt>
      <trkpt lat="45.54548" lon="2.94333">
        <ele>1023</ele>
        <time>2019-04-17T05:30:49Z</time>
      </trkpt>
      <trkpt lat="45.54566" lon="2.94349">
        <ele>1023</ele>
        <time>2019-04-17T05:31:49Z</time>
      </trkpt>
      <trkpt lat="45.54586" lon="2.94387">
        <ele>1024</ele>
        <time>2019-04-17T05:32:49Z</time>
      </trkpt>
      <trkpt lat="45.54594" lon="2.94438">
        <ele>1025</ele>
        <time>2019-04-17T05:33:49Z</time>
      </trkpt>
      <trkpt lat="45.54611" lon="2.94483">
        <ele>1026</ele>
        <time>2019-04-17T05:34:49Z</time>
      </trkpt>
      <trkpt lat="45.54626" lon="2.94505">
        <ele>1027</ele>
        <time>2019-04-17T05:35:49Z</time>
      </trkpt>
      <trkpt lat="45.54645" lon="2.94521">
        <ele>1028</ele>
        <time>2019-04-17T05:36:49Z</time>
      </trkpt>
      <trkpt lat="45.5466" lon="2.94527">
        <ele>1029</ele>
        <time>2019-04-17T05:37:49Z</time>
      </trkpt>
      <trkpt lat="45.5468" lon="2.94531">
        <ele>1029</ele>
        <time>2019-04-17T05:38:49Z</time>
      </trkpt>
      <trkpt lat="45.54719" lon="2.94528">
        <ele>1031</ele>
        <time>2019-04-17T05:39:49Z</time>
      </trkpt>
      <trkpt lat="45.54805" lon="2.94516">
        <ele>1030</ele>
        <time>2019-04-17T05:40:49Z</time>
      </trkpt>
      <trkpt lat="45.5483" lon="2.9451">
        <ele>1029</ele>
        <time>2019-04-17T05:41:49Z</time>
      </trkpt>
      <trkpt lat="45.54857" lon="2.94488">
        <ele>1028</ele>
        <time>2019-04-17T05:42:49Z</time>
      </trkpt>
      <trkpt lat="45.54878" lon="2.94461">
        <ele>1027</ele>
        <time>2019-04-17T05:43:49Z</time>
      </trkpt>
      <trkpt lat="45.54895" lon="2.94436">
        <ele>1027</ele>
        <time>2019-04-17T05:44:49Z</time>
      </trkpt>
      <trkpt lat="45.54935" lon="2.94362">
        <ele>1025</ele>
        <time>2019-04-17T05:45:49Z</time>
      </trkpt>
      <trkpt lat="45.54968" lon="2.9427">
        <ele>1020</ele>
        <time>2019-04-17T05:46:49Z</time>
      </trkpt>
      <trkpt lat="45.5499" lon="2.94167">
        <ele>1020</ele>
        <time>2019-04-17T05:47:49Z</time>
      </trkpt>
      <trkpt lat="45.55008" lon="2.94056">
        <ele>1021</ele>
        <time>2019-04-17T05:48:49Z</time>
      </trkpt>
      <trkpt lat="45.55018" lon="2.94021">
        <ele>1022</ele>
        <time>2019-04-17T05:49:49Z</time>
      </trkpt>
      <trkpt lat="45.55028" lon="2.94008">
        <ele>1022</ele>
        <time>2019-04-17T05:50:49Z</time>
      </trkpt>
      <trkpt lat="45.5505" lon="2.94003">
        <ele>1021</ele>
        <time>2019-04-17T05:51:49Z</time>
      </trkpt>
      <trkpt lat="45.55068" lon="2.94013">
        <ele>1020</ele>
        <time>2019-04-17T05:52:49Z</time>
      </trkpt>
      <trkpt lat="45.55079" lon="2.94028">
        <ele>1018</ele>
        <time>2019-04-17T05:53:49Z</time>
      </trkpt>
      <trkpt lat="45.55106" lon="2.94068">
        <ele>1016</ele>
        <time>2019-04-17T05:54:49Z</time>
      </trkpt>
      <trkpt lat="45.55125" lon="2.94112">
        <ele>1013</ele>
        <time>2019-04-17T05:55:49Z</time>
      </trkpt>
      <trkpt lat="45.55137" lon="2.94132">
        <ele>1011</ele>
        <time>2019-04-17T05:56:49Z</time>
      </trkpt>
      <trkpt lat="45.55158" lon="2.94159">
        <ele>1008</ele>
        <time>2019-04-17T05:57:49Z</time>
      </trkpt>
      <trkpt lat="45.55353" lon="2.94376">
        <ele>985</ele>
        <time>2019-04-17T05:58:49Z</time>
      </trkpt>
      <trkpt lat="45.55469" lon="2.94509">
        <ele>975</ele>
        <time>2019-04-17T05:59:49Z</time>
      </trkpt>
      <trkpt lat="45.55545" lon="2.94595">
        <ele>972</ele>
        <time>2019-04-17T06:00:49Z</time>
      </trkpt>
      <trkpt lat="45.55608" lon="2.94631">
        <ele>971</ele>
        <time>2019-04-17T06:01:49Z</time>
      </trkpt>
      <trkpt lat="45.55632" lon="2.94656">
        <ele>969</ele>
        <time>2019-04-17T06:02:49Z</time>
      </trkpt>
      <trkpt lat="45.55652" lon="2.9469">
        <ele>968</ele>
        <time>2019-04-17T06:03:49Z</time>
      </trkpt>
      <trkpt lat="45.55662" lon="2.94716">
        <ele>967</ele>
        <time>2019-04-17T06:04:49Z</time>
      </trkpt>
      <trkpt lat="45.55668" lon="2.94751">
        <ele>966</ele>
        <time>2019-04-17T06:05:49Z</time>
      </trkpt>
      <trkpt lat="45.55673" lon="2.94813">
        <ele>964</ele>
        <time>2019-04-17T06:06:49Z</time>
      </trkpt>
      <trkpt lat="45.55678" lon="2.94842">
        <ele>963</ele>
        <time>2019-04-17T06:07:49Z</time>
      </trkpt>
      <trkpt lat="45.55687" lon="2.94864">
        <ele>960</ele>
        <time>2019-04-17T06:08:49Z</time>
      </trkpt>
      <trkpt lat="45.55703" lon="2.94884">
        <ele>956</ele>
        <time>2019-04-17T06:09:49Z</time>
      </trkpt>
      <trkpt lat="45.55718" lon="2.94892">
        <ele>953</ele>
        <time>2019-04-17T06:10:49Z</time>
      </trkpt>
      <trkpt lat="45.55743" lon="2.94894">
        <ele>948</ele>
        <time>2019-04-17T06:11:49Z</time>
      </trkpt>
      <trkpt lat="45.55764" lon="2.94888">
        <ele>945</ele>
        <time>2019-04-17T06:12:49Z</time>
      </trkpt>
      <trkpt lat="45.55788" lon="2.94858">
        <ele>944</ele>
        <time>2019-04-17T06:13:49Z</time>
      </trkpt>
      <trkpt lat="45.55862" lon="2.94723">
        <ele>939</ele>
        <time>2019-04-17T06:14:49Z</time>
      </trkpt>
      <trkpt lat="45.55882" lon="2.94705">
        <ele>936</ele>
        <time>2019-04-17T06:15:49Z</time>
      </trkpt>
      <trkpt lat="45.55899" lon="2.94699">
        <ele>934</ele>
        <time>2019-04-17T06:16:49Z</time>
      </trkpt>
      <trkpt lat="45.55916" lon="2.947">
        <ele>931</ele>
        <time>2019-04-17T06:17:49Z</time>
      </trkpt>
      <trkpt lat="45.55933" lon="2.94712">
        <ele>928</ele>
        <time>2019-04-17T06:18:49Z</time>
      </trkpt>
      <trkpt lat="45.55947" lon="2.94733">
        <ele>925</ele>
        <time>2019-04-17T06:19:49Z</time>
      </trkpt>
      <trkpt lat="45.55955" lon="2.94758">
        <ele>925</ele>
        <time>2019-04-17T06:20:49Z</time>
      </trkpt>
      <trkpt lat="45.55974" lon="2.94895">
        <ele>926</ele>
        <time>2019-04-17T06:21:49Z</time>
      </trkpt>
      <trkpt lat="45.55988" lon="2.94933">
        <ele>926</ele>
        <time>2019-04-17T06:22:49Z</time>
      </trkpt>
      <trkpt lat="45.56013" lon="2.9498">
        <ele>929</ele>
        <time>2019-04-17T06:23:49Z</time>
      </trkpt>
      <trkpt lat="45.5603" lon="2.94999">
        <ele>929</ele>
        <time>2019-04-17T06:24:49Z</time>
      </trkpt>
      <trkpt lat="45.56047" lon="2.95004">
        <ele>928</ele>
        <time>2019-04-17T06:25:49Z</time>
      </trkpt>
      <trkpt lat="45.5607" lon="2.95001">
        <ele>924</ele>
        <time>2019-04-17T06:26:49Z</time>
      </trkpt>
      <trkpt lat="45.56173" lon="2.94945">
        <ele>911</ele>
        <time>2019-04-17T06:27:49Z</time>
      </trkpt>
      <trkpt lat="45.56193" lon="2.9494">
        <ele>907</ele>
        <time>2019-04-17T06:28:49Z</time>
      </trkpt>
      <trkpt lat="45.56215" lon="2.9494">
        <ele>905</ele>
        <time>2019-04-17T06:29:49Z</time>
      </trkpt>
      <trkpt lat="45.56299" lon="2.94956">
        <ele>903</ele>
        <time>2019-04-17T06:30:49Z</time>
      </trkpt>
      <trkpt lat="45.56328" lon="2.94952">
        <ele>900</ele>
        <time>2019-04-17T06:31:49Z</time>
      </trkpt>
      <trkpt lat="45.56348" lon="2.94941">
        <ele>899</ele>
        <time>2019-04-17T06:32:49Z</time>
      </trkpt>
      <trkpt lat="45.56366" lon="2.94925">
        <ele>897</ele>
        <time>2019-04-17T06:33:49Z</time>
      </trkpt>
      <trkpt lat="45.56456" lon="2.9483">
        <ele>885</ele>
        <time>2019-04-17T06:34:49Z</time>
      </trkpt>
      <trkpt lat="45.56479" lon="2.94814">
        <ele>883</ele>
        <time>2019-04-17T06:35:49Z</time>
      </trkpt>
      <trkpt lat="45.56507" lon="2.94808">
        <ele>882</ele>
        <time>2019-04-17T06:36:49Z</time>
      </trkpt>
      <trkpt lat="45.56535" lon="2.94813">
        <ele>879</ele>
        <time>2019-04-17T06:37:49Z</time>
      </trkpt>
      <trkpt lat="45.56704" lon="2.94896">
        <ele>866</ele>
        <time>2019-04-17T06:38:49Z</time>
      </trkpt>
      <trkpt lat="45.56724" lon="2.94901">
        <ele>863</ele>
        <time>2019-04-17T06:39:49Z</time>
      </trkpt>
      <trkpt lat="45.56759" lon="2.94894">
        <ele>855</ele>
        <time>2019-04-17T06:40:49Z</time>
      </trkpt>
      <trkpt lat="45.56772" lon="2.94886">
        <ele>853</ele>
        <time>2019-04-17T06:41:49Z</time>
      </trkpt>
      <trkpt lat="45.56799" lon="2.94858">
        <ele>848</ele>
        <time>2019-04-17T06:42:49Z</time>
      </trkpt>
      <trkpt lat="45.56971" lon="2.94616">
        <ele>851</ele>
        <time>2019-04-17T06:43:49Z</time>
      </trkpt>
      <trkpt lat="45.57012" lon="2.94576">
        <ele>849</ele>
        <time>2019-04-17T06:44:49Z</time>
      </trkpt>
      <trkpt lat="45.57052" lon="2.94551">
        <ele>848</ele>
        <time>2019-04-17T06:45:49Z</time>
      </trkpt>
      <trkpt lat="45.57093" lon="2.94536">
        <ele>849</ele>
        <time>2019-04-17T06:46:49Z</time>
      </trkpt>
      <trkpt lat="45.57112" lon="2.94533">
        <ele>850</ele>
        <time>2019-04-17T06:47:49Z</time>
      </trkpt>
      <trkpt lat="45.5718" lon="2.94526">
        <ele>853</ele>
        <time>2019-04-17T06:48:49Z</time>
      </trkpt>
      <trkpt lat="45.57216" lon="2.94515">
        <ele>849</ele>
        <time>2019-04-17T06:49:49Z</time>
      </trkpt>
      <trkpt lat="45.57235" lon="2.94508">
        <ele>847</ele>
        <time>2019-04-17T06:50:49Z</time>
      </trkpt>
      <trkpt lat="45.57234" lon="2.94267">
        <ele>851</ele>
        <time>2019-04-17T06:51:49Z</time>
      </trkpt>
      <trkpt lat="45.57236" lon="2.94243">
        <ele>850</ele>
        <time>2019-04-17T06:52:49Z</time>
      </trkpt>
      <trkpt lat="45.57243" lon="2.94214">
        <ele>850</ele>
        <time>2019-04-17T06:53:49Z</time>
      </trkpt>
      <trkpt lat="45.57248" lon="2.942">
        <ele>849</ele>
        <time>2019-04-17T06:54:49Z</time>
      </trkpt>
      <trkpt lat="45.57315" lon="2.94038">
        <ele>858</ele>
        <time>2019-04-17T06:55:49Z</time>
      </trkpt>
      <trkpt lat="45.57323" lon="2.94022">
        <ele>861</ele>
        <time>2019-04-17T06:56:49Z</time>
      </trkpt>
      <trkpt lat="45.57331" lon="2.94013">
        <ele>862</ele>
        <time>2019-04-17T06:57:49Z</time>
      </trkpt>
      <trkpt lat="45.57404" lon="2.9397">
        <ele>855</ele>
        <time>2019-04-17T06:58:49Z</time>
      </trkpt>
      <trkpt lat="45.57455" lon="2.93932">
        <ele>853</ele>
        <time>2019-04-17T06:59:49Z</time>
      </trkpt>
      <trkpt lat="45.57457" lon="2.93931">
        <ele>853</ele>
        <time>2019-04-17T07:00:49Z</time>
      </trkpt>
      <trkpt lat="45.5746" lon="2.93938">
        <ele>851</ele>
        <time>2019-04-17T07:01:49Z</time>
      </trkpt>
      <trkpt lat="45.57463" lon="2.93939">
        <ele>850</ele>
        <time>2019-04-17T07:02:49Z</time>
      </trkpt>
      <trkpt lat="45.57472" lon="2.93927">
        <ele>850</ele>
        <time>2019-04-17T07:03:49Z</time>
      </trkpt>
      <trkpt lat="45.57474" lon="2.93927">
        <ele>849</ele>
        <time>2019-04-17T07:04:49Z</time>
      </trkpt>
      <trkpt lat="45.57477" lon="2.93921">
        <ele>849</ele>
        <time>2019-04-17T07:05:49Z</time>
      </trkpt>
      <trkpt lat="45.57474" lon="2.93889">
        <ele>858</ele>
        <time>2019-04-17T07:06:49Z</time>
      </trkpt>
      <trkpt lat="45.57474" lon="2.93873">
        <ele>862</ele>
        <time>2019-04-17T07:07:49Z</time>
      </trkpt>
      <trkpt lat="45.57477" lon="2.93853">
        <ele>865</ele>
        <time>2019-04-17T07:08:49Z</time>
      </trkpt>
      <trkpt lat="45.57481" lon="2.93839">
        <ele>866</ele>
        <time>2019-04-17T07:09:49Z</time>
      </trkpt>
      <trkpt lat="45.57497" lon="2.93815">
        <ele>864</ele>
        <time>2019-04-17T07:10:49Z</time>
      </trkpt>
      <trkpt lat="45.5751" lon="2.93802">
        <ele>866</ele>
        <time>2019-04-17T07:11:49Z</time>
      </trkpt>
      <trkpt lat="45.5753" lon="2.93789">
        <ele>866</ele>
        <time>2019-04-17T07:12:49Z</time>
      </trkpt>
      <trkpt lat="45.57537" lon="2.93781">
        <ele>865</ele>
        <time>2019-04-17T07:13:49Z</time>
      </trkpt>
      <trkpt lat="45.57543" lon="2.93769">
        <ele>866</ele>
        <time>2019-04-17T07:14:49Z</time>
      </trkpt>
      <trkpt lat="45.5755" lon="2.93748">
        <ele>865</ele>
        <time>2019-04-17T07:15:49Z</time>
      </trkpt>
      <trkpt lat="45.57566" lon="2.9365">
        <ele>863</ele>
        <time>2019-04-17T07:16:49Z</time>
      </trkpt>
      <trkpt lat="45.57565" lon="2.93613">
        <ele>863</ele>
        <time>2019-04-17T07:17:49Z</time>
      </trkpt>
      <trkpt lat="45.5754" lon="2.93516">
        <ele>872</ele>
        <time>2019-04-17T07:18:49Z</time>
      </trkpt>
      <trkpt lat="45.57538" lon="2.93479">
        <ele>871</ele>
        <time>2019-04-17T07:19:49Z</time>
      </trkpt>
      <trkpt lat="45.57543" lon="2.93454">
        <ele>868</ele>
        <time>2019-04-17T07:20:49Z</time>
      </trkpt>
      <trkpt lat="45.57553" lon="2.93424">
        <ele>864</ele>
        <time>2019-04-17T07:21:49Z</time>
      </trkpt>
      <trkpt lat="45.57593" lon="2.93344">
        <ele>857</ele>
        <time>2019-04-17T07:22:49Z</time>
      </trkpt>
      <trkpt lat="45.57598" lon="2.93318">
        <ele>857</ele>
        <time>2019-04-17T07:23:49Z</time>
      </trkpt>
      <trkpt lat="45.576" lon="2.93292">
        <ele>858</ele>
        <time>2019-04-17T07:24:49Z</time>
      </trkpt>
      <trkpt lat="45.57597" lon="2.93117">
        <ele>866</ele>
        <time>2019-04-17T07:25:49Z</time>
      </trkpt>
      <trkpt lat="45.57599" lon="2.93102">
        <ele>867</ele>
        <time>2019-04-17T07:26:49Z</time>
      </trkpt>
      <trkpt lat="45.57606" lon="2.93083">
        <ele>870</ele>
        <time>2019-04-17T07:27:49Z</time>
      </trkpt>
      <trkpt lat="45.5762" lon="2.93072">
        <ele>874</ele>
        <time>2019-04-17T07:28:49Z</time>
      </trkpt>
      <trkpt lat="45.57627" lon="2.93071">
        <ele>875</ele>
        <time>2019-04-17T07:29:49Z</time>
      </trkpt>
      <trkpt lat="45.57632" lon="2.93064">
        <ele>878</ele>
        <time>2019-04-17T07:30:49Z</time>
      </trkpt>
      <trkpt lat="45.57633" lon="2.93058">
        <ele>879</ele>
        <time>2019-04-17T07:31:49Z</time>
      </trkpt>
      <trkpt lat="45.5763" lon="2.93048">
        <ele>880</ele>
        <time>2019-04-17T07:32:49Z</time>
      </trkpt>
      <trkpt lat="45.57623" lon="2.93044">
        <ele>879</ele>
        <time>2019-04-17T07:33:49Z</time>
      </trkpt>
      <trkpt lat="45.57615" lon="2.93036">
        <ele>878</ele>
        <time>2019-04-17T07:34:49Z</time>
      </trkpt>
      <trkpt lat="45.576" lon="2.93016">
        <ele>877</ele>
        <time>2019-04-17T07:35:49Z</time>
      </trkpt>
      <trkpt lat="45.57583" lon="2.92985">
        <ele>876</ele>
        <time>2019-04-17T07:36:49Z</time>
      </trkpt>
      <trkpt lat="45.57576" lon="2.92967">
        <ele>877</ele>
        <time>2019-04-17T07:37:49Z</time>
      </trkpt>
      <trkpt lat="45.5756" lon="2.92906">
        <ele>882</ele>
        <time>2019-04-17T07:38:49Z</time>
      </trkpt>
      <trkpt lat="45.57533" lon="2.92843">
        <ele>885</ele>
        <time>2019-04-17T07:39:49Z</time>
      </trkpt>
      <trkpt lat="45.57526" lon="2.92832">
        <ele>886</ele>
        <time>2019-04-17T07:40:49Z</time>
      </trkpt>
      <trkpt lat="45.57507" lon="2.92817">
        <ele>885</ele>
        <time>2019-04-17T07:41:49Z</time>
      </trkpt>
      <trkpt lat="45.57481" lon="2.92808">
        <ele>884</ele>
        <time>2019-04-17T07:42:49Z</time>
      </trkpt>
      <trkpt lat="45.57463" lon="2.92796">
        <ele>885</ele>
        <time>2019-04-17T07:43:49Z</time>
      </trkpt>
      <trkpt lat="45.57457" lon="2.92784">
        <ele>886</ele>
        <time>2019-04-17T07:44:49Z</time>
      </trkpt>
      <trkpt lat="45.57438" lon="2.92771">
        <ele>886</ele>
        <time>2019-04-17T07:45:49Z</time>
      </trkpt>
      <trkpt lat="45.5743" lon="2.92762">
        <ele>886</ele>
        <time>2019-04-17T07:46:49Z</time>
      </trkpt>
      <trkpt lat="45.57417" lon="2.92744">
        <ele>885</ele>
        <time>2019-04-17T07:47:49Z</time>
      </trkpt>
      <trkpt lat="45.57378" lon="2.92706">
        <ele>884</ele>
        <time>2019-04-17T07:48:49Z</time>
      </trkpt>
      <trkpt lat="45.57366" lon="2.92683">
        <ele>884</ele>
        <time>2019-04-17T07:49:49Z</time>
      </trkpt>
      <trkpt lat="45.5736" lon="2.92647">
        <ele>884</ele>
        <time>2019-04-17T07:50:49Z</time>
      </trkpt>
      <trkpt lat="45.57356" lon="2.92604">
        <ele>883</ele>
        <time>2019-04-17T07:51:49Z</time>
      </trkpt>
      <trkpt lat="45.57367" lon="2.92445">
        <ele>882</ele>
        <time>2019-04-17T07:52:49Z</time>
      </trkpt>
      <trkpt lat="45.57366" lon="2.92321">
        <ele>881</ele>
        <time>2019-04-17T07:53:49Z</time>
      </trkpt>
      <trkpt lat="45.5736" lon="2.9228">
        <ele>883</ele>
        <time>2019-04-17T07:54:49Z</time>
      </trkpt>
      <trkpt lat="45.57345" lon="2.92228">
        <ele>884</ele>
        <time>2019-04-17T07:55:49Z</time>
      </trkpt>
      <trkpt lat="45.57331" lon="2.92164">
        <ele>884</ele>
        <time>2019-04-17T07:56:49Z</time>
      </trkpt>
      <trkpt lat="45.57327" lon="2.92136">
        <ele>884</ele>
        <time>2019-04-17T07:57:49Z</time>
      </trkpt>
      <trkpt lat="45.57325" lon="2.92085">
        <ele>884</ele>
        <time>2019-04-17T07:58:49Z</time>
      </trkpt>
      <trkpt lat="45.57326" lon="2.92045">
        <ele>881</ele>
        <time>2019-04-17T07:59:49Z</time>
      </trkpt>
      <trkpt lat="45.57327" lon="2.92028">
        <ele>880</ele>
        <time>2019-04-17T08:00:49Z</time>
      </trkpt>
      <trkpt lat="45.57333" lon="2.92001">
        <ele>879</ele>
        <time>2019-04-17T08:01:49Z</time>
      </trkpt>
      <trkpt lat="45.57386" lon="2.91889">
        <ele>879</ele>
        <time>2019-04-17T08:02:49Z</time>
      </trkpt>
      <trkpt lat="45.57401" lon="2.91866">
        <ele>879</ele>
        <time>2019-04-17T08:03:49Z</time>
      </trkpt>
      <trkpt lat="45.57457" lon="2.91794">
        <ele>880</ele>
        <time>2019-04-17T08:04:49Z</time>
      </trkpt>
      <trkpt lat="45.57498" lon="2.91735">
        <ele>880</ele>
        <time>2019-04-17T08:05:49Z</time>
      </trkpt>
      <trkpt lat="45.57527" lon="2.9169">
        <ele>882</ele>
        <time>2019-04-17T08:06:49Z</time>
      </trkpt>
      <trkpt lat="45.57543" lon="2.91663">
        <ele>882</ele>
        <time>2019-04-17T08:07:49Z</time>
      </trkpt>
      <trkpt lat="45.57551" lon="2.91643">
        <ele>883</ele>
        <time>2019-04-17T08:08:49Z</time>
      </trkpt>
      <trkpt lat="45.57566" lon="2.91591">
        <ele>883</ele>
        <time>2019-04-17T08:09:49Z</time>
      </trkpt>
      <trkpt lat="45.57572" lon="2.91566">
        <ele>883</ele>
        <time>2019-04-17T08:10:49Z</time>
      </trkpt>
      <trkpt lat="45.57572" lon="2.91528">
        <ele>884</ele>
        <time>2019-04-17T08:11:49Z</time>
      </trkpt>
      <trkpt lat="45.57565" lon="2.91379">
        <ele>887</ele>
        <time>2019-04-17T08:12:49Z</time>
      </trkpt>
      <trkpt lat="45.57563" lon="2.91341">
        <ele>887</ele>
        <time>2019-04-17T08:13:49Z</time>
      </trkpt>
      <trkpt lat="45.57558" lon="2.91304">
        <ele>886</ele>
        <time>2019-04-17T08:14:49Z</time>
      </trkpt>
      <trkpt lat="45.57552" lon="2.91284">
        <ele>886</ele>
        <time>2019-04-17T08:15:49Z</time>
      </trkpt>
      <trkpt lat="45.5753" lon="2.91229">
        <ele>885</ele>
        <time>2019-04-17T08:16:49Z</time>
      </trkpt>
      <trkpt lat="45.57509" lon="2.91136">
        <ele>881</ele>
        <time>2019-04-17T08:17:49Z</time>
      </trkpt>
      <trkpt lat="45.57497" lon="2.91097">
        <ele>879</ele>
        <time>2019-04-17T08:18:49Z</time>
      </trkpt>
      <trkpt lat="45.57412" lon="2.90883">
        <ele>880</ele>
        <time>2019-04-17T08:19:49Z</time>
      </trkpt>
      <trkpt lat="45.57363" lon="2.90756">
        <ele>880</ele>
        <time>2019-04-17T08:20:49Z</time>
      </trkpt>
      <trkpt lat="45.57345" lon="2.90722">
        <ele>881</ele>
        <time>2019-04-17T08:21:49Z</time>
      </trkpt>
      <trkpt lat="45.57324" lon="2.90692">
        <ele>881</ele>
        <time>2019-04-17T08:22:49Z</time>
      </trkpt>
      <trkpt lat="45.57301" lon="2.90663">
        <ele>884</ele>
        <time>2019-04-17T08:23:49Z</time>
      </trkpt>
      <trkpt lat="45.57249" lon="2.90607">
        <ele>889</ele>
        <time>2019-04-17T08:24:49Z</time>
      </trkpt>
      <trkpt lat="45.57114" lon="2.90394">
        <ele>888</ele>
        <time>2019-04-17T08:25:49Z</time>
      </trkpt>
      <trkpt lat="45.57093" lon="2.90357">
        <ele>887</ele>
        <time>2019-04-17T08:26:49Z</time>
      </trkpt>
      <trkpt lat="45.57085" lon="2.90333">
        <ele>886</ele>
        <time>2019-04-17T08:27:49Z</time>
      </trkpt>
      <trkpt lat="45.57057" lon="2.90187">
        <ele>890</ele>
        <time>2019-04-17T08:28:49Z</time>
      </trkpt>
      <trkpt lat="45.57053" lon="2.90153">
        <ele>890</ele>
        <time>2019-04-17T08:29:49Z</time>
      </trkpt>
      <trkpt lat="45.57054" lon="2.90109">
        <ele>888</ele>
        <time>2019-04-17T08:30:49Z</time>
      </trkpt>
      <trkpt lat="45.57073" lon="2.9001">
        <ele>889</ele>
        <time>2019-04-17T08:31:49Z</time>
      </trkpt>
      <trkpt lat="45.57081" lon="2.89992">
        <ele>889</ele>
        <time>2019-04-17T08:32:49Z</time>
      </trkpt>
      <trkpt lat="45.57095" lon="2.89965">
        <ele>891</ele>
        <time>2019-04-17T08:33:49Z</time>
      </trkpt>
      <trkpt lat="45.57093" lon="2.8996">
        <ele>891</ele>
        <time>2019-04-17T08:34:49Z</time>
      </trkpt>
      <trkpt lat="45.57103" lon="2.89959">
        <ele>892</ele>
        <time>2019-04-17T08:35:49Z</time>
      </trkpt>
      <trkpt lat="45.57114" lon="2.89942">
        <ele>893</ele>
        <time>2019-04-17T08:36:49Z</time>
      </trkpt>
      <trkpt lat="45.5714" lon="2.89912">
        <ele>895</ele>
        <time>2019-04-17T08:37:49Z</time>
      </trkpt>
      <trkpt lat="45.57143" lon="2.89904">
        <ele>895</ele>
        <time>2019-04-17T08:38:49Z</time>
      </trkpt>
      <trkpt lat="45.57234" lon="2.89838">
        <ele>904</ele>
        <time>2019-04-17T08:39:49Z</time>
      </trkpt>
      <trkpt lat="45.57265" lon="2.89819">
        <ele>909</ele>
        <time>2019-04-17T08:40:49Z</time>
      </trkpt>
      <trkpt lat="45.57281" lon="2.89806">
        <ele>913</ele>
        <time>2019-04-17T08:41:49Z</time>
      </trkpt>
      <trkpt lat="45.57315" lon="2.89766">
        <ele>915</ele>
        <time>2019-04-17T08:42:49Z</time>
      </trkpt>
      <trkpt lat="45.57329" lon="2.89745">
        <ele>914</ele>
        <time>2019-04-17T08:43:49Z</time>
      </trkpt>
      <trkpt lat="45.57343" lon="2.8972">
        <ele>916</ele>
        <time>2019-04-17T08:44:49Z</time>
      </trkpt>
      <trkpt lat="45.57356" lon="2.89694">
        <ele>917</ele>
        <time>2019-04-17T08:45:49Z</time>
      </trkpt>
      <trkpt lat="45.57377" lon="2.89642">
        <ele>923</ele>
        <time>2019-04-17T08:46:49Z</time>
      </trkpt>
      <trkpt lat="45.57386" lon="2.89608">
        <ele>929</ele>
        <time>2019-04-17T08:47:49Z</time>
      </trkpt>
      <trkpt lat="45.57396" lon="2.89562">
        <ele>938</ele>
        <time>2019-04-17T08:48:49Z</time>
      </trkpt>
      <trkpt lat="45.574" lon="2.89494">
        <ele>947</ele>
        <time>2019-04-17T08:49:49Z</time>
      </trkpt>
      <trkpt lat="45.574" lon="2.8945">
        <ele>949</ele>
        <time>2019-04-17T08:50:49Z</time>
      </trkpt>
      <trkpt lat="45.57391" lon="2.89367">
        <ele>950</ele>
        <time>2019-04-17T08:51:49Z</time>
      </trkpt>
      <trkpt lat="45.57392" lon="2.89275">
        <ele>960</ele>
        <time>2019-04-17T08:52:49Z</time>
      </trkpt>
      <trkpt lat="45.57384" lon="2.89218">
        <ele>962</ele>
        <time>2019-04-17T08:53:49Z</time>
      </trkpt>
      <trkpt lat="45.57385" lon="2.89194">
        <ele>963</ele>
        <time>2019-04-17T08:54:49Z</time>
      </trkpt>
      <trkpt lat="45.57388" lon="2.8916">
        <ele>963</ele>
        <time>2019-04-17T08:55:49Z</time>
      </trkpt>
      <trkpt lat="45.57389" lon="2.88951">
        <ele>971</ele>
        <time>2019-04-17T08:56:49Z</time>
      </trkpt>
      <trkpt lat="45.57395" lon="2.88855">
        <ele>975</ele>
        <time>2019-04-17T08:57:49Z</time>
      </trkpt>
      <trkpt lat="45.57396" lon="2.8882">
        <ele>977</ele>
        <time>2019-04-17T08:58:49Z</time>
      </trkpt>
      <trkpt lat="45.57391" lon="2.88757">
        <ele>979</ele>
        <time>2019-04-17T08:59:49Z</time>
      </trkpt>
      <trkpt lat="45.5739" lon="2.88725">
        <ele>979</ele>
        <time>2019-04-17T09:00:49Z</time>
      </trkpt>
      <trkpt lat="45.57394" lon="2.88694">
        <ele>979</ele>
        <time>2019-04-17T09:01:49Z</time>
      </trkpt>
      <trkpt lat="45.57405" lon="2.88643">
        <ele>978</ele>
        <time>2019-04-17T09:02:49Z</time>
      </trkpt>
      <trkpt lat="45.57407" lon="2.88622">
        <ele>977</ele>
        <time>2019-04-17T09:03:49Z</time>
      </trkpt>
      <trkpt lat="45.57407" lon="2.88601">
        <ele>976</ele>
        <time>2019-04-17T09:04:49Z</time>
      </trkpt>
      <trkpt lat="45.574" lon="2.88581">
        <ele>976</ele>
        <time>2019-04-17T09:05:49Z</time>
      </trkpt>
      <trkpt lat="45.57391" lon="2.88563">
        <ele>978</ele>
        <time>2019-04-17T09:06:49Z</time>
      </trkpt>
      <trkpt lat="45.57365" lon="2.8853">
        <ele>982</ele>
        <time>2019-04-17T09:07:49Z</time>
      </trkpt>
      <trkpt lat="45.57352" lon="2.88506">
        <ele>983</ele>
        <time>2019-04-17T09:08:49Z</time>
      </trkpt>
      <trkpt lat="45.57345" lon="2.88482">
        <ele>984</ele>
        <time>2019-04-17T09:09:49Z</time>
      </trkpt>
      <trkpt lat="45.57329" lon="2.88415">
        <ele>988</ele>
        <time>2019-04-17T09:10:49Z</time>
      </trkpt>
      <trkpt lat="45.57316" lon="2.88372">
        <ele>994</ele>
        <time>2019-04-17T09:11:49Z</time>
      </trkpt>
      <trkpt lat="45.57315" lon="2.88351">
        <ele>994</ele>
        <time>2019-04-17T09:12:49Z</time>
      </trkpt>
      <trkpt lat="45.57321" lon="2.88312">
        <ele>995</ele>
        <time>2019-04-17T09:13:49Z</time>
      </trkpt>
      <trkpt lat="45.57321" lon="2.88291">
        <ele>998</ele>
        <time>2019-04-17T09:14:49Z</time>
      </trkpt>
      <trkpt lat="45.57317" lon="2.88269">
        <ele>1001</ele>
        <time>2019-04-17T09:15:49Z</time>
      </trkpt>
      <trkpt lat="45.57293" lon="2.88222">
        <ele>1008</ele>
        <time>2019-04-17T09:16:49Z</time>
      </trkpt>
      <trkpt lat="45.57279" lon="2.88184">
        <ele>1010</ele>
        <time>2019-04-17T09:17:49Z</time>
      </trkpt>
      <trkpt lat="45.57241" lon="2.8812">
        <ele>1012</ele>
        <time>2019-04-17T09:18:49Z</time>
      </trkpt>
      <trkpt lat="45.57228" lon="2.8809">
        <ele>1016</ele>
        <time>2019-04-17T09:19:49Z</time>
      </trkpt>
      <trkpt lat="45.57214" lon="2.88067">
        <ele>1020</ele>
        <time>2019-04-17T09:20:49Z</time>
      </trkpt>
      <trkpt lat="45.57186" lon="2.88032">
        <ele>1025</ele>
        <time>2019-04-17T09:21:49Z</time>
      </trkpt>
      <trkpt lat="45.57182" lon="2.88022">
        <ele>1025</ele>
        <time>2019-04-17T09:22:49Z</time>
      </trkpt>
      <trkpt lat="45.5718" lon="2.88012">
        <ele>1025</ele>
        <time>2019-04-17T09:23:49Z</time>
      </trkpt>
      <trkpt lat="45.57183" lon="2.88">
        <ele>1024</ele>
        <time>2019-04-17T09:24:49Z</time>
      </trkpt>
      <trkpt lat="45.57192" lon="2.8799">
        <ele>1024</ele>
        <time>2019-04-17T09:25:49Z</time>
      </trkpt>
      <trkpt lat="45.57201" lon="2.87988">
        <ele>1024</ele>
        <time>2019-04-17T09:26:49Z</time>
      </trkpt>
      <trkpt lat="45.57212" lon="2.87998">
        <ele>1022</ele>
        <time>2019-04-17T09:27:49Z</time>
      </trkpt>
      <trkpt lat="45.5722" lon="2.88011">
        <ele>1021</ele>
        <time>2019-04-17T09:28:49Z</time>
      </trkpt>
      <trkpt lat="45.57229" lon="2.88032">
        <ele>1019</ele>
        <time>2019-04-17T09:29:49Z</time>
      </trkpt>
      <trkpt lat="45.57237" lon="2.88064">
        <ele>1015</ele>
        <time>2019-04-17T09:30:49Z</time>
      </trkpt>
      <trkpt lat="45.57253" lon="2.88108">
        <ele>1010</ele>
        <time>2019-04-17T09:31:49Z</time>
      </trkpt>
      <trkpt lat="45.57262" lon="2.88123">
        <ele>1011</ele>
        <time>2019-04-17T09:32:49Z</time>
      </trkpt>
      <trkpt lat="45.57292" lon="2.88151">
        <ele>1014</ele>
        <time>2019-04-17T09:33:49Z</time>
      </trkpt>
      <trkpt lat="45.57316" lon="2.88179">
        <ele>1014</ele>
        <time>2019-04-17T09:34:49Z</time>
      </trkpt>
      <trkpt lat="45.57346" lon="2.88207">
        <ele>1013</ele>
        <time>2019-04-17T09:35:49Z</time>
      </trkpt>
      <trkpt lat="45.57361" lon="2.88216">
        <ele>1014</ele>
        <time>2019-04-17T09:36:49Z</time>
      </trkpt>
      <trkpt lat="45.57373" lon="2.88221">
        <ele>1016</ele>
        <time>2019-04-17T09:37:49Z</time>
      </trkpt>
      <trkpt lat="45.574" lon="2.88225">
        <ele>1021</ele>
        <time>2019-04-17T09:38:49Z</time>
      </trkpt>
      <trkpt lat="45.57411" lon="2.88233">
        <ele>1022</ele>
        <time>2019-04-17T09:39:49Z</time>
      </trkpt>
      <trkpt lat="45.57427" lon="2.88256">
        <ele>1023</ele>
        <time>2019-04-17T09:40:49Z</time>
      </trkpt>
      <trkpt lat="45.57451" lon="2.88285">
        <ele>1028</ele>
        <time>2019-04-17T09:41:49Z</time>
      </trkpt>
      <trkpt lat="45.5746" lon="2.88306">
        <ele>1029</ele>
        <time>2019-04-17T09:42:49Z</time>
      </trkpt>
      <trkpt lat="45.57483" lon="2.88386">
        <ele>1028</ele>
        <time>2019-04-17T09:43:49Z</time>
      </trkpt>
      <trkpt lat="45.57499" lon="2.88438">
        <ele>1025</ele>
        <time>2019-04-17T09:44:49Z</time>
      </trkpt>
      <trkpt lat="45.5751" lon="2.88465">
        <ele>1023</ele>
        <time>2019-04-17T09:45:49Z</time>
      </trkpt>
      <trkpt lat="45.57521" lon="2.88481">
        <ele>1022</ele>
        <time>2019-04-17T09:46:49Z</time>
      </trkpt>
      <trkpt lat="45.57532" lon="2.88491">
        <ele>1023</ele>
        <time>2019-04-17T09:47:49Z</time>
      </trkpt>
      <trkpt lat="45.57546" lon="2.88498">
        <ele>1025</ele>
        <time>2019-04-17T09:48:49Z</time>
      </trkpt>
      <trkpt lat="45.576" lon="2.88514">
        <ele>1034</ele>
        <time>2019-04-17T09:49:49Z</time>
      </trkpt>
      <trkpt lat="45.57625" lon="2.88516">
        <ele>1037</ele>
        <time>2019-04-17T09:50:49Z</time>
      </trkpt>
      <trkpt lat="45.57639" lon="2.88509">
        <ele>1038</ele>
        <time>2019-04-17T09:51:49Z</time>
      </trkpt>
      <trkpt lat="45.57651" lon="2.88491">
        <ele>1041</ele>
        <time>2019-04-17T09:52:49Z</time>
      </trkpt>
      <trkpt lat="45.57683" lon="2.88462">
        <ele>1051</ele>
        <time>2019-04-17T09:53:49Z</time>
      </trkpt>
      <trkpt lat="45.57689" lon="2.88454">
        <ele>1053</ele>
        <time>2019-04-17T09:54:49Z</time>
      </trkpt>
      <trkpt lat="45.57698" lon="2.88425">
        <ele>1059</ele>
        <time>2019-04-17T09:55:49Z</time>
      </trkpt>
      <trkpt lat="45.57714" lon="2.88403">
        <ele>1060</ele>
        <time>2019-04-17T09:56:49Z</time>
      </trkpt>
      <trkpt lat="45.5772" lon="2.88386">
        <ele>1060</ele>
        <time>2019-04-17T09:57:49Z</time>
      </trkpt>
      <trkpt lat="45.57721" lon="2.8837">
        <ele>1060</ele>
        <time>2019-04-17T09:58:49Z</time>
      </trkpt>
      <trkpt lat="45.57719" lon="2.8835">
        <ele>1061</ele>
        <time>2019-04-17T09:59:49Z</time>
      </trkpt>
      <trkpt lat="45.57712" lon="2.88318">
        <ele>1063</ele>
        <time>2019-04-17T10:00:49Z</time>
      </trkpt>
      <trkpt lat="45.57713" lon="2.88293">
        <ele>1063</ele>
        <time>2019-04-17T10:01:49Z</time>
      </trkpt>
      <trkpt lat="45.5774" lon="2.88187">
        <ele>1061</ele>
        <time>2019-04-17T10:02:49Z</time>
      </trkpt>
      <trkpt lat="45.57748" lon="2.88168">
        <ele>1060</ele>
        <time>2019-04-17T10:03:49Z</time>
      </trkpt>
      <trkpt lat="45.57765" lon="2.88132">
        <ele>1063</ele>
        <time>2019-04-17T10:04:49Z</time>
      </trkpt>
      <trkpt lat="45.57775" lon="2.88103">
        <ele>1065</ele>
        <time>2019-04-17T10:05:49Z</time>
      </trkpt>
      <trkpt lat="45.5778" lon="2.88094">
        <ele>1065</ele>
        <time>2019-04-17T10:06:49Z</time>
      </trkpt>
      <trkpt lat="45.57788" lon="2.88088">
        <ele>1065</ele>
        <time>2019-04-17T10:07:49Z</time>
      </trkpt>
      <trkpt lat="45.57799" lon="2.88087">
        <ele>1066</ele>
        <time>2019-04-17T10:08:49Z</time>
      </trkpt>
      <trkpt lat="45.57816" lon="2.88099">
        <ele>1066</ele>
        <time>2019-04-17T10:09:49Z</time>
      </trkpt>
      <trkpt lat="45.57822" lon="2.8811">
        <ele>1066</ele>
        <time>2019-04-17T10:10:49Z</time>
      </trkpt>
      <trkpt lat="45.57823" lon="2.88133">
        <ele>1067</ele>
        <time>2019-04-17T10:11:49Z</time>
      </trkpt>
      <trkpt lat="45.57822" lon="2.88154">
        <ele>1067</ele>
        <time>2019-04-17T10:12:49Z</time>
      </trkpt>
      <trkpt lat="45.57807" lon="2.88203">
        <ele>1068</ele>
        <time>2019-04-17T10:13:49Z</time>
      </trkpt>
      <trkpt lat="45.57805" lon="2.8822">
        <ele>1068</ele>
        <time>2019-04-17T10:14:49Z</time>
      </trkpt>
      <trkpt lat="45.578" lon="2.88302">
        <ele>1070</ele>
        <time>2019-04-17T10:15:49Z</time>
      </trkpt>
      <trkpt lat="45.57801" lon="2.88334">
        <ele>1071</ele>
        <time>2019-04-17T10:16:49Z</time>
      </trkpt>
      <trkpt lat="45.57801" lon="2.88361">
        <ele>1073</ele>
        <time>2019-04-17T10:17:49Z</time>
      </trkpt>
      <trkpt lat="45.57792" lon="2.88439">
        <ele>1073</ele>
        <time>2019-04-17T10:18:49Z</time>
      </trkpt>
      <trkpt lat="45.57792" lon="2.88463">
        <ele>1072</ele>
        <time>2019-04-17T10:19:49Z</time>
      </trkpt>
      <trkpt lat="45.57794" lon="2.88482">
        <ele>1073</ele>
        <time>2019-04-17T10:20:49Z</time>
      </trkpt>
      <trkpt lat="45.57798" lon="2.88497">
        <ele>1074</ele>
        <time>2019-04-17T10:21:49Z</time>
      </trkpt>
      <trkpt lat="45.57815" lon="2.88537">
        <ele>1079</ele>
        <time>2019-04-17T10:22:49Z</time>
      </trkpt>
      <trkpt lat="45.57828" lon="2.88577">
        <ele>1081</ele>
        <time>2019-04-17T10:23:49Z</time>
      </trkpt>
      <trkpt lat="45.57844" lon="2.88607">
        <ele>1084</ele>
        <time>2019-04-17T10:24:49Z</time>
      </trkpt>
      <trkpt lat="45.5788" lon="2.8866">
        <ele>1088</ele>
        <time>2019-04-17T10:25:49Z</time>
      </trkpt>
      <trkpt lat="45.57918" lon="2.88741">
        <ele>1092</ele>
        <time>2019-04-17T10:26:49Z</time>
      </trkpt>
      <trkpt lat="45.57926" lon="2.88761">
        <ele>1094</ele>
        <time>2019-04-17T10:27:49Z</time>
      </trkpt>
      <trkpt lat="45.5793" lon="2.88788">
        <ele>1097</ele>
        <time>2019-04-17T10:28:49Z</time>
      </trkpt>
      <trkpt lat="45.57931" lon="2.88822">
        <ele>1099</ele>
        <time>2019-04-17T10:29:49Z</time>
      </trkpt>
      <trkpt lat="45.57929" lon="2.88834">
        <ele>1100</ele>
        <time>2019-04-17T10:30:49Z</time>
      </trkpt>
      <trkpt lat="45.57925" lon="2.88845">
        <ele>1100</ele>
        <time>2019-04-17T10:31:49Z</time>
      </trkpt>
      <trkpt lat="45.57916" lon="2.88858">
        <ele>1100</ele>
        <time>2019-04-17T10:32:49Z</time>
      </trkpt>
      <trkpt lat="45.57907" lon="2.88865">
        <ele>1100</ele>
        <time>2019-04-17T10:33:49Z</time>
      </trkpt>
      <trkpt lat="45.57844" lon="2.8889">
        <ele>1100</ele>
        <time>2019-04-17T10:34:49Z</time>
      </trkpt>
      <trkpt lat="45.57827" lon="2.88905">
        <ele>1100</ele>
        <time>2019-04-17T10:35:49Z</time>
      </trkpt>
      <trkpt lat="45.57819" lon="2.88918">
        <ele>1100</ele>
        <time>2019-04-17T10:36:49Z</time>
      </trkpt>
      <trkpt lat="45.57808" lon="2.88946">
        <ele>1101</ele>
        <time>2019-04-17T10:37:49Z</time>
      </trkpt>
      <trkpt lat="45.57806" lon="2.88966">
        <ele>1101</ele>
        <time>2019-04-17T10:38:49Z</time>
      </trkpt>
      <trkpt lat="45.57807" lon="2.88988">
        <ele>1102</ele>
        <time>2019-04-17T10:39:49Z</time>
      </trkpt>
      <trkpt lat="45.57813" lon="2.89005">
        <ele>1103</ele>
        <time>2019-04-17T10:40:49Z</time>
      </trkpt>
      <trkpt lat="45.57822" lon="2.89019">
        <ele>1105</ele>
        <time>2019-04-17T10:41:49Z</time>
      </trkpt>
      <trkpt lat="45.57833" lon="2.89024">
        <ele>1106</ele>
        <time>2019-04-17T10:42:49Z</time>
      </trkpt>
      <trkpt lat="45.57845" lon="2.89025">
        <ele>1107</ele>
        <time>2019-04-17T10:43:49Z</time>
      </trkpt>
      <trkpt lat="45.57858" lon="2.8902">
        <ele>1107</ele>
        <time>2019-04-17T10:44:49Z</time>
      </trkpt>
      <trkpt lat="45.57885" lon="2.89001">
        <ele>1109</ele>
        <time>2019-04-17T10:45:49Z</time>
      </trkpt>
      <trkpt lat="45.57902" lon="2.88993">
        <ele>1109</ele>
        <time>2019-04-17T10:46:49Z</time>
      </trkpt>
      <trkpt lat="45.57921" lon="2.8899">
        <ele>1110</ele>
        <time>2019-04-17T10:47:49Z</time>
      </trkpt>
      <trkpt lat="45.57992" lon="2.89017">
        <ele>1116</ele>
        <time>2019-04-17T10:48:49Z</time>
      </trkpt>
      <trkpt lat="45.58016" lon="2.89022">
        <ele>1118</ele>
        <time>2019-04-17T10:49:49Z</time>
      </trkpt>
      <trkpt lat="45.58033" lon="2.89021">
        <ele>1120</ele>
        <time>2019-04-17T10:50:49Z</time>
      </trkpt>
      <trkpt lat="45.58053" lon="2.89014">
        <ele>1121</ele>
        <time>2019-04-17T10:51:49Z</time>
      </trkpt>
      <trkpt lat="45.58112" lon="2.88982">
        <ele>1125</ele>
        <time>2019-04-17T10:52:49Z</time>
      </trkpt>
      <trkpt lat="45.58128" lon="2.88965">
        <ele>1127</ele>
        <time>2019-04-17T10:53:49Z</time>
      </trkpt>
      <trkpt lat="45.58135" lon="2.88952">
        <ele>1127</ele>
        <time>2019-04-17T10:54:49Z</time>
      </trkpt>
      <trkpt lat="45.5815" lon="2.88906">
        <ele>1128</ele>
        <time>2019-04-17T10:55:49Z</time>
      </trkpt>
      <trkpt lat="45.5816" lon="2.88888">
        <ele>1129</ele>
        <time>2019-04-17T10:56:49Z</time>
      </trkpt>
      <trkpt lat="45.5822" lon="2.88795">
        <ele>1135</ele>
        <time>2019-04-17T10:57:49Z</time>
      </trkpt>
      <trkpt lat="45.58238" lon="2.8877">
        <ele>1136</ele>
        <time>2019-04-17T10:58:49Z</time>
      </trkpt>
      <trkpt lat="45.58247" lon="2.88763">
        <ele>1137</ele>
        <time>2019-04-17T10:59:49Z</time>
      </trkpt>
      <trkpt lat="45.58258" lon="2.88761">
        <ele>1138</ele>
        <time>2019-04-17T11:00:49Z</time>
      </trkpt>
      <trkpt lat="45.58268" lon="2.88765">
        <ele>1139</ele>
        <time>2019-04-17T11:01:49Z</time>
      </trkpt>
      <trkpt lat="45.58282" lon="2.88782">
        <ele>1141</ele>
        <time>2019-04-17T11:02:49Z</time>
      </trkpt>
      <trkpt lat="45.58311" lon="2.88835">
        <ele>1144</ele>
        <time>2019-04-17T11:03:49Z</time>
      </trkpt>
      <trkpt lat="45.58333" lon="2.8887">
        <ele>1146</ele>
        <time>2019-04-17T11:04:49Z</time>
      </trkpt>
      <trkpt lat="45.58399" lon="2.8893">
        <ele>1150</ele>
        <time>2019-04-17T11:05:49Z</time>
      </trkpt>
      <trkpt lat="45.58414" lon="2.88957">
        <ele>1151</ele>
        <time>2019-04-17T11:06:49Z</time>
      </trkpt>
      <trkpt lat="45.58431" lon="2.89001">
        <ele>1153</ele>
        <time>2019-04-17T11:07:49Z</time>
      </trkpt>
      <trkpt lat="45.58441" lon="2.89048">
        <ele>1155</ele>
        <time>2019-04-17T11:08:49Z</time>
      </trkpt>
      <trkpt lat="45.58454" lon="2.89114">
        <ele>1156</ele>
        <time>2019-04-17T11:09:49Z</time>
      </trkpt>
      <trkpt lat="45.58468" lon="2.89151">
        <ele>1157</ele>
        <time>2019-04-17T11:10:49Z</time>
      </trkpt>
      <trkpt lat="45.58482" lon="2.89179">
        <ele>1158</ele>
        <time>2019-04-17T11:11:49Z</time>
      </trkpt>
      <trkpt lat="45.58502" lon="2.89199">
        <ele>1159</ele>
        <time>2019-04-17T11:12:49Z</time>
      </trkpt>
      <trkpt lat="45.58529" lon="2.89213">
        <ele>1161</ele>
        <time>2019-04-17T11:13:49Z</time>
      </trkpt>
      <trkpt lat="45.58554" lon="2.89216">
        <ele>1164</ele>
        <time>2019-04-17T11:14:49Z</time>
      </trkpt>
      <trkpt lat="45.58587" lon="2.89215">
        <ele>1167</ele>
        <time>2019-04-17T11:15:49Z</time>
      </trkpt>
      <trkpt lat="45.586" lon="2.8921">
        <ele>1167</ele>
        <time>2019-04-17T11:16:49Z</time>
      </trkpt>
      <trkpt lat="45.58611" lon="2.89198">
        <ele>1168</ele>
        <time>2019-04-17T11:17:49Z</time>
      </trkpt>
      <trkpt lat="45.58621" lon="2.89167">
        <ele>1170</ele>
        <time>2019-04-17T11:18:49Z</time>
      </trkpt>
      <trkpt lat="45.58643" lon="2.89081">
        <ele>1174</ele>
        <time>2019-04-17T11:19:49Z</time>
      </trkpt>
      <trkpt lat="45.58652" lon="2.8904">
        <ele>1177</ele>
        <time>2019-04-17T11:20:49Z</time>
      </trkpt>
      <trkpt lat="45.58658" lon="2.88977">
        <ele>1181</ele>
        <time>2019-04-17T11:21:49Z</time>
      </trkpt>
      <trkpt lat="45.58672" lon="2.88614">
        <ele>1202</ele>
        <time>2019-04-17T11:22:49Z</time>
      </trkpt>
      <trkpt lat="45.58677" lon="2.88588">
        <ele>1201</ele>
        <time>2019-04-17T11:23:49Z</time>
      </trkpt>
      <trkpt lat="45.58685" lon="2.88564">
        <ele>1200</ele>
        <time>2019-04-17T11:24:49Z</time>
      </trkpt>
      <trkpt lat="45.58718" lon="2.88483">
        <ele>1200</ele>
        <time>2019-04-17T11:25:49Z</time>
      </trkpt>
      <trkpt lat="45.58732" lon="2.88446">
        <ele>1201</ele>
        <time>2019-04-17T11:26:49Z</time>
      </trkpt>
      <trkpt lat="45.58738" lon="2.88423">
        <ele>1202</ele>
        <time>2019-04-17T11:27:49Z</time>
      </trkpt>
      <trkpt lat="45.58757" lon="2.88317">
        <ele>1204</ele>
        <time>2019-04-17T11:28:49Z</time>
      </trkpt>
      <trkpt lat="45.58759" lon="2.88292">
        <ele>1205</ele>
        <time>2019-04-17T11:29:49Z</time>
      </trkpt>
      <trkpt lat="45.58758" lon="2.88268">
        <ele>1205</ele>
        <time>2019-04-17T11:30:49Z</time>
      </trkpt>
      <trkpt lat="45.58754" lon="2.88234">
        <ele>1205</ele>
        <time>2019-04-17T11:31:49Z</time>
      </trkpt>
      <trkpt lat="45.58744" lon="2.88192">
        <ele>1205</ele>
        <time>2019-04-17T11:32:49Z</time>
      </trkpt>
      <trkpt lat="45.58741" lon="2.88162">
        <ele>1206</ele>
        <time>2019-04-17T11:33:49Z</time>
      </trkpt>
      <trkpt lat="45.58753" lon="2.88129">
        <ele>1208</ele>
        <time>2019-04-17T11:34:49Z</time>
      </trkpt>
      <trkpt lat="45.58788" lon="2.88049">
        <ele>1216</ele>
        <time>2019-04-17T11:35:49Z</time>
      </trkpt>
      <trkpt lat="45.58794" lon="2.88022">
        <ele>1218</ele>
        <time>2019-04-17T11:36:49Z</time>
      </trkpt>
      <trkpt lat="45.58794" lon="2.88008">
        <ele>1219</ele>
        <time>2019-04-17T11:37:49Z</time>
      </trkpt>
      <trkpt lat="45.58791" lon="2.87994">
        <ele>1220</ele>
        <time>2019-04-17T11:38:49Z</time>
      </trkpt>
      <trkpt lat="45.58769" lon="2.8793">
        <ele>1223</ele>
        <time>2019-04-17T11:39:49Z</time>
      </trkpt>
      <trkpt lat="45.58766" lon="2.87915">
        <ele>1223</ele>
        <time>2019-04-17T11:40:49Z</time>
      </trkpt>
      <trkpt lat="45.58766" lon="2.87902">
        <ele>1223</ele>
        <time>2019-04-17T11:41:49Z</time>
      </trkpt>
      <trkpt lat="45.58769" lon="2.87888">
        <ele>1223</ele>
        <time>2019-04-17T11:42:49Z</time>
      </trkpt>
      <trkpt lat="45.58776" lon="2.87866">
        <ele>1224</ele>
        <time>2019-04-17T11:43:49Z</time>
      </trkpt>
      <trkpt lat="45.58799" lon="2.87822">
        <ele>1228</ele>
        <time>2019-04-17T11:44:49Z</time>
      </trkpt>
      <trkpt lat="45.58816" lon="2.87795">
        <ele>1229</ele>
        <time>2019-04-17T11:45:49Z</time>
      </trkpt>
      <trkpt lat="45.58864" lon="2.87743">
        <ele>1233</ele>
        <time>2019-04-17T11:46:49Z</time>
      </trkpt>
      <trkpt lat="45.58877" lon="2.87722">
        <ele>1234</ele>
        <time>2019-04-17T11:47:49Z</time>
      </trkpt>
      <trkpt lat="45.58967" lon="2.87555">
        <ele>1242</ele>
        <time>2019-04-17T11:48:49Z</time>
      </trkpt>
      <trkpt lat="45.58976" lon="2.8753">
        <ele>1244</ele>
        <time>2019-04-17T11:49:49Z</time>
      </trkpt>
      <trkpt lat="45.58985" lon="2.87499">
        <ele>1246</ele>
        <time>2019-04-17T11:50:49Z</time>
      </trkpt>
      <trkpt lat="45.59003" lon="2.87416">
        <ele>1250</ele>
        <time>2019-04-17T11:51:49Z</time>
      </trkpt>
      <trkpt lat="45.59007" lon="2.87394">
        <ele>1252</ele>
        <time>2019-04-17T11:52:49Z</time>
      </trkpt>
      <trkpt lat="45.59009" lon="2.87368">
        <ele>1255</ele>
        <time>2019-04-17T11:53:49Z</time>
      </trkpt>
      <trkpt lat="45.5901" lon="2.87318">
        <ele>1259</ele>
        <time>2019-04-17T11:54:49Z</time>
      </trkpt>
      <trkpt lat="45.59005" lon="2.87292">
        <ele>1261</ele>
        <time>2019-04-17T11:55:49Z</time>
      </trkpt>
      <trkpt lat="45.58987" lon="2.87251">
        <ele>1260</ele>
        <time>2019-04-17T11:56:49Z</time>
      </trkpt>
      <trkpt lat="45.58974" lon="2.87205">
        <ele>1259</ele>
        <time>2019-04-17T11:57:49Z</time>
      </trkpt>
      <trkpt lat="45.58971" lon="2.8719">
        <ele>1259</ele>
        <time>2019-04-17T11:58:49Z</time>
      </trkpt>
      <trkpt lat="45.5897" lon="2.87176">
        <ele>1260</ele>
        <time>2019-04-17T11:59:49Z</time>
      </trkpt>
      <trkpt lat="45.58972" lon="2.87163">
        <ele>1262</ele>
        <time>2019-04-17T12:00:49Z</time>
      </trkpt>
      <trkpt lat="45.58986" lon="2.87123">
        <ele>1268</ele>
        <time>2019-04-17T12:01:49Z</time>
      </trkpt>
      <trkpt lat="45.5899" lon="2.871">
        <ele>1271</ele>
        <time>2019-04-17T12:02:49Z</time>
      </trkpt>
      <trkpt lat="45.58992" lon="2.87065">
        <ele>1273</ele>
        <time>2019-04-17T12:03:49Z</time>
      </trkpt>
      <trkpt lat="45.58991" lon="2.87017">
        <ele>1275</ele>
        <time>2019-04-17T12:04:49Z</time>
      </trkpt>
      <trkpt lat="45.58984" lon="2.86958">
        <ele>1276</ele>
        <time>2019-04-17T12:05:49Z</time>
      </trkpt>
      <trkpt lat="45.58981" lon="2.86923">
        <ele>1277</ele>
        <time>2019-04-17T12:06:49Z</time>
      </trkpt>
      <trkpt lat="45.58982" lon="2.86893">
        <ele>1278</ele>
        <time>2019-04-17T12:07:49Z</time>
      </trkpt>
      <trkpt lat="45.58987" lon="2.86851">
        <ele>1283</ele>
        <time>2019-04-17T12:08:49Z</time>
      </trkpt>
      <trkpt lat="45.5899" lon="2.86797">
        <ele>1283</ele>
        <time>2019-04-17T12:09:49Z</time>
      </trkpt>
      <trkpt lat="45.58994" lon="2.86774">
        <ele>1284</ele>
        <time>2019-04-17T12:10:49Z</time>
      </trkpt>
      <trkpt lat="45.59026" lon="2.86669">
        <ele>1295</ele>
        <time>2019-04-17T12:11:49Z</time>
      </trkpt>
      <trkpt lat="45.59031" lon="2.86647">
        <ele>1298</ele>
        <time>2019-04-17T12:12:49Z</time>
      </trkpt>
      <trkpt lat="45.59043" lon="2.86559">
        <ele>1300</ele>
        <time>2019-04-17T12:13:49Z</time>
      </trkpt>
      <trkpt lat="45.5906" lon="2.86468">
        <ele>1301</ele>
        <time>2019-04-17T12:14:49Z</time>
      </trkpt>
      <trkpt lat="45.59072" lon="2.86431">
        <ele>1303</ele>
        <time>2019-04-17T12:15:49Z</time>
      </trkpt>
      <trkpt lat="45.59086" lon="2.86398">
        <ele>1304</ele>
        <time>2019-04-17T12:16:49Z</time>
      </trkpt>
      <trkpt lat="45.59104" lon="2.86368">
        <ele>1305</ele>
        <time>2019-04-17T12:17:49Z</time>
      </trkpt>
      <trkpt lat="45.59139" lon="2.86319">
        <ele>1305</ele>
        <time>2019-04-17T12:18:49Z</time>
      </trkpt>
      <trkpt lat="45.59153" lon="2.86309">
        <ele>1307</ele>
        <time>2019-04-17T12:19:49Z</time>
      </trkpt>
      <trkpt lat="45.59204" lon="2.86294">
        <ele>1316</ele>
        <time>2019-04-17T12:20:49Z</time>
      </trkpt>
      <trkpt lat="45.5933" lon="2.86223">
        <ele>1324</ele>
        <time>2019-04-17T12:21:49Z</time>
      </trkpt>
      <trkpt lat="45.59343" lon="2.86219">
        <ele>1327</ele>
        <time>2019-04-17T12:22:49Z</time>
      </trkpt>
      <trkpt lat="45.59364" lon="2.86215">
        <ele>1333</ele>
        <time>2019-04-17T12:23:49Z</time>
      </trkpt>
      <trkpt lat="45.59377" lon="2.86207">
        <ele>1336</ele>
        <time>2019-04-17T12:24:49Z</time>
      </trkpt>
      <trkpt lat="45.59389" lon="2.86189">
        <ele>1335</ele>
        <time>2019-04-17T12:25:49Z</time>
      </trkpt>
      <trkpt lat="45.59396" lon="2.86173">
        <ele>1334</ele>
        <time>2019-04-17T12:26:49Z</time>
      </trkpt>
      <trkpt lat="45.59404" lon="2.86139">
        <ele>1333</ele>
        <time>2019-04-17T12:27:49Z</time>
      </trkpt>
      <trkpt lat="45.59421" lon="2.86096">
        <ele>1337</ele>
        <time>2019-04-17T12:28:49Z</time>
      </trkpt>
      <trkpt lat="45.59424" lon="2.86081">
        <ele>1338</ele>
        <time>2019-04-17T12:29:49Z</time>
      </trkpt>
      <trkpt lat="45.59423" lon="2.86069">
        <ele>1339</ele>
        <time>2019-04-17T12:30:49Z</time>
      </trkpt>
      <trkpt lat="45.59419" lon="2.86055">
        <ele>1338</ele>
        <time>2019-04-17T12:31:49Z</time>
      </trkpt>
      <trkpt lat="45.59405" lon="2.86036">
        <ele>1334</ele>
        <time>2019-04-17T12:32:49Z</time>
      </trkpt>
      <trkpt lat="45.594" lon="2.86022">
        <ele>1333</ele>
        <time>2019-04-17T12:33:49Z</time>
      </trkpt>
      <trkpt lat="45.59397" lon="2.86007">
        <ele>1333</ele>
        <time>2019-04-17T12:34:49Z</time>
      </trkpt>
      <trkpt lat="45.59394" lon="2.85953">
        <ele>1336</ele>
        <time>2019-04-17T12:35:49Z</time>
      </trkpt>
      <trkpt lat="45.59397" lon="2.85939">
        <ele>1338</ele>
        <time>2019-04-17T12:36:49Z</time>
      </trkpt>
      <trkpt lat="45.59406" lon="2.85913">
        <ele>1345</ele>
        <time>2019-04-17T12:37:49Z</time>
      </trkpt>
      <trkpt lat="45.59409" lon="2.85885">
        <ele>1347</ele>
        <time>2019-04-17T12:38:49Z</time>
      </trkpt>
      <trkpt lat="45.59419" lon="2.8584">
        <ele>1352</ele>
        <time>2019-04-17T12:39:49Z</time>
      </trkpt>
      <trkpt lat="45.59429" lon="2.85766">
        <ele>1359</ele>
        <time>2019-04-17T12:40:49Z</time>
      </trkpt>
      <trkpt lat="45.59427" lon="2.85748">
        <ele>1359</ele>
        <time>2019-04-17T12:41:49Z</time>
      </trkpt>
      <trkpt lat="45.59423" lon="2.85734">
        <ele>1360</ele>
        <time>2019-04-17T12:42:49Z</time>
      </trkpt>
      <trkpt lat="45.59416" lon="2.85719">
        <ele>1360</ele>
        <time>2019-04-17T12:43:49Z</time>
      </trkpt>
      <trkpt lat="45.59373" lon="2.85665">
        <ele>1355</ele>
        <time>2019-04-17T12:44:49Z</time>
      </trkpt>
      <trkpt lat="45.59368" lon="2.85654">
        <ele>1354</ele>
        <time>2019-04-17T12:45:49Z</time>
      </trkpt>
      <trkpt lat="45.59363" lon="2.8564">
        <ele>1354</ele>
        <time>2019-04-17T12:46:49Z</time>
      </trkpt>
      <trkpt lat="45.59361" lon="2.85617">
        <ele>1356</ele>
        <time>2019-04-17T12:47:49Z</time>
      </trkpt>
      <trkpt lat="45.59366" lon="2.85588">
        <ele>1360</ele>
        <time>2019-04-17T12:48:49Z</time>
      </trkpt>
      <trkpt lat="45.59399" lon="2.85454">
        <ele>1371</ele>
        <time>2019-04-17T12:49:49Z</time>
      </trkpt>
      <trkpt lat="45.59402" lon="2.85414">
        <ele>1372</ele>
        <time>2019-04-17T12:50:49Z</time>
      </trkpt>
      <trkpt lat="45.59406" lon="2.85392">
        <ele>1371</ele>
        <time>2019-04-17T12:51:49Z</time>
      </trkpt>
      <trkpt lat="45.59414" lon="2.85366">
        <ele>1371</ele>
        <time>2019-04-17T12:52:49Z</time>
      </trkpt>
      <trkpt lat="45.59423" lon="2.85348">
        <ele>1372</ele>
        <time>2019-04-17T12:53:49Z</time>
      </trkpt>
      <trkpt lat="45.59432" lon="2.85332">
        <ele>1373</ele>
        <time>2019-04-17T12:54:49Z</time>
      </trkpt>
      <trkpt lat="45.59469" lon="2.85299">
        <ele>1382</ele>
        <time>2019-04-17T12:55:49Z</time>
      </trkpt>
      <trkpt lat="45.59536" lon="2.85196">
        <ele>1389</ele>
        <time>2019-04-17T12:56:49Z</time>
      </trkpt>
      <trkpt lat="45.59544" lon="2.85188">
        <ele>1389</ele>
        <time>2019-04-17T12:57:49Z</time>
      </trkpt>
      <trkpt lat="45.59565" lon="2.85178">
        <ele>1392</ele>
        <time>2019-04-17T12:58:49Z</time>
      </trkpt>
      <trkpt lat="45.59634" lon="2.85166">
        <ele>1398</ele>
        <time>2019-04-17T12:59:49Z</time>
      </trkpt>
      <trkpt lat="45.59654" lon="2.85157">
        <ele>1400</ele>
        <time>2019-04-17T13:00:49Z</time>
      </trkpt>
      <trkpt lat="45.5967" lon="2.85145">
        <ele>1401</ele>
        <time>2019-04-17T13:01:49Z</time>
      </trkpt>
      <trkpt lat="45.59689" lon="2.85118">
        <ele>1401</ele>
        <time>2019-04-17T13:02:49Z</time>
      </trkpt>
      <trkpt lat="45.59708" lon="2.85081">
        <ele>1400</ele>
        <time>2019-04-17T13:03:49Z</time>
      </trkpt>
      <trkpt lat="45.59728" lon="2.85032">
        <ele>1397</ele>
        <time>2019-04-17T13:04:49Z</time>
      </trkpt>
      <trkpt lat="45.59942" lon="2.84493">
        <ele>1363</ele>
        <time>2019-04-17T13:05:49Z</time>
      </trkpt>
      <trkpt lat="45.59973" lon="2.84412">
        <ele>1359</ele>
        <time>2019-04-17T13:06:49Z</time>
      </trkpt>
      <trkpt lat="45.59985" lon="2.84373">
        <ele>1357</ele>
        <time>2019-04-17T13:07:49Z</time>
      </trkpt>
      <trkpt lat="45.59995" lon="2.84334">
        <ele>1355</ele>
        <time>2019-04-17T13:08:49Z</time>
      </trkpt>
      <trkpt lat="45.60013" lon="2.84179">
        <ele>1350</ele>
        <time>2019-04-17T13:09:49Z</time>
      </trkpt>
      <trkpt lat="45.60015" lon="2.84153">
        <ele>1348</ele>
        <time>2019-04-17T13:10:49Z</time>
      </trkpt>
      <trkpt lat="45.60015" lon="2.84128">
        <ele>1346</ele>
        <time>2019-04-17T13:11:49Z</time>
      </trkpt>
      <trkpt lat="45.60012" lon="2.84102">
        <ele>1345</ele>
        <time>2019-04-17T13:12:49Z</time>
      </trkpt>
      <trkpt lat="45.6" lon="2.84041">
        <ele>1343</ele>
        <time>2019-04-17T13:13:49Z</time>
      </trkpt>
      <trkpt lat="45.59991" lon="2.84006">
        <ele>1343</ele>
        <time>2019-04-17T13:14:49Z</time>
      </trkpt>
      <trkpt lat="45.59868" lon="2.83708">
        <ele>1329</ele>
        <time>2019-04-17T13:15:49Z</time>
      </trkpt>
      <trkpt lat="45.59851" lon="2.83673">
        <ele>1325</ele>
        <time>2019-04-17T13:16:49Z</time>
      </trkpt>
      <trkpt lat="45.59839" lon="2.83657">
        <ele>1324</ele>
        <time>2019-04-17T13:17:49Z</time>
      </trkpt>
      <trkpt lat="45.59803" lon="2.83625">
        <ele>1325</ele>
        <time>2019-04-17T13:18:49Z</time>
      </trkpt>
      <trkpt lat="45.59788" lon="2.83606">
        <ele>1323</ele>
        <time>2019-04-17T13:19:49Z</time>
      </trkpt>
      <trkpt lat="45.59681" lon="2.83451">
        <ele>1304</ele>
        <time>2019-04-17T13:20:49Z</time>
      </trkpt>
      <trkpt lat="45.59667" lon="2.83442">
        <ele>1304</ele>
        <time>2019-04-17T13:21:49Z</time>
      </trkpt>
      <trkpt lat="45.59657" lon="2.83442">
        <ele>1304</ele>
        <time>2019-04-17T13:22:49Z</time>
      </trkpt>
      <trkpt lat="45.59645" lon="2.83447">
        <ele>1305</ele>
        <time>2019-04-17T13:23:49Z</time>
      </trkpt>
      <trkpt lat="45.59614" lon="2.83473">
        <ele>1312</ele>
        <time>2019-04-17T13:24:49Z</time>
      </trkpt>
      <trkpt lat="45.59602" lon="2.83477">
        <ele>1313</ele>
        <time>2019-04-17T13:25:49Z</time>
      </trkpt>
      <trkpt lat="45.59595" lon="2.83476">
        <ele>1313</ele>
        <time>2019-04-17T13:26:49Z</time>
      </trkpt>
      <trkpt lat="45.59588" lon="2.83472">
        <ele>1312</ele>
        <time>2019-04-17T13:27:49Z</time>
      </trkpt>
      <trkpt lat="45.59576" lon="2.83462">
        <ele>1310</ele>
        <time>2019-04-17T13:28:49Z</time>
      </trkpt>
      <trkpt lat="45.59541" lon="2.83418">
        <ele>1302</ele>
        <time>2019-04-17T13:29:49Z</time>
      </trkpt>
      <trkpt lat="45.59533" lon="2.83414">
        <ele>1302</ele>
        <time>2019-04-17T13:30:49Z</time>
      </trkpt>
      <trkpt lat="45.59498" lon="2.83408">
        <ele>1304</ele>
        <time>2019-04-17T13:31:49Z</time>
      </trkpt>
      <trkpt lat="45.59483" lon="2.83402">
        <ele>1305</ele>
        <time>2019-04-17T13:32:49Z</time>
      </trkpt>
      <trkpt lat="45.5947" lon="2.83385">
        <ele>1303</ele>
        <time>2019-04-17T13:33:49Z</time>
      </trkpt>
      <trkpt lat="45.59453" lon="2.83348">
        <ele>1295</ele>
        <time>2019-04-17T13:34:49Z</time>
      </trkpt>
      <trkpt lat="45.59442" lon="2.83338">
        <ele>1293</ele>
        <time>2019-04-17T13:35:49Z</time>
      </trkpt>
      <trkpt lat="45.59431" lon="2.83338">
        <ele>1294</ele>
        <time>2019-04-17T13:36:49Z</time>
      </trkpt>
      <trkpt lat="45.59404" lon="2.83342">
        <ele>1300</ele>
        <time>2019-04-17T13:37:49Z</time>
      </trkpt>
      <trkpt lat="45.59395" lon="2.8334">
        <ele>1302</ele>
        <time>2019-04-17T13:38:49Z</time>
      </trkpt>
      <trkpt lat="45.59385" lon="2.83333">
        <ele>1303</ele>
        <time>2019-04-17T13:39:49Z</time>
      </trkpt>
      <trkpt lat="45.59376" lon="2.83322">
        <ele>1303</ele>
        <time>2019-04-17T13:40:49Z</time>
      </trkpt>
      <trkpt lat="45.5937" lon="2.83309">
        <ele>1302</ele>
        <time>2019-04-17T13:41:49Z</time>
      </trkpt>
      <trkpt lat="45.59364" lon="2.83291">
        <ele>1300</ele>
        <time>2019-04-17T13:42:49Z</time>
      </trkpt>
      <trkpt lat="45.59346" lon="2.83207">
        <ele>1283</ele>
        <time>2019-04-17T13:43:49Z</time>
      </trkpt>
      <trkpt lat="45.5934" lon="2.83193">
        <ele>1280</ele>
        <time>2019-04-17T13:44:49Z</time>
      </trkpt>
      <trkpt lat="45.59333" lon="2.83184">
        <ele>1279</ele>
        <time>2019-04-17T13:45:49Z</time>
      </trkpt>
      <trkpt lat="45.59323" lon="2.83178">
        <ele>1276</ele>
        <time>2019-04-17T13:46:49Z</time>
      </trkpt>
      <trkpt lat="45.5931" lon="2.83175">
        <ele>1275</ele>
        <time>2019-04-17T13:47:49Z</time>
      </trkpt>
      <trkpt lat="45.59293" lon="2.83175">
        <ele>1275</ele>
        <time>2019-04-17T13:48:49Z</time>
      </trkpt>
      <trkpt lat="45.59279" lon="2.83186">
        <ele>1278</ele>
        <time>2019-04-17T13:49:49Z</time>
      </trkpt>
      <trkpt lat="45.59228" lon="2.8324">
        <ele>1294</ele>
        <time>2019-04-17T13:50:49Z</time>
      </trkpt>
      <trkpt lat="45.59214" lon="2.83247">
        <ele>1295</ele>
        <time>2019-04-17T13:51:49Z</time>
      </trkpt>
      <trkpt lat="45.5921" lon="2.83247">
        <ele>1296</ele>
        <time>2019-04-17T13:52:49Z</time>
      </trkpt>
      <trkpt lat="45.59199" lon="2.83241">
        <ele>1296</ele>
        <time>2019-04-17T13:53:49Z</time>
      </trkpt>
      <trkpt lat="45.59193" lon="2.83228">
        <ele>1295</ele>
        <time>2019-04-17T13:54:49Z</time>
      </trkpt>
      <trkpt lat="45.59192" lon="2.83208">
        <ele>1295</ele>
        <time>2019-04-17T13:55:49Z</time>
      </trkpt>
      <trkpt lat="45.59218" lon="2.83129">
        <ele>1284</ele>
        <time>2019-04-17T13:56:49Z</time>
      </trkpt>
      <trkpt lat="45.59231" lon="2.83086">
        <ele>1278</ele>
        <time>2019-04-17T13:57:49Z</time>
      </trkpt>
      <trkpt lat="45.59261" lon="2.82967">
        <ele>1266</ele>
        <time>2019-04-17T13:58:49Z</time>
      </trkpt>
      <trkpt lat="45.59268" lon="2.82936">
        <ele>1262</ele>
        <time>2019-04-17T13:59:49Z</time>
      </trkpt>
      <trkpt lat="45.59269" lon="2.8292">
        <ele>1261</ele>
        <time>2019-04-17T14:00:49Z</time>
      </trkpt>
      <trkpt lat="45.59268" lon="2.82903">
        <ele>1258</ele>
        <time>2019-04-17T14:01:49Z</time>
      </trkpt>
      <trkpt lat="45.59264" lon="2.82888">
        <ele>1256</ele>
        <time>2019-04-17T14:02:49Z</time>
      </trkpt>
      <trkpt lat="45.59254" lon="2.8287">
        <ele>1256</ele>
        <time>2019-04-17T14:03:49Z</time>
      </trkpt>
      <trkpt lat="45.59226" lon="2.82833">
        <ele>1253</ele>
        <time>2019-04-17T14:04:49Z</time>
      </trkpt>
      <trkpt lat="45.59212" lon="2.82818">
        <ele>1252</ele>
        <time>2019-04-17T14:05:49Z</time>
      </trkpt>
      <trkpt lat="45.59195" lon="2.82805">
        <ele>1251</ele>
        <time>2019-04-17T14:06:49Z</time>
      </trkpt>
      <trkpt lat="45.59188" lon="2.82802">
        <ele>1252</ele>
        <time>2019-04-17T14:07:49Z</time>
      </trkpt>
      <trkpt lat="45.59152" lon="2.82794">
        <ele>1255</ele>
        <time>2019-04-17T14:08:49Z</time>
      </trkpt>
      <trkpt lat="45.59133" lon="2.82785">
        <ele>1255</ele>
        <time>2019-04-17T14:09:49Z</time>
      </trkpt>
      <trkpt lat="45.59099" lon="2.82743">
        <ele>1248</ele>
        <time>2019-04-17T14:10:49Z</time>
      </trkpt>
      <trkpt lat="45.59084" lon="2.8273">
        <ele>1247</ele>
        <time>2019-04-17T14:11:49Z</time>
      </trkpt>
      <trkpt lat="45.59037" lon="2.82697">
        <ele>1247</ele>
        <time>2019-04-17T14:12:49Z</time>
      </trkpt>
      <trkpt lat="45.58991" lon="2.82649">
        <ele>1242</ele>
        <time>2019-04-17T14:13:49Z</time>
      </trkpt>
      <trkpt lat="45.58969" lon="2.82622">
        <ele>1241</ele>
        <time>2019-04-17T14:14:49Z</time>
      </trkpt>
      <trkpt lat="45.58933" lon="2.82564">
        <ele>1234</ele>
        <time>2019-04-17T14:15:49Z</time>
      </trkpt>
      <trkpt lat="45.58916" lon="2.82545">
        <ele>1232</ele>
        <time>2019-04-17T14:16:49Z</time>
      </trkpt>
      <trkpt lat="45.58895" lon="2.82527">
        <ele>1230</ele>
        <time>2019-04-17T14:17:49Z</time>
      </trkpt>
      <trkpt lat="45.58856" lon="2.82506">
        <ele>1230</ele>
        <time>2019-04-17T14:18:49Z</time>
      </trkpt>
      <trkpt lat="45.58843" lon="2.82496">
        <ele>1229</ele>
        <time>2019-04-17T14:19:49Z</time>
      </trkpt>
      <trkpt lat="45.58816" lon="2.82467">
        <ele>1225</ele>
        <time>2019-04-17T14:20:49Z</time>
      </trkpt>
      <trkpt lat="45.58799" lon="2.82454">
        <ele>1223</ele>
        <time>2019-04-17T14:21:49Z</time>
      </trkpt>
      <trkpt lat="45.58748" lon="2.82433">
        <ele>1221</ele>
        <time>2019-04-17T14:22:49Z</time>
      </trkpt>
      <trkpt lat="45.58731" lon="2.82424">
        <ele>1221</ele>
        <time>2019-04-17T14:23:49Z</time>
      </trkpt>
      <trkpt lat="45.58683" lon="2.82381">
        <ele>1217</ele>
        <time>2019-04-17T14:24:49Z</time>
      </trkpt>
      <trkpt lat="45.58654" lon="2.82351">
        <ele>1214</ele>
        <time>2019-04-17T14:25:49Z</time>
      </trkpt>
      <trkpt lat="45.58631" lon="2.82324">
        <ele>1212</ele>
        <time>2019-04-17T14:26:49Z</time>
      </trkpt>
      <trkpt lat="45.58621" lon="2.82309">
        <ele>1210</ele>
        <time>2019-04-17T14:27:49Z</time>
      </trkpt>
      <trkpt lat="45.58612" lon="2.82291">
        <ele>1208</ele>
        <time>2019-04-17T14:28:49Z</time>
      </trkpt>
      <trkpt lat="45.58574" lon="2.82204">
        <ele>1199</ele>
        <time>2019-04-17T14:29:49Z</time>
      </trkpt>
      <trkpt lat="45.58564" lon="2.82187">
        <ele>1198</ele>
        <time>2019-04-17T14:30:49Z</time>
      </trkpt>
      <trkpt lat="45.58561" lon="2.82172">
        <ele>1196</ele>
        <time>2019-04-17T14:31:49Z</time>
      </trkpt>
      <trkpt lat="45.58575" lon="2.8218">
        <ele>1197</ele>
        <time>2019-04-17T14:32:49Z</time>
      </trkpt>
      <trkpt lat="45.58599" lon="2.82198">
        <ele>1197</ele>
        <time>2019-04-17T14:33:49Z</time>
      </trkpt>
      <trkpt lat="45.58646" lon="2.82258">
        <ele>1200</ele>
        <time>2019-04-17T14:34:49Z</time>
      </trkpt>
      <trkpt lat="45.58658" lon="2.8227">
        <ele>1201</ele>
        <time>2019-04-17T14:35:49Z</time>
      </trkpt>
      <trkpt lat="45.58672" lon="2.82278">
        <ele>1202</ele>
        <time>2019-04-17T14:36:49Z</time>
      </trkpt>
      <trkpt lat="45.58694" lon="2.8228">
        <ele>1202</ele>
        <time>2019-04-17T14:37:49Z</time>
      </trkpt>
      <trkpt lat="45.58716" lon="2.82271">
        <ele>1200</ele>
        <time>2019-04-17T14:38:49Z</time>
      </trkpt>
      <trkpt lat="45.58775" lon="2.82219">
        <ele>1195</ele>
        <time>2019-04-17T14:39:49Z</time>
      </trkpt>
      <trkpt lat="45.58796" lon="2.82212">
        <ele>1194</ele>
        <time>2019-04-17T14:40:49Z</time>
      </trkpt>
      <trkpt lat="45.58818" lon="2.82216">
        <ele>1195</ele>
        <time>2019-04-17T14:41:49Z</time>
      </trkpt>
      <trkpt lat="45.58852" lon="2.8223">
        <ele>1195</ele>
        <time>2019-04-17T14:42:49Z</time>
      </trkpt>
      <trkpt lat="45.58949" lon="2.82216">
        <ele>1193</ele>
        <time>2019-04-17T14:43:49Z</time>
      </trkpt>
      <trkpt lat="45.58961" lon="2.82219">
        <ele>1193</ele>
        <time>2019-04-17T14:44:49Z</time>
      </trkpt>
      <trkpt lat="45.58993" lon="2.82241">
        <ele>1193</ele>
        <time>2019-04-17T14:45:49Z</time>
      </trkpt>
      <trkpt lat="45.59014" lon="2.82261">
        <ele>1192</ele>
        <time>2019-04-17T14:46:49Z</time>
      </trkpt>
      <trkpt lat="45.59033" lon="2.82286">
        <ele>1189</ele>
        <time>2019-04-17T14:47:49Z</time>
      </trkpt>
      <trkpt lat="45.59048" lon="2.82317">
        <ele>1189</ele>
        <time>2019-04-17T14:48:49Z</time>
      </trkpt>
      <trkpt lat="45.59053" lon="2.82334">
        <ele>1190</ele>
        <time>2019-04-17T14:49:49Z</time>
      </trkpt>
      <trkpt lat="45.59057" lon="2.82402">
        <ele>1196</ele>
        <time>2019-04-17T14:50:49Z</time>
      </trkpt>
      <trkpt lat="45.59064" lon="2.82426">
        <ele>1198</ele>
        <time>2019-04-17T14:51:49Z</time>
      </trkpt>
      <trkpt lat="45.59076" lon="2.82443">
        <ele>1198</ele>
        <time>2019-04-17T14:52:49Z</time>
      </trkpt>
      <trkpt lat="45.5909" lon="2.82454">
        <ele>1198</ele>
        <time>2019-04-17T14:53:49Z</time>
      </trkpt>
      <trkpt lat="45.59116" lon="2.82465">
        <ele>1197</ele>
        <time>2019-04-17T14:54:49Z</time>
      </trkpt>
      <trkpt lat="45.59191" lon="2.82483">
        <ele>1193</ele>
        <time>2019-04-17T14:55:49Z</time>
      </trkpt>
      <trkpt lat="45.59222" lon="2.82493">
        <ele>1190</ele>
        <time>2019-04-17T14:56:49Z</time>
      </trkpt>
      <trkpt lat="45.59255" lon="2.82509">
        <ele>1188</ele>
        <time>2019-04-17T14:57:49Z</time>
      </trkpt>
      <trkpt lat="45.59278" lon="2.82527">
        <ele>1187</ele>
        <time>2019-04-17T14:58:49Z</time>
      </trkpt>
      <trkpt lat="45.59293" lon="2.82545">
        <ele>1187</ele>
        <time>2019-04-17T14:59:49Z</time>
      </trkpt>
      <trkpt lat="45.5933" lon="2.82602">
        <ele>1188</ele>
        <time>2019-04-17T15:00:49Z</time>
      </trkpt>
      <trkpt lat="45.59351" lon="2.82623">
        <ele>1188</ele>
        <time>2019-04-17T15:01:49Z</time>
      </trkpt>
      <trkpt lat="45.59403" lon="2.82658">
        <ele>1187</ele>
        <time>2019-04-17T15:02:49Z</time>
      </trkpt>
      <trkpt lat="45.59427" lon="2.82681">
        <ele>1190</ele>
        <time>2019-04-17T15:03:49Z</time>
      </trkpt>
      <trkpt lat="45.59488" lon="2.82767">
        <ele>1190</ele>
        <time>2019-04-17T15:04:49Z</time>
      </trkpt>
      <trkpt lat="45.59499" lon="2.82778">
        <ele>1188</ele>
        <time>2019-04-17T15:05:49Z</time>
      </trkpt>
      <trkpt lat="45.5951" lon="2.82782">
        <ele>1190</ele>
        <time>2019-04-17T15:06:49Z</time>
      </trkpt>
      <trkpt lat="45.5952" lon="2.8278">
        <ele>1191</ele>
        <time>2019-04-17T15:07:49Z</time>
      </trkpt>
      <trkpt lat="45.59529" lon="2.82775">
        <ele>1193</ele>
        <time>2019-04-17T15:08:49Z</time>
      </trkpt>
      <trkpt lat="45.59537" lon="2.82763">
        <ele>1194</ele>
        <time>2019-04-17T15:09:49Z</time>
      </trkpt>
      <trkpt lat="45.59542" lon="2.82745">
        <ele>1195</ele>
        <time>2019-04-17T15:10:49Z</time>
      </trkpt>
      <trkpt lat="45.59541" lon="2.82728">
        <ele>1194</ele>
        <time>2019-04-17T15:11:49Z</time>
      </trkpt>
      <trkpt lat="45.59532" lon="2.82666">
        <ele>1190</ele>
        <time>2019-04-17T15:12:49Z</time>
      </trkpt>
      <trkpt lat="45.59514" lon="2.82589">
        <ele>1189</ele>
        <time>2019-04-17T15:13:49Z</time>
      </trkpt>
      <trkpt lat="45.59505" lon="2.82564">
        <ele>1189</ele>
        <time>2019-04-17T15:14:49Z</time>
      </trkpt>
      <trkpt lat="45.59466" lon="2.82498">
        <ele>1184</ele>
        <time>2019-04-17T15:15:49Z</time>
      </trkpt>
      <trkpt lat="45.59455" lon="2.82474">
        <ele>1182</ele>
        <time>2019-04-17T15:16:49Z</time>
      </trkpt>
      <trkpt lat="45.59449" lon="2.82448">
        <ele>1182</ele>
        <time>2019-04-17T15:17:49Z</time>
      </trkpt>
      <trkpt lat="45.59424" lon="2.8228">
        <ele>1185</ele>
        <time>2019-04-17T15:18:49Z</time>
      </trkpt>
      <trkpt lat="45.59423" lon="2.82248">
        <ele>1186</ele>
        <time>2019-04-17T15:19:49Z</time>
      </trkpt>
      <trkpt lat="45.59426" lon="2.82225">
        <ele>1185</ele>
        <time>2019-04-17T15:20:49Z</time>
      </trkpt>
      <trkpt lat="45.59433" lon="2.82209">
        <ele>1185</ele>
        <time>2019-04-17T15:21:49Z</time>
      </trkpt>
      <trkpt lat="45.59441" lon="2.82199">
        <ele>1185</ele>
        <time>2019-04-17T15:22:49Z</time>
      </trkpt>
      <trkpt lat="45.59451" lon="2.82193">
        <ele>1186</ele>
        <time>2019-04-17T15:23:49Z</time>
      </trkpt>
      <trkpt lat="45.59464" lon="2.82192">
        <ele>1187</ele>
        <time>2019-04-17T15:24:49Z</time>
      </trkpt>
      <trkpt lat="45.59477" lon="2.82196">
        <ele>1190</ele>
        <time>2019-04-17T15:25:49Z</time>
      </trkpt>
      <trkpt lat="45.59492" lon="2.82207">
        <ele>1194</ele>
        <time>2019-04-17T15:26:49Z</time>
      </trkpt>
      <trkpt lat="45.59565" lon="2.82285">
        <ele>1199</ele>
        <time>2019-04-17T15:27:49Z</time>
      </trkpt>
      <trkpt lat="45.59766" lon="2.82482">
        <ele>1205</ele>
        <time>2019-04-17T15:28:49Z</time>
      </trkpt>
      <trkpt lat="45.59862" lon="2.82568">
        <ele>1208</ele>
        <time>2019-04-17T15:29:49Z</time>
      </trkpt>
      <trkpt lat="45.59879" lon="2.82581">
        <ele>1207</ele>
        <time>2019-04-17T15:30:49Z</time>
      </trkpt>
      <trkpt lat="45.59956" lon="2.82629">
        <ele>1205</ele>
        <time>2019-04-17T15:31:49Z</time>
      </trkpt>
      <trkpt lat="45.59977" lon="2.82646">
        <ele>1204</ele>
        <time>2019-04-17T15:32:49Z</time>
      </trkpt>
      <trkpt lat="45.60005" lon="2.82687">
        <ele>1207</ele>
        <time>2019-04-17T15:33:49Z</time>
      </trkpt>
      <trkpt lat="45.60022" lon="2.82704">
        <ele>1210</ele>
        <time>2019-04-17T15:34:49Z</time>
      </trkpt>
      <trkpt lat="45.60037" lon="2.8271">
        <ele>1211</ele>
        <time>2019-04-17T15:35:49Z</time>
      </trkpt>
      <trkpt lat="45.60055" lon="2.82708">
        <ele>1209</ele>
        <time>2019-04-17T15:36:49Z</time>
      </trkpt>
      <trkpt lat="45.60071" lon="2.82699">
        <ele>1208</ele>
        <time>2019-04-17T15:37:49Z</time>
      </trkpt>
      <trkpt lat="45.60083" lon="2.82686">
        <ele>1207</ele>
        <time>2019-04-17T15:38:49Z</time>
      </trkpt>
      <trkpt lat="45.6009" lon="2.82672">
        <ele>1209</ele>
        <time>2019-04-17T15:39:49Z</time>
      </trkpt>
      <trkpt lat="45.60096" lon="2.82648">
        <ele>1210</ele>
        <time>2019-04-17T15:40:49Z</time>
      </trkpt>
      <trkpt lat="45.60107" lon="2.82591">
        <ele>1208</ele>
        <time>2019-04-17T15:41:49Z</time>
      </trkpt>
      <trkpt lat="45.60135" lon="2.82553">
        <ele>1212</ele>
        <time>2019-04-17T15:42:49Z</time>
      </trkpt>
      <trkpt lat="45.60159" lon="2.82548">
        <ele>1218</ele>
        <time>2019-04-17T15:43:49Z</time>
      </trkpt>
      <trkpt lat="45.60184" lon="2.82548">
        <ele>1223</ele>
        <time>2019-04-17T15:44:49Z</time>
      </trkpt>
      <trkpt lat="45.60234" lon="2.82561">
        <ele>1233</ele>
        <time>2019-04-17T15:45:49Z</time>
      </trkpt>
      <trkpt lat="45.60261" lon="2.8256">
        <ele>1236</ele>
        <time>2019-04-17T15:46:49Z</time>
      </trkpt>
      <trkpt lat="45.60345" lon="2.82542">
        <ele>1242</ele>
        <time>2019-04-17T15:47:49Z</time>
      </trkpt>
      <trkpt lat="45.60371" lon="2.82545">
        <ele>1243</ele>
        <time>2019-04-17T15:48:49Z</time>
      </trkpt>
      <trkpt lat="45.60435" lon="2.82575">
        <ele>1244</ele>
        <time>2019-04-17T15:49:49Z</time>
      </trkpt>
      <trkpt lat="45.60463" lon="2.82583">
        <ele>1242</ele>
        <time>2019-04-17T15:50:49Z</time>
      </trkpt>
      <trkpt lat="45.60492" lon="2.82584">
        <ele>1240</ele>
        <time>2019-04-17T15:51:49Z</time>
      </trkpt>
      <trkpt lat="45.60642" lon="2.82546">
        <ele>1246</ele>
        <time>2019-04-17T15:52:49Z</time>
      </trkpt>
      <trkpt lat="45.60723" lon="2.82514">
        <ele>1244</ele>
        <time>2019-04-17T15:53:49Z</time>
      </trkpt>
      <trkpt lat="45.60747" lon="2.82516">
        <ele>1244</ele>
        <time>2019-04-17T15:54:49Z</time>
      </trkpt>
      <trkpt lat="45.60784" lon="2.8253">
        <ele>1245</ele>
        <time>2019-04-17T15:55:49Z</time>
      </trkpt>
      <trkpt lat="45.60851" lon="2.82541">
        <ele>1245</ele>
        <time>2019-04-17T15:56:49Z</time>
      </trkpt>
      <trkpt lat="45.60878" lon="2.8254">
        <ele>1245</ele>
        <time>2019-04-17T15:57:49Z</time>
      </trkpt>
      <trkpt lat="45.60976" lon="2.82512">
        <ele>1243</ele>
        <time>2019-04-17T15:58:49Z</time>
      </trkpt>
      <trkpt lat="45.61029" lon="2.825">
        <ele>1245</ele>
        <time>2019-04-17T15:59:49Z</time>
      </trkpt>
      <trkpt lat="45.61124" lon="2.82444">
        <ele>1246</ele>
        <time>2019-04-17T16:00:49Z</time>
      </trkpt>
      <trkpt lat="45.61141" lon="2.82443">
        <ele>1247</ele>
        <time>2019-04-17T16:01:49Z</time>
      </trkpt>
      <trkpt lat="45.61152" lon="2.82446">
        <ele>1247</ele>
        <time>2019-04-17T16:02:49Z</time>
      </trkpt>
      <trkpt lat="45.61174" lon="2.82457">
        <ele>1248</ele>
        <time>2019-04-17T16:03:49Z</time>
      </trkpt>
      <trkpt lat="45.61192" lon="2.82476">
        <ele>1248</ele>
        <time>2019-04-17T16:04:49Z</time>
      </trkpt>
      <trkpt lat="45.61196" lon="2.8249">
        <ele>1248</ele>
        <time>2019-04-17T16:05:49Z</time>
      </trkpt>
      <trkpt lat="45.61197" lon="2.82522">
        <ele>1249</ele>
        <time>2019-04-17T16:06:49Z</time>
      </trkpt>
      <trkpt lat="45.61191" lon="2.82572">
        <ele>1252</ele>
        <time>2019-04-17T16:07:49Z</time>
      </trkpt>
      <trkpt lat="45.61191" lon="2.82588">
        <ele>1252</ele>
        <time>2019-04-17T16:08:49Z</time>
      </trkpt>
      <trkpt lat="45.61196" lon="2.82599">
        <ele>1252</ele>
        <time>2019-04-17T16:09:49Z</time>
      </trkpt>
      <trkpt lat="45.61217" lon="2.82618">
        <ele>1251</ele>
        <time>2019-04-17T16:10:49Z</time>
      </trkpt>
      <trkpt lat="45.61258" lon="2.82641">
        <ele>1250</ele>
        <time>2019-04-17T16:11:49Z</time>
      </trkpt>
      <trkpt lat="45.61279" lon="2.82645">
        <ele>1250</ele>
        <time>2019-04-17T16:12:49Z</time>
      </trkpt>
      <trkpt lat="45.6131" lon="2.82636">
        <ele>1251</ele>
        <time>2019-04-17T16:13:49Z</time>
      </trkpt>
      <trkpt lat="45.61368" lon="2.82611">
        <ele>1252</ele>
        <time>2019-04-17T16:14:49Z</time>
      </trkpt>
      <trkpt lat="45.61498" lon="2.82534">
        <ele>1251</ele>
        <time>2019-04-17T16:15:49Z</time>
      </trkpt>
      <trkpt lat="45.61656" lon="2.82463">
        <ele>1251</ele>
        <time>2019-04-17T16:16:49Z</time>
      </trkpt>
      <trkpt lat="45.61785" lon="2.82426">
        <ele>1255</ele>
        <time>2019-04-17T16:17:49Z</time>
      </trkpt>
      <trkpt lat="45.61869" lon="2.82377">
        <ele>1260</ele>
        <time>2019-04-17T16:18:49Z</time>
      </trkpt>
      <trkpt lat="45.61903" lon="2.82355">
        <ele>1261</ele>
        <time>2019-04-17T16:19:49Z</time>
      </trkpt>
      <trkpt lat="45.6195" lon="2.8231">
        <ele>1265</ele>
        <time>2019-04-17T16:20:49Z</time>
      </trkpt>
      <trkpt lat="45.6197" lon="2.82282">
        <ele>1266</ele>
        <time>2019-04-17T16:21:49Z</time>
      </trkpt>
      <trkpt lat="45.61977" lon="2.82269">
        <ele>1266</ele>
        <time>2019-04-17T16:22:49Z</time>
      </trkpt>
      <trkpt lat="45.61992" lon="2.82225">
        <ele>1267</ele>
        <time>2019-04-17T16:23:49Z</time>
      </trkpt>
      <trkpt lat="45.62012" lon="2.82182">
        <ele>1267</ele>
        <time>2019-04-17T16:24:49Z</time>
      </trkpt>
      <trkpt lat="45.62021" lon="2.82138">
        <ele>1265</ele>
        <time>2019-04-17T16:25:49Z</time>
      </trkpt>
      <trkpt lat="45.62033" lon="2.82107">
        <ele>1265</ele>
        <time>2019-04-17T16:26:49Z</time>
      </trkpt>
      <trkpt lat="45.62049" lon="2.82087">
        <ele>1265</ele>
        <time>2019-04-17T16:27:49Z</time>
      </trkpt>
      <trkpt lat="45.62069" lon="2.8207">
        <ele>1266</ele>
        <time>2019-04-17T16:28:49Z</time>
      </trkpt>
      <trkpt lat="45.62079" lon="2.82066">
        <ele>1267</ele>
        <time>2019-04-17T16:29:49Z</time>
      </trkpt>
      <trkpt lat="45.62091" lon="2.82065">
        <ele>1267</ele>
        <time>2019-04-17T16:30:49Z</time>
      </trkpt>
      <trkpt lat="45.62149" lon="2.82074">
        <ele>1266</ele>
        <time>2019-04-17T16:31:49Z</time>
      </trkpt>
      <trkpt lat="45.62199" lon="2.82084">
        <ele>1264</ele>
        <time>2019-04-17T16:32:49Z</time>
      </trkpt>
      <trkpt lat="45.62214" lon="2.82092">
        <ele>1263</ele>
        <time>2019-04-17T16:33:49Z</time>
      </trkpt>
      <trkpt lat="45.62223" lon="2.821">
        <ele>1263</ele>
        <time>2019-04-17T16:34:49Z</time>
      </trkpt>
      <trkpt lat="45.62233" lon="2.82123">
        <ele>1265</ele>
        <time>2019-04-17T16:35:49Z</time>
      </trkpt>
      <trkpt lat="45.62277" lon="2.82257">
        <ele>1279</ele>
        <time>2019-04-17T16:36:49Z</time>
      </trkpt>
      <trkpt lat="45.62282" lon="2.82268">
        <ele>1281</ele>
        <time>2019-04-17T16:37:49Z</time>
      </trkpt>
      <trkpt lat="45.62287" lon="2.82273">
        <ele>1281</ele>
        <time>2019-04-17T16:38:49Z</time>
      </trkpt>
      <trkpt lat="45.62301" lon="2.8228">
        <ele>1280</ele>
        <time>2019-04-17T16:39:49Z</time>
      </trkpt>
      <trkpt lat="45.62341" lon="2.82282">
        <ele>1270</ele>
        <time>2019-04-17T16:40:49Z</time>
      </trkpt>
      <trkpt lat="45.62354" lon="2.82286">
        <ele>1266</ele>
        <time>2019-04-17T16:41:49Z</time>
      </trkpt>
      <trkpt lat="45.62373" lon="2.82297">
        <ele>1263</ele>
        <time>2019-04-17T16:42:49Z</time>
      </trkpt>
      <trkpt lat="45.6239" lon="2.82312">
        <ele>1262</ele>
        <time>2019-04-17T16:43:49Z</time>
      </trkpt>
      <trkpt lat="45.62439" lon="2.82373">
        <ele>1271</ele>
        <time>2019-04-17T16:44:49Z</time>
      </trkpt>
      <trkpt lat="45.62469" lon="2.824">
        <ele>1272</ele>
        <time>2019-04-17T16:45:49Z</time>
      </trkpt>
      <trkpt lat="45.62487" lon="2.82419">
        <ele>1273</ele>
        <time>2019-04-17T16:46:49Z</time>
      </trkpt>
      <trkpt lat="45.62503" lon="2.82439">
        <ele>1273</ele>
        <time>2019-04-17T16:47:49Z</time>
      </trkpt>
      <trkpt lat="45.62526" lon="2.82463">
        <ele>1273</ele>
        <time>2019-04-17T16:48:49Z</time>
      </trkpt>
      <trkpt lat="45.62549" lon="2.82477">
        <ele>1268</ele>
        <time>2019-04-17T16:49:49Z</time>
      </trkpt>
      <trkpt lat="45.62567" lon="2.82499">
        <ele>1267</ele>
        <time>2019-04-17T16:50:49Z</time>
      </trkpt>
      <trkpt lat="45.62577" lon="2.82519">
        <ele>1266</ele>
        <time>2019-04-17T16:51:49Z</time>
      </trkpt>
      <trkpt lat="45.62586" lon="2.82544">
        <ele>1266</ele>
        <time>2019-04-17T16:52:49Z</time>
      </trkpt>
      <trkpt lat="45.6261" lon="2.82625">
        <ele>1267</ele>
        <time>2019-04-17T16:53:49Z</time>
      </trkpt>
      <trkpt lat="45.62618" lon="2.82667">
        <ele>1270</ele>
        <time>2019-04-17T16:54:49Z</time>
      </trkpt>
      <trkpt lat="45.62621" lon="2.82676">
        <ele>1271</ele>
        <time>2019-04-17T16:55:49Z</time>
      </trkpt>
      <trkpt lat="45.62628" lon="2.82686">
        <ele>1273</ele>
        <time>2019-04-17T16:56:49Z</time>
      </trkpt>
      <trkpt lat="45.62632" lon="2.82688">
        <ele>1273</ele>
        <time>2019-04-17T16:57:49Z</time>
      </trkpt>
      <trkpt lat="45.62644" lon="2.8269">
        <ele>1272</ele>
        <time>2019-04-17T16:58:49Z</time>
      </trkpt>
      <trkpt lat="45.62658" lon="2.82683">
        <ele>1267</ele>
        <time>2019-04-17T16:59:49Z</time>
      </trkpt>
      <trkpt lat="45.62668" lon="2.82675">
        <ele>1263</ele>
        <time>2019-04-17T17:00:49Z</time>
      </trkpt>
      <trkpt lat="45.62723" lon="2.826">
        <ele>1256</ele>
        <time>2019-04-17T17:01:49Z</time>
      </trkpt>
      <trkpt lat="45.62743" lon="2.82577">
        <ele>1252</ele>
        <time>2019-04-17T17:02:49Z</time>
      </trkpt>
      <trkpt lat="45.62767" lon="2.82554">
        <ele>1246</ele>
        <time>2019-04-17T17:03:49Z</time>
      </trkpt>
      <trkpt lat="45.62781" lon="2.82547">
        <ele>1245</ele>
        <time>2019-04-17T17:04:49Z</time>
      </trkpt>
      <trkpt lat="45.6282" lon="2.82542">
        <ele>1248</ele>
        <time>2019-04-17T17:05:49Z</time>
      </trkpt>
      <trkpt lat="45.62837" lon="2.82538">
        <ele>1248</ele>
        <time>2019-04-17T17:06:49Z</time>
      </trkpt>
      <trkpt lat="45.62851" lon="2.8254">
        <ele>1246</ele>
        <time>2019-04-17T17:07:49Z</time>
      </trkpt>
      <trkpt lat="45.62862" lon="2.82546">
        <ele>1247</ele>
        <time>2019-04-17T17:08:49Z</time>
      </trkpt>
      <trkpt lat="45.62895" lon="2.82589">
        <ele>1257</ele>
        <time>2019-04-17T17:09:49Z</time>
      </trkpt>
      <trkpt lat="45.62911" lon="2.82597">
        <ele>1259</ele>
        <time>2019-04-17T17:10:49Z</time>
      </trkpt>
      <trkpt lat="45.62921" lon="2.82597">
        <ele>1258</ele>
        <time>2019-04-17T17:11:49Z</time>
      </trkpt>
      <trkpt lat="45.62941" lon="2.82589">
        <ele>1255</ele>
        <time>2019-04-17T17:12:49Z</time>
      </trkpt>
      <trkpt lat="45.62962" lon="2.82576">
        <ele>1250</ele>
        <time>2019-04-17T17:13:49Z</time>
      </trkpt>
      <trkpt lat="45.62981" lon="2.82576">
        <ele>1250</ele>
        <time>2019-04-17T17:14:49Z</time>
      </trkpt>
      <trkpt lat="45.63001" lon="2.82583">
        <ele>1254</ele>
        <time>2019-04-17T17:15:49Z</time>
      </trkpt>
      <trkpt lat="45.63009" lon="2.82582">
        <ele>1255</ele>
        <time>2019-04-17T17:16:49Z</time>
      </trkpt>
      <trkpt lat="45.63019" lon="2.82576">
        <ele>1255</ele>
        <time>2019-04-17T17:17:49Z</time>
      </trkpt>
      <trkpt lat="45.63025" lon="2.82567">
        <ele>1252</ele>
        <time>2019-04-17T17:18:49Z</time>
      </trkpt>
      <trkpt lat="45.63042" lon="2.82528">
        <ele>1238</ele>
        <time>2019-04-17T17:19:49Z</time>
      </trkpt>
      <trkpt lat="45.63055" lon="2.82517">
        <ele>1236</ele>
        <time>2019-04-17T17:20:49Z</time>
      </trkpt>
      <trkpt lat="45.63161" lon="2.82491">
        <ele>1238</ele>
        <time>2019-04-17T17:21:49Z</time>
      </trkpt>
      <trkpt lat="45.63202" lon="2.82483">
        <ele>1234</ele>
        <time>2019-04-17T17:22:49Z</time>
      </trkpt>
      <trkpt lat="45.6321" lon="2.82484">
        <ele>1234</ele>
        <time>2019-04-17T17:23:49Z</time>
      </trkpt>
      <trkpt lat="45.63217" lon="2.82488">
        <ele>1234</ele>
        <time>2019-04-17T17:24:49Z</time>
      </trkpt>
      <trkpt lat="45.63225" lon="2.82498">
        <ele>1236</ele>
        <time>2019-04-17T17:25:49Z</time>
      </trkpt>
      <trkpt lat="45.63229" lon="2.8251">
        <ele>1238</ele>
        <time>2019-04-17T17:26:49Z</time>
      </trkpt>
      <trkpt lat="45.63229" lon="2.82545">
        <ele>1245</ele>
        <time>2019-04-17T17:27:49Z</time>
      </trkpt>
      <trkpt lat="45.63233" lon="2.82549">
        <ele>1245</ele>
        <time>2019-04-17T17:28:49Z</time>
      </trkpt>
      <trkpt lat="45.63238" lon="2.82581">
        <ele>1249</ele>
        <time>2019-04-17T17:29:49Z</time>
      </trkpt>
      <trkpt lat="45.63243" lon="2.82598">
        <ele>1250</ele>
        <time>2019-04-17T17:30:49Z</time>
      </trkpt>
      <trkpt lat="45.63255" lon="2.82621">
        <ele>1251</ele>
        <time>2019-04-17T17:31:49Z</time>
      </trkpt>
      <trkpt lat="45.6327" lon="2.82636">
        <ele>1251</ele>
        <time>2019-04-17T17:32:49Z</time>
      </trkpt>
      <trkpt lat="45.6328" lon="2.82643">
        <ele>1250</ele>
        <time>2019-04-17T17:33:49Z</time>
      </trkpt>
      <trkpt lat="45.63291" lon="2.82643">
        <ele>1249</ele>
        <time>2019-04-17T17:34:49Z</time>
      </trkpt>
      <trkpt lat="45.63312" lon="2.82637">
        <ele>1245</ele>
        <time>2019-04-17T17:35:49Z</time>
      </trkpt>
      <trkpt lat="45.63335" lon="2.82621">
        <ele>1238</ele>
        <time>2019-04-17T17:36:49Z</time>
      </trkpt>
      <trkpt lat="45.63359" lon="2.82609">
        <ele>1235</ele>
        <time>2019-04-17T17:37:49Z</time>
      </trkpt>
      <trkpt lat="45.63399" lon="2.82601">
        <ele>1232</ele>
        <time>2019-04-17T17:38:49Z</time>
      </trkpt>
      <trkpt lat="45.63421" lon="2.82602">
        <ele>1231</ele>
        <time>2019-04-17T17:39:49Z</time>
      </trkpt>
      <trkpt lat="45.63432" lon="2.82605">
        <ele>1231</ele>
        <time>2019-04-17T17:40:49Z</time>
      </trkpt>
      <trkpt lat="45.63477" lon="2.82624">
        <ele>1230</ele>
        <time>2019-04-17T17:41:49Z</time>
      </trkpt>
      <trkpt lat="45.63546" lon="2.82629">
        <ele>1226</ele>
        <time>2019-04-17T17:42:49Z</time>
      </trkpt>
      <trkpt lat="45.63571" lon="2.82624">
        <ele>1223</ele>
        <time>2019-04-17T17:43:49Z</time>
      </trkpt>
      <trkpt lat="45.63647" lon="2.82599">
        <ele>1205</ele>
        <time>2019-04-17T17:44:49Z</time>
      </trkpt>
      <trkpt lat="45.63671" lon="2.82597">
        <ele>1201</ele>
        <time>2019-04-17T17:45:49Z</time>
      </trkpt>
      <trkpt lat="45.63695" lon="2.82601">
        <ele>1197</ele>
        <time>2019-04-17T17:46:49Z</time>
      </trkpt>
      <trkpt lat="45.6372" lon="2.8261">
        <ele>1195</ele>
        <time>2019-04-17T17:47:49Z</time>
      </trkpt>
      <trkpt lat="45.63758" lon="2.82631">
        <ele>1196</ele>
        <time>2019-04-17T17:48:49Z</time>
      </trkpt>
      <trkpt lat="45.63799" lon="2.8266">
        <ele>1197</ele>
        <time>2019-04-17T17:49:49Z</time>
      </trkpt>
      <trkpt lat="45.6381" lon="2.82663">
        <ele>1195</ele>
        <time>2019-04-17T17:50:49Z</time>
      </trkpt>
      <trkpt lat="45.63823" lon="2.82663">
        <ele>1192</ele>
        <time>2019-04-17T17:51:49Z</time>
      </trkpt>
      <trkpt lat="45.63877" lon="2.82657">
        <ele>1189</ele>
        <time>2019-04-17T17:52:49Z</time>
      </trkpt>
      <trkpt lat="45.63894" lon="2.82653">
        <ele>1189</ele>
        <time>2019-04-17T17:53:49Z</time>
      </trkpt>
      <trkpt lat="45.63917" lon="2.82643">
        <ele>1186</ele>
        <time>2019-04-17T17:54:49Z</time>
      </trkpt>
      <trkpt lat="45.63938" lon="2.82628">
        <ele>1185</ele>
        <time>2019-04-17T17:55:49Z</time>
      </trkpt>
      <trkpt lat="45.63961" lon="2.82606">
        <ele>1182</ele>
        <time>2019-04-17T17:56:49Z</time>
      </trkpt>
      <trkpt lat="45.64059" lon="2.82505">
        <ele>1174</ele>
        <time>2019-04-17T17:57:49Z</time>
      </trkpt>
      <trkpt lat="45.64083" lon="2.82484">
        <ele>1172</ele>
        <time>2019-04-17T17:58:49Z</time>
      </trkpt>
      <trkpt lat="45.64105" lon="2.82469">
        <ele>1168</ele>
        <time>2019-04-17T17:59:49Z</time>
      </trkpt>
      <trkpt lat="45.64128" lon="2.82458">
        <ele>1166</ele>
        <time>2019-04-17T18:00:49Z</time>
      </trkpt>
      <trkpt lat="45.64162" lon="2.82448">
        <ele>1163</ele>
        <time>2019-04-17T18:01:49Z</time>
      </trkpt>
      <trkpt lat="45.64198" lon="2.82445">
        <ele>1161</ele>
        <time>2019-04-17T18:02:49Z</time>
      </trkpt>
      <trkpt lat="45.64229" lon="2.82451">
        <ele>1160</ele>
        <time>2019-04-17T18:03:49Z</time>
      </trkpt>
      <trkpt lat="45.64248" lon="2.82457">
        <ele>1161</ele>
        <time>2019-04-17T18:04:49Z</time>
      </trkpt>
      <trkpt lat="45.64308" lon="2.82485">
        <ele>1158</ele>
        <time>2019-04-17T18:05:49Z</time>
      </trkpt>
      <trkpt lat="45.64369" lon="2.82501">
        <ele>1153</ele>
        <time>2019-04-17T18:06:49Z</time>
      </trkpt>
      <trkpt lat="45.64445" lon="2.82517">
        <ele>1148</ele>
        <time>2019-04-17T18:07:49Z</time>
      </trkpt>
      <trkpt lat="45.64464" lon="2.82517">
        <ele>1147</ele>
        <time>2019-04-17T18:08:49Z</time>
      </trkpt>
      <trkpt lat="45.64526" lon="2.82508">
        <ele>1140</ele>
        <time>2019-04-17T18:09:49Z</time>
      </trkpt>
      <trkpt lat="45.6455" lon="2.82512">
        <ele>1139</ele>
        <time>2019-04-17T18:10:49Z</time>
      </trkpt>
      <trkpt lat="45.64629" lon="2.8253">
        <ele>1136</ele>
        <time>2019-04-17T18:11:49Z</time>
      </trkpt>
      <trkpt lat="45.64652" lon="2.82525">
        <ele>1135</ele>
        <time>2019-04-17T18:12:49Z</time>
      </trkpt>
      <trkpt lat="45.6467" lon="2.82512">
        <ele>1133</ele>
        <time>2019-04-17T18:13:49Z</time>
      </trkpt>
      <trkpt lat="45.64755" lon="2.8243">
        <ele>1127</ele>
        <time>2019-04-17T18:14:49Z</time>
      </trkpt>
      <trkpt lat="45.6477" lon="2.82419">
        <ele>1126</ele>
        <time>2019-04-17T18:15:49Z</time>
      </trkpt>
      <trkpt lat="45.64785" lon="2.8241">
        <ele>1126</ele>
        <time>2019-04-17T18:16:49Z</time>
      </trkpt>
      <trkpt lat="45.64815" lon="2.82404">
        <ele>1126</ele>
        <time>2019-04-17T18:17:49Z</time>
      </trkpt>
      <trkpt lat="45.65145" lon="2.82358">
        <ele>1117</ele>
        <time>2019-04-17T18:18:49Z</time>
      </trkpt>
      <trkpt lat="45.65178" lon="2.82362">
        <ele>1117</ele>
        <time>2019-04-17T18:19:49Z</time>
      </trkpt>
      <trkpt lat="45.65199" lon="2.82373">
        <ele>1116</ele>
        <time>2019-04-17T18:20:49Z</time>
      </trkpt>
      <trkpt lat="45.65213" lon="2.82383">
        <ele>1116</ele>
        <time>2019-04-17T18:21:49Z</time>
      </trkpt>
      <trkpt lat="45.6535" lon="2.82501">
        <ele>1113</ele>
        <time>2019-04-17T18:22:49Z</time>
      </trkpt>
      <trkpt lat="45.65377" lon="2.82531">
        <ele>1112</ele>
        <time>2019-04-17T18:23:49Z</time>
      </trkpt>
      <trkpt lat="45.65512" lon="2.82715">
        <ele>1107</ele>
        <time>2019-04-17T18:24:49Z</time>
      </trkpt>
      <trkpt lat="45.65521" lon="2.8273">
        <ele>1106</ele>
        <time>2019-04-17T18:25:49Z</time>
      </trkpt>
      <trkpt lat="45.65529" lon="2.8275">
        <ele>1105</ele>
        <time>2019-04-17T18:26:49Z</time>
      </trkpt>
      <trkpt lat="45.65537" lon="2.82781">
        <ele>1104</ele>
        <time>2019-04-17T18:27:49Z</time>
      </trkpt>
      <trkpt lat="45.65541" lon="2.82816">
        <ele>1104</ele>
        <time>2019-04-17T18:28:49Z</time>
      </trkpt>
      <trkpt lat="45.6554" lon="2.82905">
        <ele>1102</ele>
        <time>2019-04-17T18:29:49Z</time>
      </trkpt>
      <trkpt lat="45.6554" lon="2.82924">
        <ele>1101</ele>
        <time>2019-04-17T18:30:49Z</time>
      </trkpt>
      <trkpt lat="45.65545" lon="2.82956">
        <ele>1099</ele>
        <time>2019-04-17T18:31:49Z</time>
      </trkpt>
      <trkpt lat="45.65557" lon="2.82992">
        <ele>1098</ele>
        <time>2019-04-17T18:32:49Z</time>
      </trkpt>
      <trkpt lat="45.65571" lon="2.83018">
        <ele>1096</ele>
        <time>2019-04-17T18:33:49Z</time>
      </trkpt>
      <trkpt lat="45.65589" lon="2.83039">
        <ele>1095</ele>
        <time>2019-04-17T18:34:49Z</time>
      </trkpt>
      <trkpt lat="45.65669" lon="2.83116">
        <ele>1092</ele>
        <time>2019-04-17T18:35:49Z</time>
      </trkpt>
      <trkpt lat="45.6569" lon="2.83145">
        <ele>1090</ele>
        <time>2019-04-17T18:36:49Z</time>
      </trkpt>
      <trkpt lat="45.65702" lon="2.83169">
        <ele>1088</ele>
        <time>2019-04-17T18:37:49Z</time>
      </trkpt>
      <trkpt lat="45.65801" lon="2.83387">
        <ele>1080</ele>
        <time>2019-04-17T18:38:49Z</time>
      </trkpt>
      <trkpt lat="45.65828" lon="2.83433">
        <ele>1079</ele>
        <time>2019-04-17T18:39:49Z</time>
      </trkpt>
      <trkpt lat="45.65859" lon="2.83471">
        <ele>1077</ele>
        <time>2019-04-17T18:40:49Z</time>
      </trkpt>
      <trkpt lat="45.66016" lon="2.83607">
        <ele>1066</ele>
        <time>2019-04-17T18:41:49Z</time>
      </trkpt>
      <trkpt lat="45.66064" lon="2.83636">
        <ele>1061</ele>
        <time>2019-04-17T18:42:49Z</time>
      </trkpt>
      <trkpt lat="45.6609" lon="2.83647">
        <ele>1059</ele>
        <time>2019-04-17T18:43:49Z</time>
      </trkpt>
      <trkpt lat="45.66102" lon="2.83649">
        <ele>1057</ele>
        <time>2019-04-17T18:44:49Z</time>
      </trkpt>
      <trkpt lat="45.66379" lon="2.83636">
        <ele>1045</ele>
        <time>2019-04-17T18:45:49Z</time>
      </trkpt>
      <trkpt lat="45.664" lon="2.83639">
        <ele>1043</ele>
        <time>2019-04-17T18:46:49Z</time>
      </trkpt>
      <trkpt lat="45.66416" lon="2.83648">
        <ele>1039</ele>
        <time>2019-04-17T18:47:49Z</time>
      </trkpt>
      <trkpt lat="45.66428" lon="2.83659">
        <ele>1037</ele>
        <time>2019-04-17T18:48:49Z</time>
      </trkpt>
      <trkpt lat="45.66463" lon="2.83714">
        <ele>1030</ele>
        <time>2019-04-17T18:49:49Z</time>
      </trkpt>
      <trkpt lat="45.66484" lon="2.83735">
        <ele>1028</ele>
        <time>2019-04-17T18:50:49Z</time>
      </trkpt>
      <trkpt lat="45.66556" lon="2.83784">
        <ele>1019</ele>
        <time>2019-04-17T18:51:49Z</time>
      </trkpt>
      <trkpt lat="45.66578" lon="2.8379">
        <ele>1018</ele>
        <time>2019-04-17T18:52:49Z</time>
      </trkpt>
      <trkpt lat="45.66605" lon="2.83788">
        <ele>1018</ele>
        <time>2019-04-17T18:53:49Z</time>
      </trkpt>
      <trkpt lat="45.667" lon="2.83767">
        <ele>1019</ele>
        <time>2019-04-17T18:54:49Z</time>
      </trkpt>
      <trkpt lat="45.66731" lon="2.83765">
        <ele>1018</ele>
        <time>2019-04-17T18:55:49Z</time>
      </trkpt>
      <trkpt lat="45.66835" lon="2.83784">
        <ele>1007</ele>
        <time>2019-04-17T18:56:49Z</time>
      </trkpt>
      <trkpt lat="45.67028" lon="2.83791">
        <ele>993</ele>
        <time>2019-04-17T18:57:49Z</time>
      </trkpt>
      <trkpt lat="45.67053" lon="2.83801">
        <ele>990</ele>
        <time>2019-04-17T18:58:49Z</time>
      </trkpt>
      <trkpt lat="45.67135" lon="2.83877">
        <ele>978</ele>
        <time>2019-04-17T18:59:49Z</time>
      </trkpt>
      <trkpt lat="45.672" lon="2.83919">
        <ele>973</ele>
        <time>2019-04-17T19:00:49Z</time>
      </trkpt>
      <trkpt lat="45.67221" lon="2.8393">
        <ele>970</ele>
        <time>2019-04-17T19:01:49Z</time>
      </trkpt>
      <trkpt lat="45.67238" lon="2.83931">
        <ele>971</ele>
        <time>2019-04-17T19:02:49Z</time>
      </trkpt>
      <trkpt lat="45.67368" lon="2.83893">
        <ele>958</ele>
        <time>2019-04-17T19:03:49Z</time>
      </trkpt>
      <trkpt lat="45.67388" lon="2.8388">
        <ele>956</ele>
        <time>2019-04-17T19:04:49Z</time>
      </trkpt>
      <trkpt lat="45.67396" lon="2.83871">
        <ele>955</ele>
        <time>2019-04-17T19:05:49Z</time>
      </trkpt>
      <trkpt lat="45.67408" lon="2.83849">
        <ele>954</ele>
        <time>2019-04-17T19:06:49Z</time>
      </trkpt>
      <trkpt lat="45.67423" lon="2.83819">
        <ele>953</ele>
        <time>2019-04-17T19:07:49Z</time>
      </trkpt>
      <trkpt lat="45.67437" lon="2.83801">
        <ele>952</ele>
        <time>2019-04-17T19:08:49Z</time>
      </trkpt>
      <trkpt lat="45.67457" lon="2.83789">
        <ele>952</ele>
        <time>2019-04-17T19:09:49Z</time>
      </trkpt>
      <trkpt lat="45.67473" lon="2.83788">
        <ele>951</ele>
        <time>2019-04-17T19:10:49Z</time>
      </trkpt>
      <trkpt lat="45.67484" lon="2.8379">
        <ele>950</ele>
        <time>2019-04-17T19:11:49Z</time>
      </trkpt>
      <trkpt lat="45.675" lon="2.83798">
        <ele>948</ele>
        <time>2019-04-17T19:12:49Z</time>
      </trkpt>
      <trkpt lat="45.67517" lon="2.83816">
        <ele>946</ele>
        <time>2019-04-17T19:13:49Z</time>
      </trkpt>
      <trkpt lat="45.67569" lon="2.83916">
        <ele>934</ele>
        <time>2019-04-17T19:14:49Z</time>
      </trkpt>
      <trkpt lat="45.67579" lon="2.8393">
        <ele>933</ele>
        <time>2019-04-17T19:15:49Z</time>
      </trkpt>
      <trkpt lat="45.6759" lon="2.83937">
        <ele>932</ele>
        <time>2019-04-17T19:16:49Z</time>
      </trkpt>
      <trkpt lat="45.67605" lon="2.83939">
        <ele>930</ele>
        <time>2019-04-17T19:17:49Z</time>
      </trkpt>
      <trkpt lat="45.67621" lon="2.83938">
        <ele>929</ele>
        <time>2019-04-17T19:18:49Z</time>
      </trkpt>
      <trkpt lat="45.67704" lon="2.83904">
        <ele>929</ele>
        <time>2019-04-17T19:19:49Z</time>
      </trkpt>
      <trkpt lat="45.67717" lon="2.83904">
        <ele>928</ele>
        <time>2019-04-17T19:20:49Z</time>
      </trkpt>
      <trkpt lat="45.67734" lon="2.8391">
        <ele>927</ele>
        <time>2019-04-17T19:21:49Z</time>
      </trkpt>
      <trkpt lat="45.67746" lon="2.83922">
        <ele>925</ele>
        <time>2019-04-17T19:22:49Z</time>
      </trkpt>
      <trkpt lat="45.67753" lon="2.83932">
        <ele>924</ele>
        <time>2019-04-17T19:23:49Z</time>
      </trkpt>
      <trkpt lat="45.6776" lon="2.83947">
        <ele>923</ele>
        <time>2019-04-17T19:24:49Z</time>
      </trkpt>
      <trkpt lat="45.67798" lon="2.84046">
        <ele>912</ele>
        <time>2019-04-17T19:25:49Z</time>
      </trkpt>
      <trkpt lat="45.67806" lon="2.84061">
        <ele>909</ele>
        <time>2019-04-17T19:26:49Z</time>
      </trkpt>
      <trkpt lat="45.67821" lon="2.84078">
        <ele>907</ele>
        <time>2019-04-17T19:27:49Z</time>
      </trkpt>
      <trkpt lat="45.6783" lon="2.84083">
        <ele>906</ele>
        <time>2019-04-17T19:28:49Z</time>
      </trkpt>
      <trkpt lat="45.67844" lon="2.84085">
        <ele>905</ele>
        <time>2019-04-17T19:29:49Z</time>
      </trkpt>
      <trkpt lat="45.67855" lon="2.84084">
        <ele>904</ele>
        <time>2019-04-17T19:30:49Z</time>
      </trkpt>
      <trkpt lat="45.67916" lon="2.8405">
        <ele>909</ele>
        <time>2019-04-17T19:31:49Z</time>
      </trkpt>
      <trkpt lat="45.67936" lon="2.84042">
        <ele>908</ele>
        <time>2019-04-17T19:32:49Z</time>
      </trkpt>
      <trkpt lat="45.67961" lon="2.84039">
        <ele>905</ele>
        <time>2019-04-17T19:33:49Z</time>
      </trkpt>
      <trkpt lat="45.67972" lon="2.8404">
        <ele>904</ele>
        <time>2019-04-17T19:34:49Z</time>
      </trkpt>
      <trkpt lat="45.67997" lon="2.84051">
        <ele>898</ele>
        <time>2019-04-17T19:35:49Z</time>
      </trkpt>
      <trkpt lat="45.68011" lon="2.8406">
        <ele>898</ele>
        <time>2019-04-17T19:36:49Z</time>
      </trkpt>
      <trkpt lat="45.68025" lon="2.84074">
        <ele>897</ele>
        <time>2019-04-17T19:37:49Z</time>
      </trkpt>
      <trkpt lat="45.68032" lon="2.84083">
        <ele>897</ele>
        <time>2019-04-17T19:38:49Z</time>
      </trkpt>
      <trkpt lat="45.68038" lon="2.84095">
        <ele>896</ele>
        <time>2019-04-17T19:39:49Z</time>
      </trkpt>
      <trkpt lat="45.68106" lon="2.84259">
        <ele>887</ele>
        <time>2019-04-17T19:40:49Z</time>
      </trkpt>
      <trkpt lat="45.68117" lon="2.84276">
        <ele>889</ele>
        <time>2019-04-17T19:41:49Z</time>
      </trkpt>
      <trkpt lat="45.68137" lon="2.8429">
        <ele>890</ele>
        <time>2019-04-17T19:42:49Z</time>
      </trkpt>
      <trkpt lat="45.68152" lon="2.84298">
        <ele>890</ele>
        <time>2019-04-17T19:43:49Z</time>
      </trkpt>
      <trkpt lat="45.68241" lon="2.84331">
        <ele>890</ele>
        <time>2019-04-17T19:44:49Z</time>
      </trkpt>
      <trkpt lat="45.68305" lon="2.84353">
        <ele>890</ele>
        <time>2019-04-17T19:45:49Z</time>
      </trkpt>
      <trkpt lat="45.68363" lon="2.84369">
        <ele>889</ele>
        <time>2019-04-17T19:46:49Z</time>
      </trkpt>
      <trkpt lat="45.68427" lon="2.84394">
        <ele>888</ele>
        <time>2019-04-17T19:47:49Z</time>
      </trkpt>
      <trkpt lat="45.68446" lon="2.84396">
        <ele>888</ele>
        <time>2019-04-17T19:48:49Z</time>
      </trkpt>
      <trkpt lat="45.68495" lon="2.84395">
        <ele>886</ele>
        <time>2019-04-17T19:49:49Z</time>
      </trkpt>
      <trkpt lat="45.68569" lon="2.84405">
        <ele>890</ele>
        <time>2019-04-17T19:50:49Z</time>
      </trkpt>
      <trkpt lat="45.68613" lon="2.84405">
        <ele>893</ele>
        <time>2019-04-17T19:51:49Z</time>
      </trkpt>
      <trkpt lat="45.68641" lon="2.84397">
        <ele>893</ele>
        <time>2019-04-17T19:52:49Z</time>
      </trkpt>
      <trkpt lat="45.6874" lon="2.84358">
        <ele>894</ele>
        <time>2019-04-17T19:53:49Z</time>
      </trkpt>
      <trkpt lat="45.68813" lon="2.8432">
        <ele>896</ele>
        <time>2019-04-17T19:54:49Z</time>
      </trkpt>
      <trkpt lat="45.6884" lon="2.8431">
        <ele>898</ele>
        <time>2019-04-17T19:55:49Z</time>
      </trkpt>
      <trkpt lat="45.68864" lon="2.84308">
        <ele>899</ele>
        <time>2019-04-17T19:56:49Z</time>
      </trkpt>
      <trkpt lat="45.68921" lon="2.84312">
        <ele>904</ele>
        <time>2019-04-17T19:57:49Z</time>
      </trkpt>
      <trkpt lat="45.68946" lon="2.84308">
        <ele>904</ele>
        <time>2019-04-17T19:58:49Z</time>
      </trkpt>
      <trkpt lat="45.68957" lon="2.84303">
        <ele>904</ele>
        <time>2019-04-17T19:59:49Z</time>
      </trkpt>
      <trkpt lat="45.6902" lon="2.8426">
        <ele>899</ele>
        <time>2019-04-17T20:00:49Z</time>
      </trkpt>
      <trkpt lat="45.69038" lon="2.84256">
        <ele>898</ele>
        <time>2019-04-17T20:01:49Z</time>
      </trkpt>
      <trkpt lat="45.6905" lon="2.84258">
        <ele>899</ele>
        <time>2019-04-17T20:02:49Z</time>
      </trkpt>
      <trkpt lat="45.69056" lon="2.84261">
        <ele>900</ele>
        <time>2019-04-17T20:03:49Z</time>
      </trkpt>
      <trkpt lat="45.69068" lon="2.84272">
        <ele>902</ele>
        <time>2019-04-17T20:04:49Z</time>
      </trkpt>
      <trkpt lat="45.69079" lon="2.84287">
        <ele>904</ele>
        <time>2019-04-17T20:05:49Z</time>
      </trkpt>
      <trkpt lat="45.69108" lon="2.84338">
        <ele>908</ele>
        <time>2019-04-17T20:06:49Z</time>
      </trkpt>
      <trkpt lat="45.6912" lon="2.84354">
        <ele>909</ele>
        <time>2019-04-17T20:07:49Z</time>
      </trkpt>
      <trkpt lat="45.69141" lon="2.84375">
        <ele>910</ele>
        <time>2019-04-17T20:08:49Z</time>
      </trkpt>
      <trkpt lat="45.69163" lon="2.8439">
        <ele>909</ele>
        <time>2019-04-17T20:09:49Z</time>
      </trkpt>
      <trkpt lat="45.69278" lon="2.84447">
        <ele>904</ele>
        <time>2019-04-17T20:10:49Z</time>
      </trkpt>
      <trkpt lat="45.69304" lon="2.84454">
        <ele>902</ele>
        <time>2019-04-17T20:11:49Z</time>
      </trkpt>
      <trkpt lat="45.69335" lon="2.84451">
        <ele>900</ele>
        <time>2019-04-17T20:12:49Z</time>
      </trkpt>
      <trkpt lat="45.69402" lon="2.84424">
        <ele>899</ele>
        <time>2019-04-17T20:13:49Z</time>
      </trkpt>
      <trkpt lat="45.69436" lon="2.84417">
        <ele>898</ele>
        <time>2019-04-17T20:14:49Z</time>
      </trkpt>
      <trkpt lat="45.69468" lon="2.84414">
        <ele>896</ele>
        <time>2019-04-17T20:15:49Z</time>
      </trkpt>
      <trkpt lat="45.69483" lon="2.84415">
        <ele>896</ele>
        <time>2019-04-17T20:16:49Z</time>
      </trkpt>
      <trkpt lat="45.69496" lon="2.84418">
        <ele>895</ele>
        <time>2019-04-17T20:17:49Z</time>
      </trkpt>
      <trkpt lat="45.6952" lon="2.84433">
        <ele>895</ele>
        <time>2019-04-17T20:18:49Z</time>
      </trkpt>
      <trkpt lat="45.69563" lon="2.84468">
        <ele>895</ele>
        <time>2019-04-17T20:19:49Z</time>
      </trkpt>
      <trkpt lat="45.69581" lon="2.84485">
        <ele>894</ele>
        <time>2019-04-17T20:20:49Z</time>
      </trkpt>
      <trkpt lat="45.69598" lon="2.84507">
        <ele>894</ele>
        <time>2019-04-17T20:21:49Z</time>
      </trkpt>
      <trkpt lat="45.69625" lon="2.84566">
        <ele>894</ele>
        <time>2019-04-17T20:22:49Z</time>
      </trkpt>
      <trkpt lat="45.69635" lon="2.84579">
        <ele>894</ele>
        <time>2019-04-17T20:23:49Z</time>
      </trkpt>
      <trkpt lat="45.69653" lon="2.84594">
        <ele>895</ele>
        <time>2019-04-17T20:24:49Z</time>
      </trkpt>
      <trkpt lat="45.69675" lon="2.84605">
        <ele>895</ele>
        <time>2019-04-17T20:25:49Z</time>
      </trkpt>
      <trkpt lat="45.69732" lon="2.84614">
        <ele>893</ele>
        <time>2019-04-17T20:26:49Z</time>
      </trkpt>
      <trkpt lat="45.69752" lon="2.84619">
        <ele>893</ele>
        <time>2019-04-17T20:27:49Z</time>
      </trkpt>
      <trkpt lat="45.69766" lon="2.84625">
        <ele>892</ele>
        <time>2019-04-17T20:28:49Z</time>
      </trkpt>
      <trkpt lat="45.6978" lon="2.84633">
        <ele>892</ele>
        <time>2019-04-17T20:29:49Z</time>
      </trkpt>
      <trkpt lat="45.69871" lon="2.84703">
        <ele>886</ele>
        <time>2019-04-17T20:30:49Z</time>
      </trkpt>
      <trkpt lat="45.69884" lon="2.84715">
        <ele>885</ele>
        <time>2019-04-17T20:31:49Z</time>
      </trkpt>
      <trkpt lat="45.69894" lon="2.84729">
        <ele>884</ele>
        <time>2019-04-17T20:32:49Z</time>
      </trkpt>
      <trkpt lat="45.69903" lon="2.84747">
        <ele>883</ele>
        <time>2019-04-17T20:33:49Z</time>
      </trkpt>
      <trkpt lat="45.69924" lon="2.84806">
        <ele>886</ele>
        <time>2019-04-17T20:34:49Z</time>
      </trkpt>
      <trkpt lat="45.69943" lon="2.84847">
        <ele>888</ele>
        <time>2019-04-17T20:35:49Z</time>
      </trkpt>
      <trkpt lat="45.69953" lon="2.84863">
        <ele>888</ele>
        <time>2019-04-17T20:36:49Z</time>
      </trkpt>
      <trkpt lat="45.69978" lon="2.84893">
        <ele>886</ele>
        <time>2019-04-17T20:37:49Z</time>
      </trkpt>
      <trkpt lat="45.70014" lon="2.84929">
        <ele>885</ele>
        <time>2019-04-17T20:38:49Z</time>
      </trkpt>
      <trkpt lat="45.70052" lon="2.84963">
        <ele>887</ele>
        <time>2019-04-17T20:39:49Z</time>
      </trkpt>
      <trkpt lat="45.70089" lon="2.84985">
        <ele>886</ele>
        <time>2019-04-17T20:40:49Z</time>
      </trkpt>
      <trkpt lat="45.70132" lon="2.84998">
        <ele>884</ele>
        <time>2019-04-17T20:41:49Z</time>
      </trkpt>
      <trkpt lat="45.70171" lon="2.85005">
        <ele>881</ele>
        <time>2019-04-17T20:42:49Z</time>
      </trkpt>
      <trkpt lat="45.70185" lon="2.85009">
        <ele>880</ele>
        <time>2019-04-17T20:43:49Z</time>
      </trkpt>
      <trkpt lat="45.70208" lon="2.85022">
        <ele>880</ele>
        <time>2019-04-17T20:44:49Z</time>
      </trkpt>
      <trkpt lat="45.70236" lon="2.85049">
        <ele>882</ele>
        <time>2019-04-17T20:45:49Z</time>
      </trkpt>
      <trkpt lat="45.70258" lon="2.85062">
        <ele>882</ele>
        <time>2019-04-17T20:46:49Z</time>
      </trkpt>
      <trkpt lat="45.70296" lon="2.85072">
        <ele>882</ele>
        <time>2019-04-17T20:47:49Z</time>
      </trkpt>
      <trkpt lat="45.70331" lon="2.85075">
        <ele>881</ele>
        <time>2019-04-17T20:48:49Z</time>
      </trkpt>
      <trkpt lat="45.70381" lon="2.85077">
        <ele>877</ele>
        <time>2019-04-17T20:49:49Z</time>
      </trkpt>
      <trkpt lat="45.70401" lon="2.85081">
        <ele>876</ele>
        <time>2019-04-17T20:50:49Z</time>
      </trkpt>
      <trkpt lat="45.70563" lon="2.85168">
        <ele>870</ele>
        <time>2019-04-17T20:51:49Z</time>
      </trkpt>
      <trkpt lat="45.70576" lon="2.8518">
        <ele>870</ele>
        <time>2019-04-17T20:52:49Z</time>
      </trkpt>
      <trkpt lat="45.70584" lon="2.85194">
        <ele>870</ele>
        <time>2019-04-17T20:53:49Z</time>
      </trkpt>
      <trkpt lat="45.70597" lon="2.85231">
        <ele>872</ele>
        <time>2019-04-17T20:54:49Z</time>
      </trkpt>
      <trkpt lat="45.70609" lon="2.85251">
        <ele>872</ele>
        <time>2019-04-17T20:55:49Z</time>
      </trkpt>
      <trkpt lat="45.70617" lon="2.85259">
        <ele>872</ele>
        <time>2019-04-17T20:56:49Z</time>
      </trkpt>
      <trkpt lat="45.70653" lon="2.85286">
        <ele>871</ele>
        <time>2019-04-17T20:57:49Z</time>
      </trkpt>
      <trkpt lat="45.70679" lon="2.85309">
        <ele>870</ele>
        <time>2019-04-17T20:58:49Z</time>
      </trkpt>
      <trkpt lat="45.70728" lon="2.85357">
        <ele>868</ele>
        <time>2019-04-17T20:59:49Z</time>
      </trkpt>
      <trkpt lat="45.70743" lon="2.85367">
        <ele>867</ele>
        <time>2019-04-17T21:00:49Z</time>
      </trkpt>
      <trkpt lat="45.70797" lon="2.85397">
        <ele>863</ele>
        <time>2019-04-17T21:01:49Z</time>
      </trkpt>
      <trkpt lat="45.70814" lon="2.85416">
        <ele>864</ele>
        <time>2019-04-17T21:02:49Z</time>
      </trkpt>
      <trkpt lat="45.7082" lon="2.85432">
        <ele>864</ele>
        <time>2019-04-17T21:03:49Z</time>
      </trkpt>
      <trkpt lat="45.70825" lon="2.85454">
        <ele>865</ele>
        <time>2019-04-17T21:04:49Z</time>
      </trkpt>
      <trkpt lat="45.70829" lon="2.8548">
        <ele>866</ele>
        <time>2019-04-17T21:05:49Z</time>
      </trkpt>
      <trkpt lat="45.70836" lon="2.85557">
        <ele>865</ele>
        <time>2019-04-17T21:06:49Z</time>
      </trkpt>
      <trkpt lat="45.7084" lon="2.85584">
        <ele>865</ele>
        <time>2019-04-17T21:07:49Z</time>
      </trkpt>
      <trkpt lat="45.70846" lon="2.8561">
        <ele>864</ele>
        <time>2019-04-17T21:08:49Z</time>
      </trkpt>
      <trkpt lat="45.70852" lon="2.8563">
        <ele>863</ele>
        <time>2019-04-17T21:09:49Z</time>
      </trkpt>
      <trkpt lat="45.70861" lon="2.8565">
        <ele>863</ele>
        <time>2019-04-17T21:10:49Z</time>
      </trkpt>
      <trkpt lat="45.70876" lon="2.85678">
        <ele>862</ele>
        <time>2019-04-17T21:11:49Z</time>
      </trkpt>
      <trkpt lat="45.70893" lon="2.85702">
        <ele>860</ele>
        <time>2019-04-17T21:12:49Z</time>
      </trkpt>
      <trkpt lat="45.70905" lon="2.85715">
        <ele>858</ele>
        <time>2019-04-17T21:13:49Z</time>
      </trkpt>
      <trkpt lat="45.70932" lon="2.85737">
        <ele>855</ele>
        <time>2019-04-17T21:14:49Z</time>
      </trkpt>
      <trkpt lat="45.70949" lon="2.85745">
        <ele>853</ele>
        <time>2019-04-17T21:15:49Z</time>
      </trkpt>
      <trkpt lat="45.70972" lon="2.85753">
        <ele>851</ele>
        <time>2019-04-17T21:16:49Z</time>
      </trkpt>
      <trkpt lat="45.7101" lon="2.85761">
        <ele>850</ele>
        <time>2019-04-17T21:17:49Z</time>
      </trkpt>
      <trkpt lat="45.71059" lon="2.8577">
        <ele>846</ele>
        <time>2019-04-17T21:18:49Z</time>
      </trkpt>
      <trkpt lat="45.71119" lon="2.85783">
        <ele>843</ele>
        <time>2019-04-17T21:19:49Z</time>
      </trkpt>
      <trkpt lat="45.71143" lon="2.85801">
        <ele>842</ele>
        <time>2019-04-17T21:20:49Z</time>
      </trkpt>
      <trkpt lat="45.71165" lon="2.8583">
        <ele>840</ele>
        <time>2019-04-17T21:21:49Z</time>
      </trkpt>
      <trkpt lat="45.71203" lon="2.85948">
        <ele>834</ele>
        <time>2019-04-17T21:22:49Z</time>
      </trkpt>
      <trkpt lat="45.71226" lon="2.8601">
        <ele>832</ele>
        <time>2019-04-17T21:23:49Z</time>
      </trkpt>
      <trkpt lat="45.71283" lon="2.86131">
        <ele>829</ele>
        <time>2019-04-17T21:24:49Z</time>
      </trkpt>
      <trkpt lat="45.71303" lon="2.86167">
        <ele>828</ele>
        <time>2019-04-17T21:25:49Z</time>
      </trkpt>
      <trkpt lat="45.71328" lon="2.86198">
        <ele>827</ele>
        <time>2019-04-17T21:26:49Z</time>
      </trkpt>
      <trkpt lat="45.71362" lon="2.86222">
        <ele>826</ele>
        <time>2019-04-17T21:27:49Z</time>
      </trkpt>
      <trkpt lat="45.71502" lon="2.86271">
        <ele>821</ele>
        <time>2019-04-17T21:28:49Z</time>
      </trkpt>
      <trkpt lat="45.71547" lon="2.8629">
        <ele>820</ele>
        <time>2019-04-17T21:29:49Z</time>
      </trkpt>
      <trkpt lat="45.7157" lon="2.86302">
        <ele>819</ele>
        <time>2019-04-17T21:30:49Z</time>
      </trkpt>
      <trkpt lat="45.71591" lon="2.86322">
        <ele>817</ele>
        <time>2019-04-17T21:31:49Z</time>
      </trkpt>
      <trkpt lat="45.71606" lon="2.86346">
        <ele>815</ele>
        <time>2019-04-17T21:32:49Z</time>
      </trkpt>
      <trkpt lat="45.71618" lon="2.8639">
        <ele>812</ele>
        <time>2019-04-17T21:33:49Z</time>
      </trkpt>
      <trkpt lat="45.71782" lon="2.87122">
        <ele>804</ele>
        <time>2019-04-17T21:34:49Z</time>
      </trkpt>
      <trkpt lat="45.71794" lon="2.87156">
        <ele>804</ele>
        <time>2019-04-17T21:35:49Z</time>
      </trkpt>
      <trkpt lat="45.71814" lon="2.8719">
        <ele>803</ele>
        <time>2019-04-17T21:36:49Z</time>
      </trkpt>
      <trkpt lat="45.71855" lon="2.87247">
        <ele>797</ele>
        <time>2019-04-17T21:37:49Z</time>
      </trkpt>
      <trkpt lat="45.71877" lon="2.87285">
        <ele>794</ele>
        <time>2019-04-17T21:38:49Z</time>
      </trkpt>
      <trkpt lat="45.71893" lon="2.87318">
        <ele>793</ele>
        <time>2019-04-17T21:39:49Z</time>
      </trkpt>
      <trkpt lat="45.71906" lon="2.87356">
        <ele>792</ele>
        <time>2019-04-17T21:40:49Z</time>
      </trkpt>
      <trkpt lat="45.71913" lon="2.87396">
        <ele>792</ele>
        <time>2019-04-17T21:41:49Z</time>
      </trkpt>
      <trkpt lat="45.71927" lon="2.87594">
        <ele>788</ele>
        <time>2019-04-17T21:42:49Z</time>
      </trkpt>
      <trkpt lat="45.71938" lon="2.87686">
        <ele>787</ele>
        <time>2019-04-17T21:43:49Z</time>
      </trkpt>
      <trkpt lat="45.71955" lon="2.87776">
        <ele>784</ele>
        <time>2019-04-17T21:44:49Z</time>
      </trkpt>
      <trkpt lat="45.71964" lon="2.87799">
        <ele>783</ele>
        <time>2019-04-17T21:45:49Z</time>
      </trkpt>
      <trkpt lat="45.71977" lon="2.87818">
        <ele>782</ele>
        <time>2019-04-17T21:46:49Z</time>
      </trkpt>
      <trkpt lat="45.72035" lon="2.87845">
        <ele>782</ele>
        <time>2019-04-17T21:47:49Z</time>
      </trkpt>
      <trkpt lat="45.72049" lon="2.87861">
        <ele>782</ele>
        <time>2019-04-17T21:48:49Z</time>
      </trkpt>
      <trkpt lat="45.72056" lon="2.87878">
        <ele>781</ele>
        <time>2019-04-17T21:49:49Z</time>
      </trkpt>
      <trkpt lat="45.72059" lon="2.87894">
        <ele>780</ele>
        <time>2019-04-17T21:50:49Z</time>
      </trkpt>
      <trkpt lat="45.7206" lon="2.87908">
        <ele>779</ele>
        <time>2019-04-17T21:51:49Z</time>
      </trkpt>
      <trkpt lat="45.72056" lon="2.87955">
        <ele>779</ele>
        <time>2019-04-17T21:52:49Z</time>
      </trkpt>
      <trkpt lat="45.72059" lon="2.87987">
        <ele>778</ele>
        <time>2019-04-17T21:53:49Z</time>
      </trkpt>
      <trkpt lat="45.72076" lon="2.88036">
        <ele>778</ele>
        <time>2019-04-17T21:54:49Z</time>
      </trkpt>
      <trkpt lat="45.72117" lon="2.88122">
        <ele>782</ele>
        <time>2019-04-17T21:55:49Z</time>
      </trkpt>
      <trkpt lat="45.72164" lon="2.88183">
        <ele>785</ele>
        <time>2019-04-17T21:56:49Z</time>
      </trkpt>
      <trkpt lat="45.72185" lon="2.88189">
        <ele>786</ele>
        <time>2019-04-17T21:57:49Z</time>
      </trkpt>
      <trkpt lat="45.72241" lon="2.88184">
        <ele>789</ele>
        <time>2019-04-17T21:58:49Z</time>
      </trkpt>
      <trkpt lat="45.7228" lon="2.88185">
        <ele>792</ele>
        <time>2019-04-17T21:59:49Z</time>
      </trkpt>
      <trkpt lat="45.72332" lon="2.88201">
        <ele>794</ele>
        <time>2019-04-17T22:00:49Z</time>
      </trkpt>
      <trkpt lat="45.72373" lon="2.88219">
        <ele>796</ele>
        <time>2019-04-17T22:01:49Z</time>
      </trkpt>
      <trkpt lat="45.72405" lon="2.8824">
        <ele>797</ele>
        <time>2019-04-17T22:02:49Z</time>
      </trkpt>
      <trkpt lat="45.72469" lon="2.8821">
        <ele>797</ele>
        <time>2019-04-17T22:03:49Z</time>
      </trkpt>
      <trkpt lat="45.72484" lon="2.88198">
        <ele>797</ele>
        <time>2019-04-17T22:04:49Z</time>
      </trkpt>
      <trkpt lat="45.72693" lon="2.88002">
        <ele>798</ele>
        <time>2019-04-17T22:05:49Z</time>
      </trkpt>
      <trkpt lat="45.72703" lon="2.87987">
        <ele>798</ele>
        <time>2019-04-17T22:06:49Z</time>
      </trkpt>
      <trkpt lat="45.7273" lon="2.87917">
        <ele>799</ele>
        <time>2019-04-17T22:07:49Z</time>
      </trkpt>
      <trkpt lat="45.72766" lon="2.87851">
        <ele>796</ele>
        <time>2019-04-17T22:08:49Z</time>
      </trkpt>
      <trkpt lat="45.72779" lon="2.8783">
        <ele>795</ele>
        <time>2019-04-17T22:09:49Z</time>
      </trkpt>
      <trkpt lat="45.72795" lon="2.87821">
        <ele>794</ele>
        <time>2019-04-17T22:10:49Z</time>
      </trkpt>
      <trkpt lat="45.72859" lon="2.87746">
        <ele>789</ele>
        <time>2019-04-17T22:11:49Z</time>
      </trkpt>
      <trkpt lat="45.72874" lon="2.87734">
        <ele>788</ele>
        <time>2019-04-17T22:12:49Z</time>
      </trkpt>
      <trkpt lat="45.72967" lon="2.87732">
        <ele>787</ele>
        <time>2019-04-17T22:13:49Z</time>
      </trkpt>
      <trkpt lat="45.72996" lon="2.87744">
        <ele>787</ele>
        <time>2019-04-17T22:14:49Z</time>
      </trkpt>
      <trkpt lat="45.73036" lon="2.8773">
        <ele>785</ele>
        <time>2019-04-17T22:15:49Z</time>
      </trkpt>
      <trkpt lat="45.73064" lon="2.87723">
        <ele>784</ele>
        <time>2019-04-17T22:16:49Z</time>
      </trkpt>
      <trkpt lat="45.73071" lon="2.87726">
        <ele>784</ele>
        <time>2019-04-17T22:17:49Z</time>
      </trkpt>
      <trkpt lat="45.73075" lon="2.87715">
        <ele>784</ele>
        <time>2019-04-17T22:18:49Z</time>
      </trkpt>
      <trkpt lat="45.73079" lon="2.87718">
        <ele>784</ele>
        <time>2019-04-17T22:19:49Z</time>
      </trkpt>
      <trkpt lat="45.73087" lon="2.87718">
        <ele>783</ele>
        <time>2019-04-17T22:20:49Z</time>
      </trkpt>
      <trkpt lat="45.73094" lon="2.87712">
        <ele>783</ele>
        <time>2019-04-17T22:21:49Z</time>
      </trkpt>
      <trkpt lat="45.73169" lon="2.87617">
        <ele>780</ele>
        <time>2019-04-17T22:22:49Z</time>
      </trkpt>
      <trkpt lat="45.73249" lon="2.87563">
        <ele>777</ele>
        <time>2019-04-17T22:23:49Z</time>
      </trkpt>
      <trkpt lat="45.73314" lon="2.87538">
        <ele>775</ele>
        <time>2019-04-17T22:24:49Z</time>
      </trkpt>
      <trkpt lat="45.73481" lon="2.87428">
        <ele>773</ele>
        <time>2019-04-17T22:25:49Z</time>
      </trkpt>
      <trkpt lat="45.73577" lon="2.87371">
        <ele>772</ele>
        <time>2019-04-17T22:26:49Z</time>
      </trkpt>
      <trkpt lat="45.73604" lon="2.87363">
        <ele>772</ele>
        <time>2019-04-17T22:27:49Z</time>
      </trkpt>
      <trkpt lat="45.73659" lon="2.87363">
        <ele>771</ele>
        <time>2019-04-17T22:28:49Z</time>
      </trkpt>
      <trkpt lat="45.73669" lon="2.87366">
        <ele>771</ele>
        <time>2019-04-17T22:29:49Z</time>
      </trkpt>
      <trkpt lat="45.73713" lon="2.87391">
        <ele>771</ele>
        <time>2019-04-17T22:30:49Z</time>
      </trkpt>
      <trkpt lat="45.73729" lon="2.87395">
        <ele>771</ele>
        <time>2019-04-17T22:31:49Z</time>
      </trkpt>
      <trkpt lat="45.7376" lon="2.87391">
        <ele>771</ele>
        <time>2019-04-17T22:32:49Z</time>
      </trkpt>
      <trkpt lat="45.73791" lon="2.87377">
        <ele>771</ele>
        <time>2019-04-17T22:33:49Z</time>
      </trkpt>
      <trkpt lat="45.73836" lon="2.87362">
        <ele>771</ele>
        <time>2019-04-17T22:34:49Z</time>
      </trkpt>
      <trkpt lat="45.73874" lon="2.87342">
        <ele>770</ele>
        <time>2019-04-17T22:35:49Z</time>
      </trkpt>
      <trkpt lat="45.73886" lon="2.87333">
        <ele>770</ele>
        <time>2019-04-17T22:36:49Z</time>
      </trkpt>
      <trkpt lat="45.73949" lon="2.87219">
        <ele>768</ele>
        <time>2019-04-17T22:37:49Z</time>
      </trkpt>
      <trkpt lat="45.73966" lon="2.87206">
        <ele>768</ele>
        <time>2019-04-17T22:38:49Z</time>
      </trkpt>
      <trkpt lat="45.7403" lon="2.87169">
        <ele>766</ele>
        <time>2019-04-17T22:39:49Z</time>
      </trkpt>
      <trkpt lat="45.7407" lon="2.87142">
        <ele>765</ele>
        <time>2019-04-17T22:40:49Z</time>
      </trkpt>
      <trkpt lat="45.74072" lon="2.87128">
        <ele>765</ele>
        <time>2019-04-17T22:41:49Z</time>
      </trkpt>
      <trkpt lat="45.74069" lon="2.87088">
        <ele>765</ele>
        <time>2019-04-17T22:42:49Z</time>
      </trkpt>
      <trkpt lat="45.74069" lon="2.87068">
        <ele>765</ele>
        <time>2019-04-17T22:43:49Z</time>
      </trkpt>
      <trkpt lat="45.74073" lon="2.87056">
        <ele>765</ele>
        <time>2019-04-17T22:44:49Z</time>
      </trkpt>
      <trkpt lat="45.74126" lon="2.86973">
        <ele>764</ele>
        <time>2019-04-17T22:45:49Z</time>
      </trkpt>
      <trkpt lat="45.74137" lon="2.8695">
        <ele>764</ele>
        <time>2019-04-17T22:46:49Z</time>
      </trkpt>
      <trkpt lat="45.74144" lon="2.86923">
        <ele>765</ele>
        <time>2019-04-17T22:47:49Z</time>
      </trkpt>
      <trkpt lat="45.74147" lon="2.869">
        <ele>764</ele>
        <time>2019-04-17T22:48:49Z</time>
      </trkpt>
      <trkpt lat="45.74145" lon="2.86852">
        <ele>763</ele>
        <time>2019-04-17T22:49:49Z</time>
      </trkpt>
      <trkpt lat="45.74222" lon="2.86807">
        <ele>762</ele>
        <time>2019-04-17T22:50:49Z</time>
      </trkpt>
      <trkpt lat="45.74355" lon="2.86685">
        <ele>760</ele>
        <time>2019-04-17T22:51:49Z</time>
      </trkpt>
      <trkpt lat="45.744" lon="2.86643">
        <ele>759</ele>
        <time>2019-04-17T22:52:49Z</time>
      </trkpt>
      <trkpt lat="45.7442" lon="2.86622">
        <ele>758</ele>
        <time>2019-04-17T22:53:49Z</time>
      </trkpt>
      <trkpt lat="45.74447" lon="2.86602">
        <ele>756</ele>
        <time>2019-04-17T22:54:49Z</time>
      </trkpt>
      <trkpt lat="45.74457" lon="2.86599">
        <ele>756</ele>
        <time>2019-04-17T22:55:49Z</time>
      </trkpt>
      <trkpt lat="45.74467" lon="2.86599">
        <ele>756</ele>
        <time>2019-04-17T22:56:49Z</time>
      </trkpt>
      <trkpt lat="45.74528" lon="2.86634">
        <ele>759</ele>
        <time>2019-04-17T22:57:49Z</time>
      </trkpt>
      <trkpt lat="45.74537" lon="2.86633">
        <ele>758</ele>
        <time>2019-04-17T22:58:49Z</time>
      </trkpt>
      <trkpt lat="45.74562" lon="2.8662">
        <ele>757</ele>
        <time>2019-04-17T22:59:49Z</time>
      </trkpt>
      <trkpt lat="45.74574" lon="2.86618">
        <ele>757</ele>
        <time>2019-04-17T23:00:49Z</time>
      </trkpt>
      <trkpt lat="45.74591" lon="2.86619">
        <ele>757</ele>
        <time>2019-04-17T23:01:49Z</time>
      </trkpt>
      <trkpt lat="45.74617" lon="2.86625">
        <ele>757</ele>
        <time>2019-04-17T23:02:49Z</time>
      </trkpt>
      <trkpt lat="45.74656" lon="2.86626">
        <ele>756</ele>
        <time>2019-04-17T23:03:49Z</time>
      </trkpt>
      <trkpt lat="45.74674" lon="2.86632">
        <ele>756</ele>
        <time>2019-04-17T23:04:49Z</time>
      </trkpt>
      <trkpt lat="45.74725" lon="2.86641">
        <ele>756</ele>
        <time>2019-04-17T23:05:49Z</time>
      </trkpt>
      <trkpt lat="45.74751" lon="2.86622">
        <ele>755</ele>
        <time>2019-04-17T23:06:49Z</time>
      </trkpt>
      <trkpt lat="45.74755" lon="2.86616">
        <ele>755</ele>
        <time>2019-04-17T23:07:49Z</time>
      </trkpt>
      <trkpt lat="45.74763" lon="2.86598">
        <ele>753</ele>
        <time>2019-04-17T23:08:49Z</time>
      </trkpt>
      <trkpt lat="45.74763" lon="2.86588">
        <ele>752</ele>
        <time>2019-04-17T23:09:49Z</time>
      </trkpt>
      <trkpt lat="45.74788" lon="2.86572">
        <ele>750</ele>
        <time>2019-04-17T23:10:49Z</time>
      </trkpt>
      <trkpt lat="45.74805" lon="2.86565">
        <ele>748</ele>
        <time>2019-04-17T23:11:49Z</time>
      </trkpt>
      <trkpt lat="45.74819" lon="2.86564">
        <ele>747</ele>
        <time>2019-04-17T23:12:49Z</time>
      </trkpt>
      <trkpt lat="45.74867" lon="2.86576">
        <ele>747</ele>
        <time>2019-04-17T23:13:49Z</time>
      </trkpt>
      <trkpt lat="45.74875" lon="2.86576">
        <ele>747</ele>
        <time>2019-04-17T23:14:49Z</time>
      </trkpt>
      <trkpt lat="45.74898" lon="2.86567">
        <ele>746</ele>
        <time>2019-04-17T23:15:49Z</time>
      </trkpt>
      <trkpt lat="45.74953" lon="2.86521">
        <ele>742</ele>
        <time>2019-04-17T23:16:49Z</time>
      </trkpt>
      <trkpt lat="45.74976" lon="2.86512">
        <ele>741</ele>
        <time>2019-04-17T23:17:49Z</time>
      </trkpt>
      <trkpt lat="45.74992" lon="2.86509">
        <ele>741</ele>
        <time>2019-04-17T23:18:49Z</time>
      </trkpt>
      <trkpt lat="45.75051" lon="2.86508">
        <ele>741</ele>
        <time>2019-04-17T23:19:49Z</time>
      </trkpt>
      <trkpt lat="45.7507" lon="2.86499">
        <ele>741</ele>
        <time>2019-04-17T23:20:49Z</time>
      </trkpt>
      <trkpt lat="45.75109" lon="2.86461">
        <ele>743</ele>
        <time>2019-04-17T23:21:49Z</time>
      </trkpt>
      <trkpt lat="45.75119" lon="2.86454">
        <ele>744</ele>
        <time>2019-04-17T23:22:49Z</time>
      </trkpt>
      <trkpt lat="45.75135" lon="2.86449">
        <ele>745</ele>
        <time>2019-04-17T23:23:49Z</time>
      </trkpt>
      <trkpt lat="45.75164" lon="2.86448">
        <ele>746</ele>
        <time>2019-04-17T23:24:49Z</time>
      </trkpt>
      <trkpt lat="45.75233" lon="2.86452">
        <ele>750</ele>
        <time>2019-04-17T23:25:49Z</time>
      </trkpt>
      <trkpt lat="45.75245" lon="2.86449">
        <ele>751</ele>
        <time>2019-04-17T23:26:49Z</time>
      </trkpt>
      <trkpt lat="45.75347" lon="2.86399">
        <ele>760</ele>
        <time>2019-04-17T23:27:49Z</time>
      </trkpt>
      <trkpt lat="45.75368" lon="2.86391">
        <ele>761</ele>
        <time>2019-04-17T23:28:49Z</time>
      </trkpt>
      <trkpt lat="45.75375" lon="2.86391">
        <ele>762</ele>
        <time>2019-04-17T23:29:49Z</time>
      </trkpt>
      <trkpt lat="45.75415" lon="2.86402">
        <ele>764</ele>
        <time>2019-04-17T23:30:49Z</time>
      </trkpt>
      <trkpt lat="45.75423" lon="2.86402">
        <ele>764</ele>
        <time>2019-04-17T23:31:49Z</time>
      </trkpt>
      <trkpt lat="45.75439" lon="2.86393">
        <ele>765</ele>
        <time>2019-04-17T23:32:49Z</time>
      </trkpt>
      <trkpt lat="45.75455" lon="2.86378">
        <ele>766</ele>
        <time>2019-04-17T23:33:49Z</time>
      </trkpt>
      <trkpt lat="45.75467" lon="2.86359">
        <ele>767</ele>
        <time>2019-04-17T23:34:49Z</time>
      </trkpt>
      <trkpt lat="45.75478" lon="2.86327">
        <ele>769</ele>
        <time>2019-04-17T23:35:49Z</time>
      </trkpt>
      <trkpt lat="45.75511" lon="2.86187">
        <ele>781</ele>
        <time>2019-04-17T23:36:49Z</time>
      </trkpt>
      <trkpt lat="45.7553" lon="2.86165">
        <ele>781</ele>
        <time>2019-04-17T23:37:49Z</time>
      </trkpt>
      <trkpt lat="45.75589" lon="2.86111">
        <ele>781</ele>
        <time>2019-04-17T23:38:49Z</time>
      </trkpt>
      <trkpt lat="45.75604" lon="2.86093">
        <ele>781</ele>
        <time>2019-04-17T23:39:49Z</time>
      </trkpt>
      <trkpt lat="45.75632" lon="2.86047">
        <ele>782</ele>
        <time>2019-04-17T23:40:49Z</time>
      </trkpt>
      <trkpt lat="45.75734" lon="2.85907">
        <ele>784</ele>
        <time>2019-04-17T23:41:49Z</time>
      </trkpt>
      <trkpt lat="45.75785" lon="2.85848">
        <ele>783</ele>
        <time>2019-04-17T23:42:49Z</time>
      </trkpt>
      <trkpt lat="45.75832" lon="2.85783">
        <ele>784</ele>
        <time>2019-04-17T23:43:49Z</time>
      </trkpt>
      <trkpt lat="45.75883" lon="2.85698">
        <ele>784</ele>
        <time>2019-04-17T23:44:49Z</time>
      </trkpt>
      <trkpt lat="45.75938" lon="2.85635">
        <ele>785</ele>
        <time>2019-04-17T23:45:49Z</time>
      </trkpt>
      <trkpt lat="45.76103" lon="2.85418">
        <ele>792</ele>
        <time>2019-04-17T23:46:49Z</time>
      </trkpt>
      <trkpt lat="45.7614" lon="2.85352">
        <ele>793</ele>
        <time>2019-04-17T23:47:49Z</time>
      </trkpt>
      <trkpt lat="45.76182" lon="2.85221">
        <ele>796</ele>
        <time>2019-04-17T23:48:49Z</time>
      </trkpt>
      <trkpt lat="45.76206" lon="2.85178">
        <ele>797</ele>
        <time>2019-04-17T23:49:49Z</time>
      </trkpt>
      <trkpt lat="45.76211" lon="2.85177">
        <ele>797</ele>
        <time>2019-04-17T23:50:49Z</time>
      </trkpt>
      <trkpt lat="45.76228" lon="2.85183">
        <ele>797</ele>
        <time>2019-04-17T23:51:49Z</time>
      </trkpt>
      <trkpt lat="45.7625" lon="2.85182">
        <ele>798</ele>
        <time>2019-04-17T23:52:49Z</time>
      </trkpt>
      <trkpt lat="45.76416" lon="2.8524">
        <ele>791</ele>
        <time>2019-04-17T23:53:49Z</time>
      </trkpt>
      <trkpt lat="45.76452" lon="2.85255">
        <ele>790</ele>
        <time>2019-04-17T23:54:49Z</time>
      </trkpt>
      <trkpt lat="45.76475" lon="2.85268">
        <ele>790</ele>
        <time>2019-04-17T23:55:49Z</time>
      </trkpt>
      <trkpt lat="45.76525" lon="2.85309">
        <ele>789</ele>
        <time>2019-04-17T23:56:49Z</time>
      </trkpt>
      <trkpt lat="45.76574" lon="2.85343">
        <ele>789</ele>
        <time>2019-04-17T23:57:49Z</time>
      </trkpt>
      <trkpt lat="45.76654" lon="2.85378">
        <ele>787</ele>
        <time>2019-04-17T23:58:49Z</time>
      </trkpt>
      <trkpt lat="45.76693" lon="2.85392">
        <ele>787</ele>
        <time>2019-04-17T23:59:49Z</time>
      </trkpt>
      <trkpt lat="45.76735" lon="2.85401">
        <ele>787</ele>
        <time>2019-04-18T00:00:49Z</time>
      </trkpt>
      <trkpt lat="45.76796" lon="2.85422">
        <ele>787</ele>
        <time>2019-04-18T00:01:49Z</time>
      </trkpt>
      <trkpt lat="45.76815" lon="2.85437">
        <ele>787</ele>
        <time>2019-04-18T00:02:49Z</time>
      </trkpt>
      <trkpt lat="45.76841" lon="2.8547">
        <ele>786</ele>
        <time>2019-04-18T00:03:49Z</time>
      </trkpt>
      <trkpt lat="45.76884" lon="2.8551">
        <ele>785</ele>
        <time>2019-04-18T00:04:49Z</time>
      </trkpt>
      <trkpt lat="45.76941" lon="2.85566">
        <ele>783</ele>
        <time>2019-04-18T00:05:49Z</time>
      </trkpt>
      <trkpt lat="45.76953" lon="2.85576">
        <ele>783</ele>
        <time>2019-04-18T00:06:49Z</time>
      </trkpt>
      <trkpt lat="45.76985" lon="2.85595">
        <ele>782</ele>
        <time>2019-04-18T00:07:49Z</time>
      </trkpt>
      <trkpt lat="45.7701" lon="2.85599">
        <ele>782</ele>
        <time>2019-04-18T00:08:49Z</time>
      </trkpt>
      <trkpt lat="45.77128" lon="2.85599">
        <ele>780</ele>
        <time>2019-04-18T00:09:49Z</time>
      </trkpt>
      <trkpt lat="45.77456" lon="2.85626">
        <ele>776</ele>
        <time>2019-04-18T00:10:49Z</time>
      </trkpt>
      <trkpt lat="45.77583" lon="2.85609">
        <ele>776</ele>
        <time>2019-04-18T00:11:49Z</time>
      </trkpt>
      <trkpt lat="45.77646" lon="2.85605">
        <ele>775</ele>
        <time>2019-04-18T00:12:49Z</time>
      </trkpt>
      <trkpt lat="45.77681" lon="2.85609">
        <ele>775</ele>
        <time>2019-04-18T00:13:49Z</time>
      </trkpt>
      <trkpt lat="45.7776" lon="2.85624">
        <ele>773</ele>
        <time>2019-04-18T00:14:49Z</time>
      </trkpt>
      <trkpt lat="45.77783" lon="2.85631">
        <ele>773</ele>
        <time>2019-04-18T00:15:49Z</time>
      </trkpt>
      <trkpt lat="45.77848" lon="2.85658">
        <ele>771</ele>
        <time>2019-04-18T00:16:49Z</time>
      </trkpt>
      <trkpt lat="45.77914" lon="2.85681">
        <ele>768</ele>
        <time>2019-04-18T00:17:49Z</time>
      </trkpt>
      <trkpt lat="45.77961" lon="2.85706">
        <ele>765</ele>
        <time>2019-04-18T00:18:49Z</time>
      </trkpt>
      <trkpt lat="45.77977" lon="2.85718">
        <ele>764</ele>
        <time>2019-04-18T00:19:49Z</time>
      </trkpt>
      <trkpt lat="45.78013" lon="2.85761">
        <ele>761</ele>
        <time>2019-04-18T00:20:49Z</time>
      </trkpt>
      <trkpt lat="45.78067" lon="2.8584">
        <ele>756</ele>
        <time>2019-04-18T00:21:49Z</time>
      </trkpt>
      <trkpt lat="45.78096" lon="2.85885">
        <ele>753</ele>
        <time>2019-04-18T00:22:49Z</time>
      </trkpt>
      <trkpt lat="45.78111" lon="2.85904">
        <ele>753</ele>
        <time>2019-04-18T00:23:49Z</time>
      </trkpt>
      <trkpt lat="45.78127" lon="2.85916">
        <ele>752</ele>
        <time>2019-04-18T00:24:49Z</time>
      </trkpt>
      <trkpt lat="45.78133" lon="2.85917">
        <ele>752</ele>
        <time>2019-04-18T00:25:49Z</time>
      </trkpt>
      <trkpt lat="45.78157" lon="2.8591">
        <ele>752</ele>
        <time>2019-04-18T00:26:49Z</time>
      </trkpt>
      <trkpt lat="45.782" lon="2.85892">
        <ele>750</ele>
        <time>2019-04-18T00:27:49Z</time>
      </trkpt>
      <trkpt lat="45.7821" lon="2.85889">
        <ele>750</ele>
        <time>2019-04-18T00:28:49Z</time>
      </trkpt>
      <trkpt lat="45.78228" lon="2.85889">
        <ele>749</ele>
        <time>2019-04-18T00:29:49Z</time>
      </trkpt>
      <trkpt lat="45.78254" lon="2.85898">
        <ele>748</ele>
        <time>2019-04-18T00:30:49Z</time>
      </trkpt>
      <trkpt lat="45.78292" lon="2.85921">
        <ele>748</ele>
        <time>2019-04-18T00:31:49Z</time>
      </trkpt>
      <trkpt lat="45.78321" lon="2.8593">
        <ele>748</ele>
        <time>2019-04-18T00:32:49Z</time>
      </trkpt>
      <trkpt lat="45.78333" lon="2.85931">
        <ele>748</ele>
        <time>2019-04-18T00:33:49Z</time>
      </trkpt>
      <trkpt lat="45.78355" lon="2.85928">
        <ele>748</ele>
        <time>2019-04-18T00:34:49Z</time>
      </trkpt>
      <trkpt lat="45.78384" lon="2.85918">
        <ele>747</ele>
        <time>2019-04-18T00:35:49Z</time>
      </trkpt>
      <trkpt lat="45.78404" lon="2.85916">
        <ele>747</ele>
        <time>2019-04-18T00:36:49Z</time>
      </trkpt>
      <trkpt lat="45.78422" lon="2.85922">
        <ele>747</ele>
        <time>2019-04-18T00:37:49Z</time>
      </trkpt>
      <trkpt lat="45.78445" lon="2.85933">
        <ele>747</ele>
        <time>2019-04-18T00:38:49Z</time>
      </trkpt>
      <trkpt lat="45.78476" lon="2.85931">
        <ele>746</ele>
        <time>2019-04-18T00:39:49Z</time>
      </trkpt>
      <trkpt lat="45.78481" lon="2.85933">
        <ele>746</ele>
        <time>2019-04-18T00:40:49Z</time>
      </trkpt>
      <trkpt lat="45.78496" lon="2.85947">
        <ele>747</ele>
        <time>2019-04-18T00:41:49Z</time>
      </trkpt>
      <trkpt lat="45.78502" lon="2.85955">
        <ele>747</ele>
        <time>2019-04-18T00:42:49Z</time>
      </trkpt>
      <trkpt lat="45.78516" lon="2.8598">
        <ele>748</ele>
        <time>2019-04-18T00:43:49Z</time>
      </trkpt>
      <trkpt lat="45.78536" lon="2.86021">
        <ele>749</ele>
        <time>2019-04-18T00:44:49Z</time>
      </trkpt>
      <trkpt lat="45.78543" lon="2.86047">
        <ele>749</ele>
        <time>2019-04-18T00:45:49Z</time>
      </trkpt>
      <trkpt lat="45.78551" lon="2.86093">
        <ele>749</ele>
        <time>2019-04-18T00:46:49Z</time>
      </trkpt>
      <trkpt lat="45.78552" lon="2.86131">
        <ele>749</ele>
        <time>2019-04-18T00:47:49Z</time>
      </trkpt>
      <trkpt lat="45.7855" lon="2.86147">
        <ele>750</ele>
        <time>2019-04-18T00:48:49Z</time>
      </trkpt>
      <trkpt lat="45.78521" lon="2.86237">
        <ele>752</ele>
        <time>2019-04-18T00:49:49Z</time>
      </trkpt>
      <trkpt lat="45.78511" lon="2.86292">
        <ele>754</ele>
        <time>2019-04-18T00:50:49Z</time>
      </trkpt>
      <trkpt lat="45.78509" lon="2.86368">
        <ele>757</ele>
        <time>2019-04-18T00:51:49Z</time>
      </trkpt>
      <trkpt lat="45.78505" lon="2.86386">
        <ele>758</ele>
        <time>2019-04-18T00:52:49Z</time>
      </trkpt>
      <trkpt lat="45.78494" lon="2.86415">
        <ele>759</ele>
        <time>2019-04-18T00:53:49Z</time>
      </trkpt>
      <trkpt lat="45.78488" lon="2.86425">
        <ele>760</ele>
        <time>2019-04-18T00:54:49Z</time>
      </trkpt>
      <trkpt lat="45.78473" lon="2.8644">
        <ele>761</ele>
        <time>2019-04-18T00:55:49Z</time>
      </trkpt>
      <trkpt lat="45.7842" lon="2.86484">
        <ele>761</ele>
        <time>2019-04-18T00:56:49Z</time>
      </trkpt>
      <trkpt lat="45.78413" lon="2.86495">
        <ele>761</ele>
        <time>2019-04-18T00:57:49Z</time>
      </trkpt>
      <trkpt lat="45.78397" lon="2.86529">
        <ele>764</ele>
        <time>2019-04-18T00:58:49Z</time>
      </trkpt>
      <trkpt lat="45.7831" lon="2.86749">
        <ele>770</ele>
        <time>2019-04-18T00:59:49Z</time>
      </trkpt>
      <trkpt lat="45.783" lon="2.86787">
        <ele>773</ele>
        <time>2019-04-18T01:00:49Z</time>
      </trkpt>
      <trkpt lat="45.7829" lon="2.86841">
        <ele>776</ele>
        <time>2019-04-18T01:01:49Z</time>
      </trkpt>
      <trkpt lat="45.78288" lon="2.86888">
        <ele>779</ele>
        <time>2019-04-18T01:02:49Z</time>
      </trkpt>
      <trkpt lat="45.78291" lon="2.86921">
        <ele>780</ele>
        <time>2019-04-18T01:03:49Z</time>
      </trkpt>
      <trkpt lat="45.78306" lon="2.87031">
        <ele>789</ele>
        <time>2019-04-18T01:04:49Z</time>
      </trkpt>
      <trkpt lat="45.78312" lon="2.87064">
        <ele>792</ele>
        <time>2019-04-18T01:05:49Z</time>
      </trkpt>
      <trkpt lat="45.78339" lon="2.87123">
        <ele>793</ele>
        <time>2019-04-18T01:06:49Z</time>
      </trkpt>
      <trkpt lat="45.78343" lon="2.87141">
        <ele>793</ele>
        <time>2019-04-18T01:07:49Z</time>
      </trkpt>
      <trkpt lat="45.78345" lon="2.87155">
        <ele>794</ele>
        <time>2019-04-18T01:08:49Z</time>
      </trkpt>
      <trkpt lat="45.78345" lon="2.87247">
        <ele>794</ele>
        <time>2019-04-18T01:09:49Z</time>
      </trkpt>
      <trkpt lat="45.78351" lon="2.8728">
        <ele>795</ele>
        <time>2019-04-18T01:10:49Z</time>
      </trkpt>
      <trkpt lat="45.78358" lon="2.87296">
        <ele>794</ele>
        <time>2019-04-18T01:11:49Z</time>
      </trkpt>
      <trkpt lat="45.78371" lon="2.87318">
        <ele>792</ele>
        <time>2019-04-18T01:12:49Z</time>
      </trkpt>
      <trkpt lat="45.78501" lon="2.87502">
        <ele>778</ele>
        <time>2019-04-18T01:13:49Z</time>
      </trkpt>
      <trkpt lat="45.78525" lon="2.87557">
        <ele>779</ele>
        <time>2019-04-18T01:14:49Z</time>
      </trkpt>
      <trkpt lat="45.78545" lon="2.87618">
        <ele>780</ele>
        <time>2019-04-18T01:15:49Z</time>
      </trkpt>
      <trkpt lat="45.78561" lon="2.8768">
        <ele>781</ele>
        <time>2019-04-18T01:16:49Z</time>
      </trkpt>
      <trkpt lat="45.78572" lon="2.87775">
        <ele>785</ele>
        <time>2019-04-18T01:17:49Z</time>
      </trkpt>
      <trkpt lat="45.78577" lon="2.8789">
        <ele>787</ele>
        <time>2019-04-18T01:18:49Z</time>
      </trkpt>
      <trkpt lat="45.78585" lon="2.87927">
        <ele>787</ele>
        <time>2019-04-18T01:19:49Z</time>
      </trkpt>
      <trkpt lat="45.78586" lon="2.87949">
        <ele>788</ele>
        <time>2019-04-18T01:20:49Z</time>
      </trkpt>
      <trkpt lat="45.78584" lon="2.87966">
        <ele>788</ele>
        <time>2019-04-18T01:21:49Z</time>
      </trkpt>
      <trkpt lat="45.78566" lon="2.88016">
        <ele>792</ele>
        <time>2019-04-18T01:22:49Z</time>
      </trkpt>
      <trkpt lat="45.78553" lon="2.88071">
        <ele>796</ele>
        <time>2019-04-18T01:23:49Z</time>
      </trkpt>
      <trkpt lat="45.78564" lon="2.88076">
        <ele>794</ele>
        <time>2019-04-18T01:24:49Z</time>
      </trkpt>
      <trkpt lat="45.78639" lon="2.88109">
        <ele>787</ele>
        <time>2019-04-18T01:25:49Z</time>
      </trkpt>
      <trkpt lat="45.78674" lon="2.88108">
        <ele>785</ele>
        <time>2019-04-18T01:26:49Z</time>
      </trkpt>
      <trkpt lat="45.788" lon="2.88059">
        <ele>789</ele>
        <time>2019-04-18T01:27:49Z</time>
      </trkpt>
      <trkpt lat="45.78827" lon="2.88055">
        <ele>791</ele>
        <time>2019-04-18T01:28:49Z</time>
      </trkpt>
      <trkpt lat="45.79252" lon="2.88067">
        <ele>795</ele>
        <time>2019-04-18T01:29:49Z</time>
      </trkpt>
      <trkpt lat="45.79267" lon="2.88065">
        <ele>795</ele>
        <time>2019-04-18T01:30:49Z</time>
      </trkpt>
      <trkpt lat="45.79279" lon="2.88058">
        <ele>796</ele>
        <time>2019-04-18T01:31:49Z</time>
      </trkpt>
      <trkpt lat="45.79284" lon="2.88052">
        <ele>796</ele>
        <time>2019-04-18T01:32:49Z</time>
      </trkpt>
      <trkpt lat="45.79291" lon="2.88041">
        <ele>796</ele>
        <time>2019-04-18T01:33:49Z</time>
      </trkpt>
      <trkpt lat="45.79307" lon="2.88005">
        <ele>798</ele>
        <time>2019-04-18T01:34:49Z</time>
      </trkpt>
      <trkpt lat="45.79331" lon="2.87946">
        <ele>800</ele>
        <time>2019-04-18T01:35:49Z</time>
      </trkpt>
      <trkpt lat="45.79341" lon="2.87907">
        <ele>800</ele>
        <time>2019-04-18T01:36:49Z</time>
      </trkpt>
      <trkpt lat="45.79344" lon="2.87871">
        <ele>800</ele>
        <time>2019-04-18T01:37:49Z</time>
      </trkpt>
      <trkpt lat="45.79344" lon="2.87833">
        <ele>799</ele>
        <time>2019-04-18T01:38:49Z</time>
      </trkpt>
      <trkpt lat="45.7934" lon="2.8781">
        <ele>800</ele>
        <time>2019-04-18T01:39:49Z</time>
      </trkpt>
      <trkpt lat="45.79299" lon="2.87601">
        <ele>801</ele>
        <time>2019-04-18T01:40:49Z</time>
      </trkpt>
      <trkpt lat="45.79297" lon="2.87577">
        <ele>802</ele>
        <time>2019-04-18T01:41:49Z</time>
      </trkpt>
      <trkpt lat="45.79298" lon="2.8756">
        <ele>802</ele>
        <time>2019-04-18T01:42:49Z</time>
      </trkpt>
      <trkpt lat="45.79306" lon="2.87526">
        <ele>802</ele>
        <time>2019-04-18T01:43:49Z</time>
      </trkpt>
      <trkpt lat="45.79314" lon="2.87509">
        <ele>802</ele>
        <time>2019-04-18T01:44:49Z</time>
      </trkpt>
      <trkpt lat="45.79323" lon="2.87498">
        <ele>802</ele>
        <time>2019-04-18T01:45:49Z</time>
      </trkpt>
      <trkpt lat="45.7934" lon="2.87485">
        <ele>802</ele>
        <time>2019-04-18T01:46:49Z</time>
      </trkpt>
      <trkpt lat="45.79348" lon="2.87482">
        <ele>803</ele>
        <time>2019-04-18T01:47:49Z</time>
      </trkpt>
      <trkpt lat="45.79377" lon="2.87474">
        <ele>803</ele>
        <time>2019-04-18T01:48:49Z</time>
      </trkpt>
      <trkpt lat="45.79454" lon="2.87465">
        <ele>805</ele>
        <time>2019-04-18T01:49:49Z</time>
      </trkpt>
      <trkpt lat="45.79479" lon="2.87456">
        <ele>806</ele>
        <time>2019-04-18T01:50:49Z</time>
      </trkpt>
      <trkpt lat="45.7949" lon="2.87448">
        <ele>807</ele>
        <time>2019-04-18T01:51:49Z</time>
      </trkpt>
      <trkpt lat="45.79501" lon="2.87438">
        <ele>807</ele>
        <time>2019-04-18T01:52:49Z</time>
      </trkpt>
      <trkpt lat="45.79536" lon="2.8739">
        <ele>807</ele>
        <time>2019-04-18T01:53:49Z</time>
      </trkpt>
      <trkpt lat="45.79553" lon="2.87376">
        <ele>807</ele>
        <time>2019-04-18T01:54:49Z</time>
      </trkpt>
      <trkpt lat="45.79762" lon="2.87321">
        <ele>803</ele>
        <time>2019-04-18T01:55:49Z</time>
      </trkpt>
      <trkpt lat="45.79792" lon="2.87311">
        <ele>803</ele>
        <time>2019-04-18T01:56:49Z</time>
      </trkpt>
      <trkpt lat="45.7982" lon="2.87297">
        <ele>804</ele>
        <time>2019-04-18T01:57:49Z</time>
      </trkpt>
      <trkpt lat="45.7985" lon="2.87275">
        <ele>804</ele>
        <time>2019-04-18T01:58:49Z</time>
      </trkpt>
      <trkpt lat="45.79857" lon="2.87268">
        <ele>804</ele>
        <time>2019-04-18T01:59:49Z</time>
      </trkpt>
      <trkpt lat="45.79873" lon="2.87246">
        <ele>803</ele>
        <time>2019-04-18T02:00:49Z</time>
      </trkpt>
      <trkpt lat="45.79956" lon="2.87094">
        <ele>796</ele>
        <time>2019-04-18T02:01:49Z</time>
      </trkpt>
      <trkpt lat="45.79974" lon="2.87067">
        <ele>794</ele>
        <time>2019-04-18T02:02:49Z</time>
      </trkpt>
      <trkpt lat="45.79984" lon="2.87052">
        <ele>793</ele>
        <time>2019-04-18T02:03:49Z</time>
      </trkpt>
      <trkpt lat="45.801" lon="2.86917">
        <ele>788</ele>
        <time>2019-04-18T02:04:49Z</time>
      </trkpt>
      <trkpt lat="45.80117" lon="2.86894">
        <ele>786</ele>
        <time>2019-04-18T02:05:49Z</time>
      </trkpt>
      <trkpt lat="45.80139" lon="2.86853">
        <ele>785</ele>
        <time>2019-04-18T02:06:49Z</time>
      </trkpt>
      <trkpt lat="45.80187" lon="2.86757">
        <ele>782</ele>
        <time>2019-04-18T02:07:49Z</time>
      </trkpt>
      <trkpt lat="45.80207" lon="2.86714">
        <ele>781</ele>
        <time>2019-04-18T02:08:49Z</time>
      </trkpt>
      <trkpt lat="45.80267" lon="2.86552">
        <ele>780</ele>
        <time>2019-04-18T02:09:49Z</time>
      </trkpt>
      <trkpt lat="45.80272" lon="2.86539">
        <ele>780</ele>
        <time>2019-04-18T02:10:49Z</time>
      </trkpt>
      <trkpt lat="45.80292" lon="2.86504">
        <ele>780</ele>
        <time>2019-04-18T02:11:49Z</time>
      </trkpt>
      <trkpt lat="45.80406" lon="2.86315">
        <ele>776</ele>
        <time>2019-04-18T02:12:49Z</time>
      </trkpt>
      <trkpt lat="45.8045" lon="2.86236">
        <ele>774</ele>
        <time>2019-04-18T02:13:49Z</time>
      </trkpt>
      <trkpt lat="45.80493" lon="2.86155">
        <ele>772</ele>
        <time>2019-04-18T02:14:49Z</time>
      </trkpt>
      <trkpt lat="45.80511" lon="2.86118">
        <ele>772</ele>
        <time>2019-04-18T02:15:49Z</time>
      </trkpt>
      <trkpt lat="45.80526" lon="2.86136">
        <ele>773</ele>
        <time>2019-04-18T02:16:49Z</time>
      </trkpt>
      <trkpt lat="45.80652" lon="2.86359">
        <ele>775</ele>
        <time>2019-04-18T02:17:49Z</time>
      </trkpt>
      <trkpt lat="45.80688" lon="2.86432">
        <ele>773</ele>
        <time>2019-04-18T02:18:49Z</time>
      </trkpt>
      <trkpt lat="45.80826" lon="2.8679">
        <ele>777</ele>
        <time>2019-04-18T02:19:49Z</time>
      </trkpt>
      <trkpt lat="45.80841" lon="2.86809">
        <ele>779</ele>
        <time>2019-04-18T02:20:49Z</time>
      </trkpt>
      <trkpt lat="45.80873" lon="2.86827">
        <ele>781</ele>
        <time>2019-04-18T02:21:49Z</time>
      </trkpt>
      <trkpt lat="45.80881" lon="2.86833">
        <ele>782</ele>
        <time>2019-04-18T02:22:49Z</time>
      </trkpt>
      <trkpt lat="45.80894" lon="2.86856">
        <ele>783</ele>
        <time>2019-04-18T02:23:49Z</time>
      </trkpt>
      <trkpt lat="45.80914" lon="2.86915">
        <ele>785</ele>
        <time>2019-04-18T02:24:49Z</time>
      </trkpt>
      <trkpt lat="45.80923" lon="2.86928">
        <ele>786</ele>
        <time>2019-04-18T02:25:49Z</time>
      </trkpt>
      <trkpt lat="45.80968" lon="2.86945">
        <ele>787</ele>
        <time>2019-04-18T02:26:49Z</time>
      </trkpt>
      <trkpt lat="45.80976" lon="2.86954">
        <ele>787</ele>
        <time>2019-04-18T02:27:49Z</time>
      </trkpt>
      <trkpt lat="45.80983" lon="2.86967">
        <ele>787</ele>
        <time>2019-04-18T02:28:49Z</time>
      </trkpt>
      <trkpt lat="45.8099" lon="2.86992">
        <ele>786</ele>
        <time>2019-04-18T02:29:49Z</time>
      </trkpt>
      <trkpt lat="45.80994" lon="2.87017">
        <ele>787</ele>
        <time>2019-04-18T02:30:49Z</time>
      </trkpt>
      <trkpt lat="45.81005" lon="2.8721">
        <ele>795</ele>
        <time>2019-04-18T02:31:49Z</time>
      </trkpt>
      <trkpt lat="45.81007" lon="2.87237">
        <ele>796</ele>
        <time>2019-04-18T02:32:49Z</time>
      </trkpt>
      <trkpt lat="45.81012" lon="2.87258">
        <ele>796</ele>
        <time>2019-04-18T02:33:49Z</time>
      </trkpt>
      <trkpt lat="45.8102" lon="2.87272">
        <ele>797</ele>
        <time>2019-04-18T02:34:49Z</time>
      </trkpt>
      <trkpt lat="45.81052" lon="2.87297">
        <ele>797</ele>
        <time>2019-04-18T02:35:49Z</time>
      </trkpt>
      <trkpt lat="45.81073" lon="2.87318">
        <ele>798</ele>
        <time>2019-04-18T02:36:49Z</time>
      </trkpt>
      <trkpt lat="45.81082" lon="2.87328">
        <ele>798</ele>
        <time>2019-04-18T02:37:49Z</time>
      </trkpt>
      <trkpt lat="45.8109" lon="2.87344">
        <ele>798</ele>
        <time>2019-04-18T02:38:49Z</time>
      </trkpt>
      <trkpt lat="45.81147" lon="2.87474">
        <ele>797</ele>
        <time>2019-04-18T02:39:49Z</time>
      </trkpt>
      <trkpt lat="45.81182" lon="2.87549">
        <ele>796</ele>
        <time>2019-04-18T02:40:49Z</time>
      </trkpt>
      <trkpt lat="45.81197" lon="2.87578">
        <ele>796</ele>
        <time>2019-04-18T02:41:49Z</time>
      </trkpt>
      <trkpt lat="45.81212" lon="2.87595">
        <ele>796</ele>
        <time>2019-04-18T02:42:49Z</time>
      </trkpt>
      <trkpt lat="45.81224" lon="2.87605">
        <ele>796</ele>
        <time>2019-04-18T02:43:49Z</time>
      </trkpt>
      <trkpt lat="45.81259" lon="2.87618">
        <ele>796</ele>
        <time>2019-04-18T02:44:49Z</time>
      </trkpt>
      <trkpt lat="45.81309" lon="2.87628">
        <ele>794</ele>
        <time>2019-04-18T02:45:49Z</time>
      </trkpt>
      <trkpt lat="45.81357" lon="2.87644">
        <ele>793</ele>
        <time>2019-04-18T02:46:49Z</time>
      </trkpt>
      <trkpt lat="45.81372" lon="2.87653">
        <ele>793</ele>
        <time>2019-04-18T02:47:49Z</time>
      </trkpt>
      <trkpt lat="45.81458" lon="2.87744">
        <ele>788</ele>
        <time>2019-04-18T02:48:49Z</time>
      </trkpt>
      <trkpt lat="45.8147" lon="2.87755">
        <ele>788</ele>
        <time>2019-04-18T02:49:49Z</time>
      </trkpt>
      <trkpt lat="45.81484" lon="2.87761">
        <ele>788</ele>
        <time>2019-04-18T02:50:49Z</time>
      </trkpt>
      <trkpt lat="45.81689" lon="2.87764">
        <ele>782</ele>
        <time>2019-04-18T02:51:49Z</time>
      </trkpt>
      <trkpt lat="45.81713" lon="2.87769">
        <ele>781</ele>
        <time>2019-04-18T02:52:49Z</time>
      </trkpt>
      <trkpt lat="45.81736" lon="2.8778">
        <ele>780</ele>
        <time>2019-04-18T02:53:49Z</time>
      </trkpt>
      <trkpt lat="45.81761" lon="2.87786">
        <ele>779</ele>
        <time>2019-04-18T02:54:49Z</time>
      </trkpt>
      <trkpt lat="45.81783" lon="2.87788">
        <ele>778</ele>
        <time>2019-04-18T02:55:49Z</time>
      </trkpt>
      <trkpt lat="45.81855" lon="2.8778">
        <ele>775</ele>
        <time>2019-04-18T02:56:49Z</time>
      </trkpt>
      <trkpt lat="45.81879" lon="2.87783">
        <ele>773</ele>
        <time>2019-04-18T02:57:49Z</time>
      </trkpt>
      <trkpt lat="45.81946" lon="2.87821">
        <ele>770</ele>
        <time>2019-04-18T02:58:49Z</time>
      </trkpt>
      <trkpt lat="45.82039" lon="2.87879">
        <ele>769</ele>
        <time>2019-04-18T02:59:49Z</time>
      </trkpt>
      <trkpt lat="45.82053" lon="2.87885">
        <ele>769</ele>
        <time>2019-04-18T03:00:49Z</time>
      </trkpt>
      <trkpt lat="45.82255" lon="2.87935">
        <ele>773</ele>
        <time>2019-04-18T03:01:49Z</time>
      </trkpt>
      <trkpt lat="45.82324" lon="2.87964">
        <ele>773</ele>
        <time>2019-04-18T03:02:49Z</time>
      </trkpt>
      <trkpt lat="45.82335" lon="2.87969">
        <ele>773</ele>
        <time>2019-04-18T03:03:49Z</time>
      </trkpt>
      <trkpt lat="45.82354" lon="2.87983">
        <ele>772</ele>
        <time>2019-04-18T03:04:49Z</time>
      </trkpt>
      <trkpt lat="45.82383" lon="2.88014">
        <ele>772</ele>
        <time>2019-04-18T03:05:49Z</time>
      </trkpt>
      <trkpt lat="45.82409" lon="2.88049">
        <ele>773</ele>
        <time>2019-04-18T03:06:49Z</time>
      </trkpt>
      <trkpt lat="45.82433" lon="2.88095">
        <ele>776</ele>
        <time>2019-04-18T03:07:49Z</time>
      </trkpt>
      <trkpt lat="45.82446" lon="2.88118">
        <ele>776</ele>
        <time>2019-04-18T03:08:49Z</time>
      </trkpt>
      <trkpt lat="45.82464" lon="2.88141">
        <ele>777</ele>
        <time>2019-04-18T03:09:49Z</time>
      </trkpt>
      <trkpt lat="45.82562" lon="2.88252">
        <ele>783</ele>
        <time>2019-04-18T03:10:49Z</time>
      </trkpt>
      <trkpt lat="45.82573" lon="2.88268">
        <ele>784</ele>
        <time>2019-04-18T03:11:49Z</time>
      </trkpt>
      <trkpt lat="45.82645" lon="2.88409">
        <ele>789</ele>
        <time>2019-04-18T03:12:49Z</time>
      </trkpt>
      <trkpt lat="45.82684" lon="2.88492">
        <ele>792</ele>
        <time>2019-04-18T03:13:49Z</time>
      </trkpt>
      <trkpt lat="45.82705" lon="2.88555">
        <ele>792</ele>
        <time>2019-04-18T03:14:49Z</time>
      </trkpt>
      <trkpt lat="45.82819" lon="2.8895">
        <ele>797</ele>
        <time>2019-04-18T03:15:49Z</time>
      </trkpt>
      <trkpt lat="45.83004" lon="2.89486">
        <ele>803</ele>
        <time>2019-04-18T03:16:49Z</time>
      </trkpt>
      <trkpt lat="45.83017" lon="2.89517">
        <ele>803</ele>
        <time>2019-04-18T03:17:49Z</time>
      </trkpt>
      <trkpt lat="45.83012" lon="2.89531">
        <ele>803</ele>
        <time>2019-04-18T03:18:49Z</time>
      </trkpt>
      <trkpt lat="45.8302" lon="2.89541">
        <ele>803</ele>
        <time>2019-04-18T03:19:49Z</time>
      </trkpt>
      <trkpt lat="45.83022" lon="2.89547">
        <ele>803</ele>
        <time>2019-04-18T03:20:49Z</time>
      </trkpt>
      <trkpt lat="45.8303" lon="2.89592">
        <ele>804</ele>
        <time>2019-04-18T03:21:49Z</time>
      </trkpt>
      <trkpt lat="45.83045" lon="2.89715">
        <ele>805</ele>
        <time>2019-04-18T03:22:49Z</time>
      </trkpt>
      <trkpt lat="45.83048" lon="2.89724">
        <ele>805</ele>
        <time>2019-04-18T03:23:49Z</time>
      </trkpt>
      <trkpt lat="45.83067" lon="2.89764">
        <ele>805</ele>
        <time>2019-04-18T03:24:49Z</time>
      </trkpt>
      <trkpt lat="45.83086" lon="2.89796">
        <ele>804</ele>
        <time>2019-04-18T03:25:49Z</time>
      </trkpt>
      <trkpt lat="45.83098" lon="2.89812">
        <ele>803</ele>
        <time>2019-04-18T03:26:49Z</time>
      </trkpt>
      <trkpt lat="45.83135" lon="2.89844">
        <ele>800</ele>
        <time>2019-04-18T03:27:49Z</time>
      </trkpt>
      <trkpt lat="45.83154" lon="2.89855">
        <ele>799</ele>
        <time>2019-04-18T03:28:49Z</time>
      </trkpt>
      <trkpt lat="45.83188" lon="2.89865">
        <ele>798</ele>
        <time>2019-04-18T03:29:49Z</time>
      </trkpt>
      <trkpt lat="45.83233" lon="2.89871">
        <ele>798</ele>
        <time>2019-04-18T03:30:49Z</time>
      </trkpt>
      <trkpt lat="45.83249" lon="2.89876">
        <ele>799</ele>
        <time>2019-04-18T03:31:49Z</time>
      </trkpt>
      <trkpt lat="45.83296" lon="2.89902">
        <ele>804</ele>
        <time>2019-04-18T03:32:49Z</time>
      </trkpt>
      <trkpt lat="45.83323" lon="2.89926">
        <ele>807</ele>
        <time>2019-04-18T03:33:49Z</time>
      </trkpt>
      <trkpt lat="45.83342" lon="2.89946">
        <ele>809</ele>
        <time>2019-04-18T03:34:49Z</time>
      </trkpt>
      <trkpt lat="45.83356" lon="2.89957">
        <ele>811</ele>
        <time>2019-04-18T03:35:49Z</time>
      </trkpt>
      <trkpt lat="45.83409" lon="2.89976">
        <ele>814</ele>
        <time>2019-04-18T03:36:49Z</time>
      </trkpt>
      <trkpt lat="45.83457" lon="2.89966">
        <ele>815</ele>
        <time>2019-04-18T03:37:49Z</time>
      </trkpt>
      <trkpt lat="45.83501" lon="2.89966">
        <ele>816</ele>
        <time>2019-04-18T03:38:49Z</time>
      </trkpt>
      <trkpt lat="45.83532" lon="2.8996">
        <ele>817</ele>
        <time>2019-04-18T03:39:49Z</time>
      </trkpt>
      <trkpt lat="45.83534" lon="2.89957">
        <ele>817</ele>
        <time>2019-04-18T03:40:49Z</time>
      </trkpt>
      <trkpt lat="45.83558" lon="2.89944">
        <ele>817</ele>
        <time>2019-04-18T03:41:49Z</time>
      </trkpt>
      <trkpt lat="45.83566" lon="2.89942">
        <ele>818</ele>
        <time>2019-04-18T03:42:49Z</time>
      </trkpt>
      <trkpt lat="45.83572" lon="2.89946">
        <ele>818</ele>
        <time>2019-04-18T03:43:49Z</time>
      </trkpt>
      <trkpt lat="45.83616" lon="2.90005">
        <ele>822</ele>
        <time>2019-04-18T03:44:49Z</time>
      </trkpt>
      <trkpt lat="45.83624" lon="2.90011">
        <ele>823</ele>
        <time>2019-04-18T03:45:49Z</time>
      </trkpt>
      <trkpt lat="45.83631" lon="2.90013">
        <ele>823</ele>
        <time>2019-04-18T03:46:49Z</time>
      </trkpt>
      <trkpt lat="45.83636" lon="2.90013">
        <ele>823</ele>
        <time>2019-04-18T03:47:49Z</time>
      </trkpt>
      <trkpt lat="45.83642" lon="2.90009">
        <ele>823</ele>
        <time>2019-04-18T03:48:49Z</time>
      </trkpt>
      <trkpt lat="45.83651" lon="2.89992">
        <ele>823</ele>
        <time>2019-04-18T03:49:49Z</time>
      </trkpt>
      <trkpt lat="45.8366" lon="2.89979">
        <ele>823</ele>
        <time>2019-04-18T03:50:49Z</time>
      </trkpt>
      <trkpt lat="45.83676" lon="2.8997">
        <ele>823</ele>
        <time>2019-04-18T03:51:49Z</time>
      </trkpt>
      <trkpt lat="45.83687" lon="2.89971">
        <ele>823</ele>
        <time>2019-04-18T03:52:49Z</time>
      </trkpt>
      <trkpt lat="45.8372" lon="2.89984">
        <ele>824</ele>
        <time>2019-04-18T03:53:49Z</time>
      </trkpt>
      <trkpt lat="45.8373" lon="2.8999">
        <ele>824</ele>
        <time>2019-04-18T03:54:49Z</time>
      </trkpt>
      <trkpt lat="45.83737" lon="2.89998">
        <ele>825</ele>
        <time>2019-04-18T03:55:49Z</time>
      </trkpt>
      <trkpt lat="45.83742" lon="2.90008">
        <ele>825</ele>
        <time>2019-04-18T03:56:49Z</time>
      </trkpt>
      <trkpt lat="45.83754" lon="2.90063">
        <ele>827</ele>
        <time>2019-04-18T03:57:49Z</time>
      </trkpt>
      <trkpt lat="45.83762" lon="2.9012">
        <ele>826</ele>
        <time>2019-04-18T03:58:49Z</time>
      </trkpt>
      <trkpt lat="45.83776" lon="2.90193">
        <ele>825</ele>
        <time>2019-04-18T03:59:49Z</time>
      </trkpt>
      <trkpt lat="45.8378" lon="2.90245">
        <ele>825</ele>
        <time>2019-04-18T04:00:49Z</time>
      </trkpt>
      <trkpt lat="45.83785" lon="2.90267">
        <ele>824</ele>
        <time>2019-04-18T04:01:49Z</time>
      </trkpt>
      <trkpt lat="45.83812" lon="2.90355">
        <ele>824</ele>
        <time>2019-04-18T04:02:49Z</time>
      </trkpt>
      <trkpt lat="45.83835" lon="2.90466">
        <ele>824</ele>
        <time>2019-04-18T04:03:49Z</time>
      </trkpt>
      <trkpt lat="45.83848" lon="2.90498">
        <ele>824</ele>
        <time>2019-04-18T04:04:49Z</time>
      </trkpt>
      <trkpt lat="45.83856" lon="2.9051">
        <ele>825</ele>
        <time>2019-04-18T04:05:49Z</time>
      </trkpt>
      <trkpt lat="45.83863" lon="2.90516">
        <ele>825</ele>
        <time>2019-04-18T04:06:49Z</time>
      </trkpt>
      <trkpt lat="45.83869" lon="2.90515">
        <ele>825</ele>
        <time>2019-04-18T04:07:49Z</time>
      </trkpt>
      <trkpt lat="45.8388" lon="2.90492">
        <ele>826</ele>
        <time>2019-04-18T04:08:49Z</time>
      </trkpt>
      <trkpt lat="45.8389" lon="2.90488">
        <ele>827</ele>
        <time>2019-04-18T04:09:49Z</time>
      </trkpt>
      <trkpt lat="45.83944" lon="2.90486">
        <ele>829</ele>
        <time>2019-04-18T04:10:49Z</time>
      </trkpt>
      <trkpt lat="45.83978" lon="2.9048">
        <ele>831</ele>
        <time>2019-04-18T04:11:49Z</time>
      </trkpt>
      <trkpt lat="45.8401" lon="2.90483">
        <ele>831</ele>
        <time>2019-04-18T04:12:49Z</time>
      </trkpt>
      <trkpt lat="45.84033" lon="2.90488">
        <ele>831</ele>
        <time>2019-04-18T04:13:49Z</time>
      </trkpt>
      <trkpt lat="45.8406" lon="2.90496">
        <ele>831</ele>
        <time>2019-04-18T04:14:49Z</time>
      </trkpt>
      <trkpt lat="45.84114" lon="2.90522">
        <ele>832</ele>
        <time>2019-04-18T04:15:49Z</time>
      </trkpt>
      <trkpt lat="45.8413" lon="2.90526">
        <ele>833</ele>
        <time>2019-04-18T04:16:49Z</time>
      </trkpt>
      <trkpt lat="45.84276" lon="2.90453">
        <ele>833</ele>
        <time>2019-04-18T04:17:49Z</time>
      </trkpt>
      <trkpt lat="45.84311" lon="2.90434">
        <ele>834</ele>
        <time>2019-04-18T04:18:49Z</time>
      </trkpt>
      <trkpt lat="45.84344" lon="2.90408">
        <ele>834</ele>
        <time>2019-04-18T04:19:49Z</time>
      </trkpt>
      <trkpt lat="45.84378" lon="2.90377">
        <ele>833</ele>
        <time>2019-04-18T04:20:49Z</time>
      </trkpt>
      <trkpt lat="45.84411" lon="2.90336">
        <ele>831</ele>
        <time>2019-04-18T04:21:49Z</time>
      </trkpt>
      <trkpt lat="45.84487" lon="2.90212">
        <ele>826</ele>
        <time>2019-04-18T04:22:49Z</time>
      </trkpt>
      <trkpt lat="45.84498" lon="2.90198">
        <ele>826</ele>
        <time>2019-04-18T04:23:49Z</time>
      </trkpt>
      <trkpt lat="45.847" lon="2.9005">
        <ele>823</ele>
        <time>2019-04-18T04:24:49Z</time>
      </trkpt>
      <trkpt lat="45.8472" lon="2.90033">
        <ele>822</ele>
        <time>2019-04-18T04:25:49Z</time>
      </trkpt>
      <trkpt lat="45.84731" lon="2.90021">
        <ele>821</ele>
        <time>2019-04-18T04:26:49Z</time>
      </trkpt>
      <trkpt lat="45.84741" lon="2.90007">
        <ele>820</ele>
        <time>2019-04-18T04:27:49Z</time>
      </trkpt>
      <trkpt lat="45.84758" lon="2.89978">
        <ele>819</ele>
        <time>2019-04-18T04:28:49Z</time>
      </trkpt>
      <trkpt lat="45.84784" lon="2.89919">
        <ele>817</ele>
        <time>2019-04-18T04:29:49Z</time>
      </trkpt>
      <trkpt lat="45.84798" lon="2.89898">
        <ele>816</ele>
        <time>2019-04-18T04:30:49Z</time>
      </trkpt>
      <trkpt lat="45.84814" lon="2.8988">
        <ele>816</ele>
        <time>2019-04-18T04:31:49Z</time>
      </trkpt>
      <trkpt lat="45.84831" lon="2.89865">
        <ele>815</ele>
        <time>2019-04-18T04:32:49Z</time>
      </trkpt>
      <trkpt lat="45.84851" lon="2.89853">
        <ele>815</ele>
        <time>2019-04-18T04:33:49Z</time>
      </trkpt>
      <trkpt lat="45.84837" lon="2.89758">
        <ele>809</ele>
        <time>2019-04-18T04:34:49Z</time>
      </trkpt>
      <trkpt lat="45.84826" lon="2.89654">
        <ele>808</ele>
        <time>2019-04-18T04:35:49Z</time>
      </trkpt>
      <trkpt lat="45.84829" lon="2.8963">
        <ele>810</ele>
        <time>2019-04-18T04:36:49Z</time>
      </trkpt>
      <trkpt lat="45.84881" lon="2.89444">
        <ele>815</ele>
        <time>2019-04-18T04:37:49Z</time>
      </trkpt>
      <trkpt lat="45.84877" lon="2.89358">
        <ele>816</ele>
        <time>2019-04-18T04:38:49Z</time>
      </trkpt>
    </trkseg>
  </trk>
</gpx>